<?xml version="1.0" encoding="UTF-8" standalone="no" ?>
<gpx xmlns="http://www.topografix.com/GPX/1/1" xmlns:xsi="http://www.w3.org/2001/XMLSchema-instance" xsi:schemaLocation="http://www.topografix.com/GPX/1/1 http://www.topografix.com/GPX/1/1/gpx.xsd" version="1.1" creator="VisuGPX - https://www.visugpx.com">
  <metadata>
    <name>Terres Noires. Nice and hard </name>
    <desc><![CDATA[
]]></desc>
  </metadata>
  <trk>
    <name><![CDATA[Terres Noires. Nice and hard route!🔥🔥 Espectacular!🇫🇷]]></name>
    <trkseg>
      <trkpt lat="44.10024" lon="6.25179">
        <ele>628.948</ele>
        <time>2022-08-24T12:30:25Z</time>
      </trkpt>
      <trkpt lat="44.1001" lon="6.25193">
        <ele>629.861</ele>
        <time>2022-08-24T12:30:45Z</time>
      </trkpt>
      <trkpt lat="44.09999" lon="6.25159">
        <ele>630.117</ele>
        <time>2022-08-24T12:31:05Z</time>
      </trkpt>
      <trkpt lat="44.09991" lon="6.25116">
        <ele>628.709</ele>
        <time>2022-08-24T12:31:25Z</time>
      </trkpt>
      <trkpt lat="44.09983" lon="6.25093">
        <ele>628.145</ele>
        <time>2022-08-24T12:31:45Z</time>
      </trkpt>
      <trkpt lat="44.09982" lon="6.2508">
        <ele>626.645</ele>
        <time>2022-08-24T12:32:05Z</time>
      </trkpt>
      <trkpt lat="44.09985" lon="6.25056">
        <ele>625.785</ele>
        <time>2022-08-24T12:32:25Z</time>
      </trkpt>
      <trkpt lat="44.0998" lon="6.25041">
        <ele>625.14</ele>
        <time>2022-08-24T12:32:45Z</time>
      </trkpt>
      <trkpt lat="44.09983" lon="6.25017">
        <ele>624.96</ele>
        <time>2022-08-24T12:33:05Z</time>
      </trkpt>
      <trkpt lat="44.09983" lon="6.2501">
        <ele>624.855</ele>
        <time>2022-08-24T12:33:25Z</time>
      </trkpt>
      <trkpt lat="44.09976" lon="6.24988">
        <ele>624.897</ele>
        <time>2022-08-24T12:33:45Z</time>
      </trkpt>
      <trkpt lat="44.10001" lon="6.24978">
        <ele>624.755</ele>
        <time>2022-08-24T12:34:05Z</time>
      </trkpt>
      <trkpt lat="44.10008" lon="6.24962">
        <ele>625.18</ele>
        <time>2022-08-24T12:34:25Z</time>
      </trkpt>
      <trkpt lat="44.10001" lon="6.24921">
        <ele>627.128</ele>
        <time>2022-08-24T12:34:45Z</time>
      </trkpt>
      <trkpt lat="44.10003" lon="6.24904">
        <ele>627.389</ele>
        <time>2022-08-24T12:35:05Z</time>
      </trkpt>
      <trkpt lat="44.09988" lon="6.24875">
        <ele>627.417</ele>
        <time>2022-08-24T12:35:25Z</time>
      </trkpt>
      <trkpt lat="44.09964" lon="6.24821">
        <ele>627.109</ele>
        <time>2022-08-24T12:35:45Z</time>
      </trkpt>
      <trkpt lat="44.09947" lon="6.2479">
        <ele>627.253</ele>
        <time>2022-08-24T12:36:05Z</time>
      </trkpt>
      <trkpt lat="44.09928" lon="6.2476">
        <ele>626.923</ele>
        <time>2022-08-24T12:36:25Z</time>
      </trkpt>
      <trkpt lat="44.09895" lon="6.24713">
        <ele>625.133</ele>
        <time>2022-08-24T12:36:45Z</time>
      </trkpt>
      <trkpt lat="44.09861" lon="6.24666">
        <ele>622.378</ele>
        <time>2022-08-24T12:37:05Z</time>
      </trkpt>
      <trkpt lat="44.09846" lon="6.24642">
        <ele>621.158</ele>
        <time>2022-08-24T12:37:25Z</time>
      </trkpt>
      <trkpt lat="44.09824" lon="6.24589">
        <ele>617.913</ele>
        <time>2022-08-24T12:37:45Z</time>
      </trkpt>
      <trkpt lat="44.09792" lon="6.24504">
        <ele>615.735</ele>
        <time>2022-08-24T12:38:05Z</time>
      </trkpt>
      <trkpt lat="44.09759" lon="6.24419">
        <ele>614.473</ele>
        <time>2022-08-24T12:38:25Z</time>
      </trkpt>
      <trkpt lat="44.09727" lon="6.24335">
        <ele>613.628</ele>
        <time>2022-08-24T12:38:45Z</time>
      </trkpt>
      <trkpt lat="44.09694" lon="6.2425">
        <ele>612.763</ele>
        <time>2022-08-24T12:39:05Z</time>
      </trkpt>
      <trkpt lat="44.09691" lon="6.24245">
        <ele>612.744</ele>
        <time>2022-08-24T12:39:25Z</time>
      </trkpt>
      <trkpt lat="44.09661" lon="6.24228">
        <ele>612.218</ele>
        <time>2022-08-24T12:39:45Z</time>
      </trkpt>
      <trkpt lat="44.09632" lon="6.24208">
        <ele>612.109</ele>
        <time>2022-08-24T12:40:05Z</time>
      </trkpt>
      <trkpt lat="44.09554" lon="6.24147">
        <ele>611.627</ele>
        <time>2022-08-24T12:40:25Z</time>
      </trkpt>
      <trkpt lat="44.0955" lon="6.2414">
        <ele>611.627</ele>
        <time>2022-08-24T12:40:45Z</time>
      </trkpt>
      <trkpt lat="44.0955" lon="6.24131">
        <ele>611.677</ele>
        <time>2022-08-24T12:41:05Z</time>
      </trkpt>
      <trkpt lat="44.09555" lon="6.24117">
        <ele>611.662</ele>
        <time>2022-08-24T12:41:25Z</time>
      </trkpt>
      <trkpt lat="44.09555" lon="6.24097">
        <ele>611.432</ele>
        <time>2022-08-24T12:41:45Z</time>
      </trkpt>
      <trkpt lat="44.09553" lon="6.24062">
        <ele>610.747</ele>
        <time>2022-08-24T12:42:05Z</time>
      </trkpt>
      <trkpt lat="44.09546" lon="6.24024">
        <ele>609.219</ele>
        <time>2022-08-24T12:42:25Z</time>
      </trkpt>
      <trkpt lat="44.09538" lon="6.24006">
        <ele>608.977</ele>
        <time>2022-08-24T12:42:45Z</time>
      </trkpt>
      <trkpt lat="44.09504" lon="6.23957">
        <ele>607.782</ele>
        <time>2022-08-24T12:43:05Z</time>
      </trkpt>
      <trkpt lat="44.09469" lon="6.23908">
        <ele>607.343</ele>
        <time>2022-08-24T12:43:25Z</time>
      </trkpt>
      <trkpt lat="44.09441" lon="6.23858">
        <ele>606.764</ele>
        <time>2022-08-24T12:43:45Z</time>
      </trkpt>
      <trkpt lat="44.09422" lon="6.23813">
        <ele>606.21</ele>
        <time>2022-08-24T12:44:05Z</time>
      </trkpt>
      <trkpt lat="44.0942" lon="6.23796">
        <ele>606.109</ele>
        <time>2022-08-24T12:44:25Z</time>
      </trkpt>
      <trkpt lat="44.09394" lon="6.23711">
        <ele>604.715</ele>
        <time>2022-08-24T12:44:45Z</time>
      </trkpt>
      <trkpt lat="44.0939" lon="6.23705">
        <ele>604.715</ele>
        <time>2022-08-24T12:45:05Z</time>
      </trkpt>
      <trkpt lat="44.09383" lon="6.23686">
        <ele>604.665</ele>
        <time>2022-08-24T12:45:25Z</time>
      </trkpt>
      <trkpt lat="44.09381" lon="6.23668">
        <ele>603.88</ele>
        <time>2022-08-24T12:45:45Z</time>
      </trkpt>
      <trkpt lat="44.09385" lon="6.23663">
        <ele>603.55</ele>
        <time>2022-08-24T12:46:05Z</time>
      </trkpt>
      <trkpt lat="44.09383" lon="6.23652">
        <ele>603.595</ele>
        <time>2022-08-24T12:46:25Z</time>
      </trkpt>
      <trkpt lat="44.09381" lon="6.23649">
        <ele>603.447</ele>
        <time>2022-08-24T12:46:45Z</time>
      </trkpt>
      <trkpt lat="44.09375" lon="6.23648">
        <ele>603.335</ele>
        <time>2022-08-24T12:47:05Z</time>
      </trkpt>
      <trkpt lat="44.09371" lon="6.23651">
        <ele>603.32</ele>
        <time>2022-08-24T12:47:25Z</time>
      </trkpt>
      <trkpt lat="44.09362" lon="6.23648">
        <ele>603.194</ele>
        <time>2022-08-24T12:47:45Z</time>
      </trkpt>
      <trkpt lat="44.09338" lon="6.23587">
        <ele>602.357</ele>
        <time>2022-08-24T12:48:05Z</time>
      </trkpt>
      <trkpt lat="44.09313" lon="6.23525">
        <ele>602.122</ele>
        <time>2022-08-24T12:48:25Z</time>
      </trkpt>
      <trkpt lat="44.09297" lon="6.23493">
        <ele>601.409</ele>
        <time>2022-08-24T12:48:45Z</time>
      </trkpt>
      <trkpt lat="44.09258" lon="6.23384">
        <ele>600.44</ele>
        <time>2022-08-24T12:49:05Z</time>
      </trkpt>
      <trkpt lat="44.09252" lon="6.2335">
        <ele>600.35</ele>
        <time>2022-08-24T12:49:25Z</time>
      </trkpt>
      <trkpt lat="44.09257" lon="6.23347">
        <ele>600.21</ele>
        <time>2022-08-24T12:49:45Z</time>
      </trkpt>
      <trkpt lat="44.09249" lon="6.23263">
        <ele>598.075</ele>
        <time>2022-08-24T12:50:05Z</time>
      </trkpt>
      <trkpt lat="44.0924" lon="6.23218">
        <ele>597.775</ele>
        <time>2022-08-24T12:50:25Z</time>
      </trkpt>
      <trkpt lat="44.09241" lon="6.23213">
        <ele>597.71</ele>
        <time>2022-08-24T12:50:45Z</time>
      </trkpt>
      <trkpt lat="44.09241" lon="6.23211">
        <ele>597.792</ele>
        <time>2022-08-24T12:51:05Z</time>
      </trkpt>
      <trkpt lat="44.09235" lon="6.23212">
        <ele>597.77</ele>
        <time>2022-08-24T12:51:25Z</time>
      </trkpt>
      <trkpt lat="44.09226" lon="6.23204">
        <ele>597.715</ele>
        <time>2022-08-24T12:51:45Z</time>
      </trkpt>
      <trkpt lat="44.09173" lon="6.23172">
        <ele>597.777</ele>
        <time>2022-08-24T12:52:05Z</time>
      </trkpt>
      <trkpt lat="44.09119" lon="6.23139">
        <ele>597.861</ele>
        <time>2022-08-24T12:52:25Z</time>
      </trkpt>
      <trkpt lat="44.09115" lon="6.23134">
        <ele>597.827</ele>
        <time>2022-08-24T12:52:45Z</time>
      </trkpt>
      <trkpt lat="44.09114" lon="6.2312">
        <ele>597.809</ele>
        <time>2022-08-24T12:53:05Z</time>
      </trkpt>
      <trkpt lat="44.09108" lon="6.23112">
        <ele>597.938</ele>
        <time>2022-08-24T12:53:25Z</time>
      </trkpt>
      <trkpt lat="44.09101" lon="6.23109">
        <ele>598.048</ele>
        <time>2022-08-24T12:53:45Z</time>
      </trkpt>
      <trkpt lat="44.09093" lon="6.23111">
        <ele>598.168</ele>
        <time>2022-08-24T12:54:05Z</time>
      </trkpt>
      <trkpt lat="44.09094" lon="6.23111">
        <ele>598.183</ele>
        <time>2022-08-24T12:54:25Z</time>
      </trkpt>
      <trkpt lat="44.09088" lon="6.23118">
        <ele>598.173</ele>
        <time>2022-08-24T12:54:45Z</time>
      </trkpt>
      <trkpt lat="44.09086" lon="6.23123">
        <ele>598.158</ele>
        <time>2022-08-24T12:55:05Z</time>
      </trkpt>
      <trkpt lat="44.09087" lon="6.23137">
        <ele>598.15</ele>
        <time>2022-08-24T12:55:25Z</time>
      </trkpt>
      <trkpt lat="44.0909" lon="6.23144">
        <ele>598.148</ele>
        <time>2022-08-24T12:55:45Z</time>
      </trkpt>
      <trkpt lat="44.09092" lon="6.23183">
        <ele>597.653</ele>
        <time>2022-08-24T12:56:05Z</time>
      </trkpt>
      <trkpt lat="44.09079" lon="6.23245">
        <ele>597.321</ele>
        <time>2022-08-24T12:56:25Z</time>
      </trkpt>
      <trkpt lat="44.09066" lon="6.23306">
        <ele>597.841</ele>
        <time>2022-08-24T12:56:45Z</time>
      </trkpt>
      <trkpt lat="44.0905" lon="6.23411">
        <ele>598.705</ele>
        <time>2022-08-24T12:57:05Z</time>
      </trkpt>
      <trkpt lat="44.09051" lon="6.23456">
        <ele>599.209</ele>
        <time>2022-08-24T12:57:25Z</time>
      </trkpt>
      <trkpt lat="44.09045" lon="6.23537">
        <ele>600.283</ele>
        <time>2022-08-24T12:57:45Z</time>
      </trkpt>
      <trkpt lat="44.09031" lon="6.23605">
        <ele>601.223</ele>
        <time>2022-08-24T12:58:05Z</time>
      </trkpt>
      <trkpt lat="44.09017" lon="6.23673">
        <ele>602.073</ele>
        <time>2022-08-24T12:58:25Z</time>
      </trkpt>
      <trkpt lat="44.09012" lon="6.23673">
        <ele>602.068</ele>
        <time>2022-08-24T12:58:45Z</time>
      </trkpt>
      <trkpt lat="44.09007" lon="6.23677">
        <ele>602.078</ele>
        <time>2022-08-24T12:59:05Z</time>
      </trkpt>
      <trkpt lat="44.09004" lon="6.23683">
        <ele>602.063</ele>
        <time>2022-08-24T12:59:25Z</time>
      </trkpt>
      <trkpt lat="44.09003" lon="6.2369">
        <ele>602.025</ele>
        <time>2022-08-24T12:59:45Z</time>
      </trkpt>
      <trkpt lat="44.09007" lon="6.23699">
        <ele>602.063</ele>
        <time>2022-08-24T13:00:05Z</time>
      </trkpt>
      <trkpt lat="44.09004" lon="6.23729">
        <ele>602.348</ele>
        <time>2022-08-24T13:00:25Z</time>
      </trkpt>
      <trkpt lat="44.0899" lon="6.23802">
        <ele>602.757</ele>
        <time>2022-08-24T13:00:45Z</time>
      </trkpt>
      <trkpt lat="44.08975" lon="6.23874">
        <ele>603.2</ele>
        <time>2022-08-24T13:01:05Z</time>
      </trkpt>
      <trkpt lat="44.08967" lon="6.2393">
        <ele>603.92</ele>
        <time>2022-08-24T13:01:25Z</time>
      </trkpt>
      <trkpt lat="44.08968" lon="6.23973">
        <ele>604.509</ele>
        <time>2022-08-24T13:01:45Z</time>
      </trkpt>
      <trkpt lat="44.08978" lon="6.24037">
        <ele>605.376</ele>
        <time>2022-08-24T13:02:05Z</time>
      </trkpt>
      <trkpt lat="44.0899" lon="6.24071">
        <ele>605.856</ele>
        <time>2022-08-24T13:02:25Z</time>
      </trkpt>
      <trkpt lat="44.0903" lon="6.2415">
        <ele>606.946</ele>
        <time>2022-08-24T13:02:45Z</time>
      </trkpt>
      <trkpt lat="44.09071" lon="6.24229">
        <ele>607.811</ele>
        <time>2022-08-24T13:03:05Z</time>
      </trkpt>
      <trkpt lat="44.09111" lon="6.24308">
        <ele>610.091</ele>
        <time>2022-08-24T13:03:25Z</time>
      </trkpt>
      <trkpt lat="44.09117" lon="6.24323">
        <ele>610.386</ele>
        <time>2022-08-24T13:03:45Z</time>
      </trkpt>
      <trkpt lat="44.09119" lon="6.24344">
        <ele>610.868</ele>
        <time>2022-08-24T13:04:05Z</time>
      </trkpt>
      <trkpt lat="44.09112" lon="6.24409">
        <ele>613.246</ele>
        <time>2022-08-24T13:04:25Z</time>
      </trkpt>
      <trkpt lat="44.09102" lon="6.24429">
        <ele>613.251</ele>
        <time>2022-08-24T13:04:45Z</time>
      </trkpt>
      <trkpt lat="44.09075" lon="6.24475">
        <ele>612.667</ele>
        <time>2022-08-24T13:05:05Z</time>
      </trkpt>
      <trkpt lat="44.09069" lon="6.24494">
        <ele>612.681</ele>
        <time>2022-08-24T13:05:25Z</time>
      </trkpt>
      <trkpt lat="44.0907" lon="6.24552">
        <ele>612.319</ele>
        <time>2022-08-24T13:05:45Z</time>
      </trkpt>
      <trkpt lat="44.09063" lon="6.2458">
        <ele>612.409</ele>
        <time>2022-08-24T13:06:05Z</time>
      </trkpt>
      <trkpt lat="44.09031" lon="6.24648">
        <ele>613.347</ele>
        <time>2022-08-24T13:06:25Z</time>
      </trkpt>
      <trkpt lat="44.09" lon="6.24715">
        <ele>614.137</ele>
        <time>2022-08-24T13:06:45Z</time>
      </trkpt>
      <trkpt lat="44.08991" lon="6.24747">
        <ele>614.377</ele>
        <time>2022-08-24T13:07:05Z</time>
      </trkpt>
      <trkpt lat="44.08986" lon="6.24777">
        <ele>614.592</ele>
        <time>2022-08-24T13:07:25Z</time>
      </trkpt>
      <trkpt lat="44.08987" lon="6.24813">
        <ele>615.122</ele>
        <time>2022-08-24T13:07:45Z</time>
      </trkpt>
      <trkpt lat="44.08983" lon="6.24846">
        <ele>615.787</ele>
        <time>2022-08-24T13:08:05Z</time>
      </trkpt>
      <trkpt lat="44.08983" lon="6.24847">
        <ele>615.719</ele>
        <time>2022-08-24T13:08:25Z</time>
      </trkpt>
      <trkpt lat="44.08973" lon="6.24871">
        <ele>615.797</ele>
        <time>2022-08-24T13:08:45Z</time>
      </trkpt>
      <trkpt lat="44.08964" lon="6.24883">
        <ele>616.342</ele>
        <time>2022-08-24T13:09:05Z</time>
      </trkpt>
      <trkpt lat="44.0895" lon="6.24896">
        <ele>616.418</ele>
        <time>2022-08-24T13:09:25Z</time>
      </trkpt>
      <trkpt lat="44.08886" lon="6.2493">
        <ele>618.098</ele>
        <time>2022-08-24T13:09:45Z</time>
      </trkpt>
      <trkpt lat="44.08822" lon="6.24963">
        <ele>619.917</ele>
        <time>2022-08-24T13:10:05Z</time>
      </trkpt>
      <trkpt lat="44.08758" lon="6.24997">
        <ele>623.409</ele>
        <time>2022-08-24T13:10:25Z</time>
      </trkpt>
      <trkpt lat="44.08735" lon="6.25038">
        <ele>624.432</ele>
        <time>2022-08-24T13:10:45Z</time>
      </trkpt>
      <trkpt lat="44.08724" lon="6.25052">
        <ele>624.472</ele>
        <time>2022-08-24T13:11:05Z</time>
      </trkpt>
      <trkpt lat="44.08663" lon="6.25102">
        <ele>626.292</ele>
        <time>2022-08-24T13:11:25Z</time>
      </trkpt>
      <trkpt lat="44.08603" lon="6.25152">
        <ele>628.737</ele>
        <time>2022-08-24T13:11:45Z</time>
      </trkpt>
      <trkpt lat="44.08561" lon="6.25191">
        <ele>630.437</ele>
        <time>2022-08-24T13:12:05Z</time>
      </trkpt>
      <trkpt lat="44.0852" lon="6.2523">
        <ele>631.862</ele>
        <time>2022-08-24T13:12:25Z</time>
      </trkpt>
      <trkpt lat="44.08452" lon="6.25276">
        <ele>634.564</ele>
        <time>2022-08-24T13:12:45Z</time>
      </trkpt>
      <trkpt lat="44.08422" lon="6.25305">
        <ele>635.922</ele>
        <time>2022-08-24T13:13:05Z</time>
      </trkpt>
      <trkpt lat="44.08379" lon="6.25363">
        <ele>638.567</ele>
        <time>2022-08-24T13:13:25Z</time>
      </trkpt>
      <trkpt lat="44.08363" lon="6.25405">
        <ele>639.438</ele>
        <time>2022-08-24T13:13:45Z</time>
      </trkpt>
      <trkpt lat="44.0834" lon="6.25442">
        <ele>641.07</ele>
        <time>2022-08-24T13:14:05Z</time>
      </trkpt>
      <trkpt lat="44.08326" lon="6.25461">
        <ele>641.317</ele>
        <time>2022-08-24T13:14:25Z</time>
      </trkpt>
      <trkpt lat="44.08308" lon="6.25481">
        <ele>641.909</ele>
        <time>2022-08-24T13:14:45Z</time>
      </trkpt>
      <trkpt lat="44.08264" lon="6.25515">
        <ele>643.684</ele>
        <time>2022-08-24T13:15:05Z</time>
      </trkpt>
      <trkpt lat="44.08248" lon="6.25531">
        <ele>644.074</ele>
        <time>2022-08-24T13:15:25Z</time>
      </trkpt>
      <trkpt lat="44.08221" lon="6.25569">
        <ele>644.164</ele>
        <time>2022-08-24T13:15:45Z</time>
      </trkpt>
      <trkpt lat="44.08201" lon="6.25613">
        <ele>645.159</ele>
        <time>2022-08-24T13:16:05Z</time>
      </trkpt>
      <trkpt lat="44.0816" lon="6.25676">
        <ele>646.539</ele>
        <time>2022-08-24T13:16:25Z</time>
      </trkpt>
      <trkpt lat="44.08147" lon="6.257">
        <ele>647.154</ele>
        <time>2022-08-24T13:16:45Z</time>
      </trkpt>
      <trkpt lat="44.08113" lon="6.25795">
        <ele>648.946</ele>
        <time>2022-08-24T13:17:05Z</time>
      </trkpt>
      <trkpt lat="44.08094" lon="6.25831">
        <ele>649.944</ele>
        <time>2022-08-24T13:17:25Z</time>
      </trkpt>
      <trkpt lat="44.08081" lon="6.25845">
        <ele>649.979</ele>
        <time>2022-08-24T13:17:45Z</time>
      </trkpt>
      <trkpt lat="44.08075" lon="6.25857">
        <ele>649.932</ele>
        <time>2022-08-24T13:18:05Z</time>
      </trkpt>
      <trkpt lat="44.0807" lon="6.2588">
        <ele>650.592</ele>
        <time>2022-08-24T13:18:25Z</time>
      </trkpt>
      <trkpt lat="44.08064" lon="6.25896">
        <ele>650.811</ele>
        <time>2022-08-24T13:18:45Z</time>
      </trkpt>
      <trkpt lat="44.0805" lon="6.25924">
        <ele>651.709</ele>
        <time>2022-08-24T13:19:05Z</time>
      </trkpt>
      <trkpt lat="44.08033" lon="6.26013">
        <ele>653.554</ele>
        <time>2022-08-24T13:19:25Z</time>
      </trkpt>
      <trkpt lat="44.08012" lon="6.26075">
        <ele>654.814</ele>
        <time>2022-08-24T13:19:45Z</time>
      </trkpt>
      <trkpt lat="44.08004" lon="6.2611">
        <ele>655.184</ele>
        <time>2022-08-24T13:20:05Z</time>
      </trkpt>
      <trkpt lat="44.07977" lon="6.26168">
        <ele>656.979</ele>
        <time>2022-08-24T13:20:25Z</time>
      </trkpt>
      <trkpt lat="44.07951" lon="6.26226">
        <ele>657.339</ele>
        <time>2022-08-24T13:20:45Z</time>
      </trkpt>
      <trkpt lat="44.07941" lon="6.26253">
        <ele>657.444</ele>
        <time>2022-08-24T13:21:05Z</time>
      </trkpt>
      <trkpt lat="44.07937" lon="6.26269">
        <ele>657.676</ele>
        <time>2022-08-24T13:21:25Z</time>
      </trkpt>
      <trkpt lat="44.07933" lon="6.26311">
        <ele>658.444</ele>
        <time>2022-08-24T13:21:45Z</time>
      </trkpt>
      <trkpt lat="44.0793" lon="6.26435">
        <ele>660.519</ele>
        <time>2022-08-24T13:22:05Z</time>
      </trkpt>
      <trkpt lat="44.07928" lon="6.26559">
        <ele>663.734</ele>
        <time>2022-08-24T13:22:25Z</time>
      </trkpt>
      <trkpt lat="44.07925" lon="6.26683">
        <ele>667.655</ele>
        <time>2022-08-24T13:22:45Z</time>
      </trkpt>
      <trkpt lat="44.07933" lon="6.26696">
        <ele>668.41</ele>
        <time>2022-08-24T13:23:05Z</time>
      </trkpt>
      <trkpt lat="44.07965" lon="6.26716">
        <ele>672.509</ele>
        <time>2022-08-24T13:23:25Z</time>
      </trkpt>
      <trkpt lat="44.07976" lon="6.26726">
        <ele>672.754</ele>
        <time>2022-08-24T13:23:45Z</time>
      </trkpt>
      <trkpt lat="44.07977" lon="6.26731">
        <ele>672.984</ele>
        <time>2022-08-24T13:24:05Z</time>
      </trkpt>
      <trkpt lat="44.07975" lon="6.26742">
        <ele>673.214</ele>
        <time>2022-08-24T13:24:25Z</time>
      </trkpt>
      <trkpt lat="44.07923" lon="6.26798">
        <ele>676.059</ele>
        <time>2022-08-24T13:24:45Z</time>
      </trkpt>
      <trkpt lat="44.07904" lon="6.26824">
        <ele>676.459</ele>
        <time>2022-08-24T13:25:05Z</time>
      </trkpt>
      <trkpt lat="44.07897" lon="6.26839">
        <ele>677.434</ele>
        <time>2022-08-24T13:25:25Z</time>
      </trkpt>
      <trkpt lat="44.07892" lon="6.26856">
        <ele>678.086</ele>
        <time>2022-08-24T13:25:45Z</time>
      </trkpt>
      <trkpt lat="44.07879" lon="6.26931">
        <ele>680.424</ele>
        <time>2022-08-24T13:26:05Z</time>
      </trkpt>
      <trkpt lat="44.07869" lon="6.26962">
        <ele>681.499</ele>
        <time>2022-08-24T13:26:25Z</time>
      </trkpt>
      <trkpt lat="44.07862" lon="6.26974">
        <ele>682.463</ele>
        <time>2022-08-24T13:26:45Z</time>
      </trkpt>
      <trkpt lat="44.07843" lon="6.26994">
        <ele>683.044</ele>
        <time>2022-08-24T13:27:05Z</time>
      </trkpt>
      <trkpt lat="44.07832" lon="6.27001">
        <ele>683.618</ele>
        <time>2022-08-24T13:27:25Z</time>
      </trkpt>
      <trkpt lat="44.0782" lon="6.27005">
        <ele>683.609</ele>
        <time>2022-08-24T13:27:45Z</time>
      </trkpt>
      <trkpt lat="44.07799" lon="6.27009">
        <ele>687.277</ele>
        <time>2022-08-24T13:28:05Z</time>
      </trkpt>
      <trkpt lat="44.07789" lon="6.27013">
        <ele>687.257</ele>
        <time>2022-08-24T13:28:25Z</time>
      </trkpt>
      <trkpt lat="44.07757" lon="6.27047">
        <ele>688.917</ele>
        <time>2022-08-24T13:28:45Z</time>
      </trkpt>
      <trkpt lat="44.07745" lon="6.27053">
        <ele>689.522</ele>
        <time>2022-08-24T13:29:05Z</time>
      </trkpt>
      <trkpt lat="44.07737" lon="6.27052">
        <ele>690.122</ele>
        <time>2022-08-24T13:29:25Z</time>
      </trkpt>
      <trkpt lat="44.07729" lon="6.27047">
        <ele>690.197</ele>
        <time>2022-08-24T13:29:45Z</time>
      </trkpt>
      <trkpt lat="44.07723" lon="6.27039">
        <ele>690.369</ele>
        <time>2022-08-24T13:30:05Z</time>
      </trkpt>
      <trkpt lat="44.07717" lon="6.27017">
        <ele>691.057</ele>
        <time>2022-08-24T13:30:25Z</time>
      </trkpt>
      <trkpt lat="44.07715" lon="6.26974">
        <ele>692.852</ele>
        <time>2022-08-24T13:30:45Z</time>
      </trkpt>
      <trkpt lat="44.07713" lon="6.2696">
        <ele>693.588</ele>
        <time>2022-08-24T13:31:05Z</time>
      </trkpt>
      <trkpt lat="44.07708" lon="6.26953">
        <ele>694.224</ele>
        <time>2022-08-24T13:31:25Z</time>
      </trkpt>
      <trkpt lat="44.07693" lon="6.26942">
        <ele>694.226</ele>
        <time>2022-08-24T13:31:45Z</time>
      </trkpt>
      <trkpt lat="44.0766" lon="6.26896">
        <ele>696.809</ele>
        <time>2022-08-24T13:32:05Z</time>
      </trkpt>
      <trkpt lat="44.07638" lon="6.26886">
        <ele>697.869</ele>
        <time>2022-08-24T13:32:25Z</time>
      </trkpt>
      <trkpt lat="44.0763" lon="6.26886">
        <ele>698.819</ele>
        <time>2022-08-24T13:32:45Z</time>
      </trkpt>
      <trkpt lat="44.07622" lon="6.26891">
        <ele>698.859</ele>
        <time>2022-08-24T13:33:05Z</time>
      </trkpt>
      <trkpt lat="44.0761" lon="6.26905">
        <ele>698.894</ele>
        <time>2022-08-24T13:33:25Z</time>
      </trkpt>
      <trkpt lat="44.07601" lon="6.26926">
        <ele>697.174</ele>
        <time>2022-08-24T13:33:45Z</time>
      </trkpt>
      <trkpt lat="44.07593" lon="6.26936">
        <ele>696.329</ele>
        <time>2022-08-24T13:34:05Z</time>
      </trkpt>
      <trkpt lat="44.07567" lon="6.26949">
        <ele>694.341</ele>
        <time>2022-08-24T13:34:25Z</time>
      </trkpt>
      <trkpt lat="44.07553" lon="6.26966">
        <ele>693.289</ele>
        <time>2022-08-24T13:34:45Z</time>
      </trkpt>
      <trkpt lat="44.0754" lon="6.27047">
        <ele>689.134</ele>
        <time>2022-08-24T13:35:05Z</time>
      </trkpt>
      <trkpt lat="44.07526" lon="6.27085">
        <ele>687.251</ele>
        <time>2022-08-24T13:35:25Z</time>
      </trkpt>
      <trkpt lat="44.07518" lon="6.27094">
        <ele>686.801</ele>
        <time>2022-08-24T13:35:45Z</time>
      </trkpt>
      <trkpt lat="44.07508" lon="6.27098">
        <ele>686.411</ele>
        <time>2022-08-24T13:36:05Z</time>
      </trkpt>
      <trkpt lat="44.07491" lon="6.27095">
        <ele>685.609</ele>
        <time>2022-08-24T13:36:25Z</time>
      </trkpt>
      <trkpt lat="44.07476" lon="6.27091">
        <ele>688.936</ele>
        <time>2022-08-24T13:36:45Z</time>
      </trkpt>
      <trkpt lat="44.07491" lon="6.27095">
        <ele>688.996</ele>
        <time>2022-08-24T13:37:05Z</time>
      </trkpt>
      <trkpt lat="44.07508" lon="6.27098">
        <ele>685.686</ele>
        <time>2022-08-24T13:37:25Z</time>
      </trkpt>
      <trkpt lat="44.07518" lon="6.27094">
        <ele>686.111</ele>
        <time>2022-08-24T13:37:45Z</time>
      </trkpt>
      <trkpt lat="44.07526" lon="6.27085">
        <ele>686.381</ele>
        <time>2022-08-24T13:38:05Z</time>
      </trkpt>
      <trkpt lat="44.0754" lon="6.27047">
        <ele>689.136</ele>
        <time>2022-08-24T13:38:25Z</time>
      </trkpt>
      <trkpt lat="44.07549" lon="6.26983">
        <ele>692.018</ele>
        <time>2022-08-24T13:38:45Z</time>
      </trkpt>
      <trkpt lat="44.07554" lon="6.26982">
        <ele>692.496</ele>
        <time>2022-08-24T13:39:05Z</time>
      </trkpt>
      <trkpt lat="44.07562" lon="6.26969">
        <ele>692.891</ele>
        <time>2022-08-24T13:39:25Z</time>
      </trkpt>
      <trkpt lat="44.07572" lon="6.26959">
        <ele>695.839</ele>
        <time>2022-08-24T13:39:45Z</time>
      </trkpt>
      <trkpt lat="44.07608" lon="6.26948">
        <ele>706.401</ele>
        <time>2022-08-24T13:40:05Z</time>
      </trkpt>
      <trkpt lat="44.07638" lon="6.26918">
        <ele>712.521</ele>
        <time>2022-08-24T13:40:25Z</time>
      </trkpt>
      <trkpt lat="44.07648" lon="6.26921">
        <ele>712.509</ele>
        <time>2022-08-24T13:40:45Z</time>
      </trkpt>
      <trkpt lat="44.07656" lon="6.26932">
        <ele>712.534</ele>
        <time>2022-08-24T13:41:05Z</time>
      </trkpt>
      <trkpt lat="44.07684" lon="6.26999">
        <ele>722.384</ele>
        <time>2022-08-24T13:41:25Z</time>
      </trkpt>
      <trkpt lat="44.07686" lon="6.27052">
        <ele>728.134</ele>
        <time>2022-08-24T13:41:45Z</time>
      </trkpt>
      <trkpt lat="44.07684" lon="6.27086">
        <ele>729.489</ele>
        <time>2022-08-24T13:42:05Z</time>
      </trkpt>
      <trkpt lat="44.07699" lon="6.27125">
        <ele>735.029</ele>
        <time>2022-08-24T13:42:25Z</time>
      </trkpt>
      <trkpt lat="44.07709" lon="6.27142">
        <ele>736.434</ele>
        <time>2022-08-24T13:42:45Z</time>
      </trkpt>
      <trkpt lat="44.07726" lon="6.27157">
        <ele>738.826</ele>
        <time>2022-08-24T13:43:05Z</time>
      </trkpt>
      <trkpt lat="44.07743" lon="6.27168">
        <ele>740.564</ele>
        <time>2022-08-24T13:43:25Z</time>
      </trkpt>
      <trkpt lat="44.07787" lon="6.27205">
        <ele>743.549</ele>
        <time>2022-08-24T13:43:45Z</time>
      </trkpt>
      <trkpt lat="44.07842" lon="6.27237">
        <ele>748.773</ele>
        <time>2022-08-24T13:44:05Z</time>
      </trkpt>
      <trkpt lat="44.07869" lon="6.27224">
        <ele>750.285</ele>
        <time>2022-08-24T13:44:25Z</time>
      </trkpt>
      <trkpt lat="44.07883" lon="6.2721">
        <ele>751.113</ele>
        <time>2022-08-24T13:44:45Z</time>
      </trkpt>
      <trkpt lat="44.07902" lon="6.27204">
        <ele>752.509</ele>
        <time>2022-08-24T13:45:05Z</time>
      </trkpt>
      <trkpt lat="44.07921" lon="6.27201">
        <ele>753.388</ele>
        <time>2022-08-24T13:45:25Z</time>
      </trkpt>
      <trkpt lat="44.07958" lon="6.27177">
        <ele>755.568</ele>
        <time>2022-08-24T13:45:45Z</time>
      </trkpt>
      <trkpt lat="44.07969" lon="6.2718">
        <ele>755.528</ele>
        <time>2022-08-24T13:46:05Z</time>
      </trkpt>
      <trkpt lat="44.07976" lon="6.2719">
        <ele>755.593</ele>
        <time>2022-08-24T13:46:25Z</time>
      </trkpt>
      <trkpt lat="44.07984" lon="6.2719">
        <ele>755.363</ele>
        <time>2022-08-24T13:46:45Z</time>
      </trkpt>
      <trkpt lat="44.07992" lon="6.272">
        <ele>755.018</ele>
        <time>2022-08-24T13:47:05Z</time>
      </trkpt>
      <trkpt lat="44.07992" lon="6.27213">
        <ele>754.94</ele>
        <time>2022-08-24T13:47:25Z</time>
      </trkpt>
      <trkpt lat="44.07995" lon="6.27226">
        <ele>754.978</ele>
        <time>2022-08-24T13:47:45Z</time>
      </trkpt>
      <trkpt lat="44.07991" lon="6.27237">
        <ele>755.213</ele>
        <time>2022-08-24T13:48:05Z</time>
      </trkpt>
      <trkpt lat="44.07972" lon="6.27254">
        <ele>755.629</ele>
        <time>2022-08-24T13:48:25Z</time>
      </trkpt>
      <trkpt lat="44.07968" lon="6.27271">
        <ele>756.3</ele>
        <time>2022-08-24T13:48:45Z</time>
      </trkpt>
      <trkpt lat="44.07972" lon="6.2729">
        <ele>758.32</ele>
        <time>2022-08-24T13:49:05Z</time>
      </trkpt>
      <trkpt lat="44.07976" lon="6.27355">
        <ele>765.009</ele>
        <time>2022-08-24T13:49:25Z</time>
      </trkpt>
      <trkpt lat="44.07971" lon="6.2739">
        <ele>766.323</ele>
        <time>2022-08-24T13:49:45Z</time>
      </trkpt>
      <trkpt lat="44.07976" lon="6.27417">
        <ele>768.223</ele>
        <time>2022-08-24T13:50:05Z</time>
      </trkpt>
      <trkpt lat="44.07972" lon="6.2746">
        <ele>770.033</ele>
        <time>2022-08-24T13:50:25Z</time>
      </trkpt>
      <trkpt lat="44.07974" lon="6.27503">
        <ele>770.488</ele>
        <time>2022-08-24T13:50:45Z</time>
      </trkpt>
      <trkpt lat="44.07972" lon="6.27527">
        <ele>770.498</ele>
        <time>2022-08-24T13:51:05Z</time>
      </trkpt>
      <trkpt lat="44.07977" lon="6.27572">
        <ele>770.063</ele>
        <time>2022-08-24T13:51:25Z</time>
      </trkpt>
      <trkpt lat="44.07976" lon="6.27598">
        <ele>769.815</ele>
        <time>2022-08-24T13:51:45Z</time>
      </trkpt>
      <trkpt lat="44.07969" lon="6.27617">
        <ele>769.933</ele>
        <time>2022-08-24T13:52:05Z</time>
      </trkpt>
      <trkpt lat="44.0796" lon="6.27632">
        <ele>770.768</ele>
        <time>2022-08-24T13:52:25Z</time>
      </trkpt>
      <trkpt lat="44.07952" lon="6.27666">
        <ele>772.733</ele>
        <time>2022-08-24T13:52:45Z</time>
      </trkpt>
      <trkpt lat="44.07953" lon="6.27685">
        <ele>775.323</ele>
        <time>2022-08-24T13:53:05Z</time>
      </trkpt>
      <trkpt lat="44.07972" lon="6.27764">
        <ele>788.715</ele>
        <time>2022-08-24T13:53:25Z</time>
      </trkpt>
      <trkpt lat="44.07982" lon="6.27826">
        <ele>804.309</ele>
        <time>2022-08-24T13:53:45Z</time>
      </trkpt>
      <trkpt lat="44.07981" lon="6.27848">
        <ele>806.864</ele>
        <time>2022-08-24T13:54:05Z</time>
      </trkpt>
      <trkpt lat="44.08004" lon="6.2793">
        <ele>827.144</ele>
        <time>2022-08-24T13:54:25Z</time>
      </trkpt>
      <trkpt lat="44.08022" lon="6.27956">
        <ele>831.994</ele>
        <time>2022-08-24T13:54:45Z</time>
      </trkpt>
      <trkpt lat="44.08042" lon="6.27963">
        <ele>839.589</ele>
        <time>2022-08-24T13:55:05Z</time>
      </trkpt>
      <trkpt lat="44.0809" lon="6.2799">
        <ele>852.949</ele>
        <time>2022-08-24T13:55:25Z</time>
      </trkpt>
      <trkpt lat="44.08113" lon="6.28035">
        <ele>862.624</ele>
        <time>2022-08-24T13:55:45Z</time>
      </trkpt>
      <trkpt lat="44.08127" lon="6.28076">
        <ele>867.736</ele>
        <time>2022-08-24T13:56:05Z</time>
      </trkpt>
      <trkpt lat="44.08127" lon="6.28105">
        <ele>869.094</ele>
        <time>2022-08-24T13:56:25Z</time>
      </trkpt>
      <trkpt lat="44.08108" lon="6.28129">
        <ele>871.369</ele>
        <time>2022-08-24T13:56:45Z</time>
      </trkpt>
      <trkpt lat="44.08099" lon="6.28135">
        <ele>873.235</ele>
        <time>2022-08-24T13:57:05Z</time>
      </trkpt>
      <trkpt lat="44.08131" lon="6.28176">
        <ele>874.086</ele>
        <time>2022-08-24T13:57:25Z</time>
      </trkpt>
      <trkpt lat="44.08194" lon="6.28229">
        <ele>869.614</ele>
        <time>2022-08-24T13:57:45Z</time>
      </trkpt>
      <trkpt lat="44.08196" lon="6.28229">
        <ele>869.609</ele>
        <time>2022-08-24T13:58:05Z</time>
      </trkpt>
      <trkpt lat="44.08195" lon="6.2823">
        <ele>869.614</ele>
        <time>2022-08-24T13:58:25Z</time>
      </trkpt>
      <trkpt lat="44.08131" lon="6.28176">
        <ele>874.094</ele>
        <time>2022-08-24T13:58:45Z</time>
      </trkpt>
      <trkpt lat="44.08099" lon="6.28135">
        <ele>874.014</ele>
        <time>2022-08-24T13:59:05Z</time>
      </trkpt>
      <trkpt lat="44.08081" lon="6.28147">
        <ele>875.139</ele>
        <time>2022-08-24T13:59:25Z</time>
      </trkpt>
      <trkpt lat="44.08083" lon="6.28162">
        <ele>877.189</ele>
        <time>2022-08-24T13:59:45Z</time>
      </trkpt>
      <trkpt lat="44.08066" lon="6.28183">
        <ele>879.224</ele>
        <time>2022-08-24T14:00:05Z</time>
      </trkpt>
      <trkpt lat="44.08032" lon="6.28204">
        <ele>887.636</ele>
        <time>2022-08-24T14:00:25Z</time>
      </trkpt>
      <trkpt lat="44.08044" lon="6.28221">
        <ele>888.634</ele>
        <time>2022-08-24T14:00:45Z</time>
      </trkpt>
      <trkpt lat="44.08031" lon="6.28226">
        <ele>891.869</ele>
        <time>2022-08-24T14:01:05Z</time>
      </trkpt>
      <trkpt lat="44.08008" lon="6.28227">
        <ele>897.174</ele>
        <time>2022-08-24T14:01:25Z</time>
      </trkpt>
      <trkpt lat="44.08006" lon="6.2824">
        <ele>901.556</ele>
        <time>2022-08-24T14:01:45Z</time>
      </trkpt>
      <trkpt lat="44.08024" lon="6.28263">
        <ele>907.121</ele>
        <time>2022-08-24T14:02:05Z</time>
      </trkpt>
      <trkpt lat="44.08001" lon="6.28273">
        <ele>914.009</ele>
        <time>2022-08-24T14:02:25Z</time>
      </trkpt>
      <trkpt lat="44.08001" lon="6.28282">
        <ele>916.598</ele>
        <time>2022-08-24T14:02:45Z</time>
      </trkpt>
      <trkpt lat="44.07984" lon="6.28295">
        <ele>916.518</ele>
        <time>2022-08-24T14:03:05Z</time>
      </trkpt>
      <trkpt lat="44.08004" lon="6.283">
        <ele>925.888</ele>
        <time>2022-08-24T14:03:25Z</time>
      </trkpt>
      <trkpt lat="44.07977" lon="6.28342">
        <ele>931.863</ele>
        <time>2022-08-24T14:03:45Z</time>
      </trkpt>
      <trkpt lat="44.07969" lon="6.28365">
        <ele>932.283</ele>
        <time>2022-08-24T14:04:05Z</time>
      </trkpt>
      <trkpt lat="44.07965" lon="6.28426">
        <ele>934.728</ele>
        <time>2022-08-24T14:04:25Z</time>
      </trkpt>
      <trkpt lat="44.07957" lon="6.28467">
        <ele>936.58</ele>
        <time>2022-08-24T14:04:45Z</time>
      </trkpt>
      <trkpt lat="44.07939" lon="6.28486">
        <ele>936.658</ele>
        <time>2022-08-24T14:05:05Z</time>
      </trkpt>
      <trkpt lat="44.07907" lon="6.28507">
        <ele>936.383</ele>
        <time>2022-08-24T14:05:25Z</time>
      </trkpt>
      <trkpt lat="44.07878" lon="6.28517">
        <ele>935.783</ele>
        <time>2022-08-24T14:05:45Z</time>
      </trkpt>
      <trkpt lat="44.07854" lon="6.28537">
        <ele>934.725</ele>
        <time>2022-08-24T14:06:05Z</time>
      </trkpt>
      <trkpt lat="44.07826" lon="6.28546">
        <ele>934.717</ele>
        <time>2022-08-24T14:06:25Z</time>
      </trkpt>
      <trkpt lat="44.07804" lon="6.28606">
        <ele>936.109</ele>
        <time>2022-08-24T14:06:45Z</time>
      </trkpt>
      <trkpt lat="44.07783" lon="6.28631">
        <ele>936.689</ele>
        <time>2022-08-24T14:07:05Z</time>
      </trkpt>
      <trkpt lat="44.07769" lon="6.28657">
        <ele>937.259</ele>
        <time>2022-08-24T14:07:25Z</time>
      </trkpt>
      <trkpt lat="44.07763" lon="6.28687">
        <ele>938.989</ele>
        <time>2022-08-24T14:07:45Z</time>
      </trkpt>
      <trkpt lat="44.07755" lon="6.28701">
        <ele>940.724</ele>
        <time>2022-08-24T14:08:05Z</time>
      </trkpt>
      <trkpt lat="44.07738" lon="6.28708">
        <ele>943.674</ele>
        <time>2022-08-24T14:08:25Z</time>
      </trkpt>
      <trkpt lat="44.0771" lon="6.28693">
        <ele>950.379</ele>
        <time>2022-08-24T14:08:45Z</time>
      </trkpt>
      <trkpt lat="44.07679" lon="6.28697">
        <ele>953.931</ele>
        <time>2022-08-24T14:09:05Z</time>
      </trkpt>
      <trkpt lat="44.07658" lon="6.28689">
        <ele>956.419</ele>
        <time>2022-08-24T14:09:25Z</time>
      </trkpt>
      <trkpt lat="44.07646" lon="6.28672">
        <ele>960.054</ele>
        <time>2022-08-24T14:09:45Z</time>
      </trkpt>
      <trkpt lat="44.07624" lon="6.28679">
        <ele>962.373</ele>
        <time>2022-08-24T14:10:05Z</time>
      </trkpt>
      <trkpt lat="44.07591" lon="6.28692">
        <ele>965.685</ele>
        <time>2022-08-24T14:10:25Z</time>
      </trkpt>
      <trkpt lat="44.07511" lon="6.28742">
        <ele>969.613</ele>
        <time>2022-08-24T14:10:45Z</time>
      </trkpt>
      <trkpt lat="44.07477" lon="6.28819">
        <ele>965.809</ele>
        <time>2022-08-24T14:11:05Z</time>
      </trkpt>
      <trkpt lat="44.0746" lon="6.28834">
        <ele>965.678</ele>
        <time>2022-08-24T14:11:25Z</time>
      </trkpt>
      <trkpt lat="44.07437" lon="6.28844">
        <ele>966.128</ele>
        <time>2022-08-24T14:11:45Z</time>
      </trkpt>
      <trkpt lat="44.07392" lon="6.2883">
        <ele>970.358</ele>
        <time>2022-08-24T14:12:05Z</time>
      </trkpt>
      <trkpt lat="44.07348" lon="6.28848">
        <ele>971.313</ele>
        <time>2022-08-24T14:12:25Z</time>
      </trkpt>
      <trkpt lat="44.07278" lon="6.28866">
        <ele>970.813</ele>
        <time>2022-08-24T14:12:45Z</time>
      </trkpt>
      <trkpt lat="44.0724" lon="6.289">
        <ele>971.298</ele>
        <time>2022-08-24T14:13:05Z</time>
      </trkpt>
      <trkpt lat="44.07201" lon="6.28915">
        <ele>973.47</ele>
        <time>2022-08-24T14:13:25Z</time>
      </trkpt>
      <trkpt lat="44.07161" lon="6.28893">
        <ele>975.978</ele>
        <time>2022-08-24T14:13:45Z</time>
      </trkpt>
      <trkpt lat="44.07144" lon="6.28896">
        <ele>976.093</ele>
        <time>2022-08-24T14:14:05Z</time>
      </trkpt>
      <trkpt lat="44.07112" lon="6.28943">
        <ele>974.151</ele>
        <time>2022-08-24T14:14:25Z</time>
      </trkpt>
      <trkpt lat="44.07093" lon="6.28973">
        <ele>970.701</ele>
        <time>2022-08-24T14:14:45Z</time>
      </trkpt>
      <trkpt lat="44.07084" lon="6.28998">
        <ele>970.411</ele>
        <time>2022-08-24T14:15:05Z</time>
      </trkpt>
      <trkpt lat="44.07063" lon="6.29018">
        <ele>968.509</ele>
        <time>2022-08-24T14:15:25Z</time>
      </trkpt>
      <trkpt lat="44.07054" lon="6.29033">
        <ele>966.676</ele>
        <time>2022-08-24T14:15:45Z</time>
      </trkpt>
      <trkpt lat="44.07051" lon="6.29049">
        <ele>966.266</ele>
        <time>2022-08-24T14:16:05Z</time>
      </trkpt>
      <trkpt lat="44.07058" lon="6.29089">
        <ele>965.986</ele>
        <time>2022-08-24T14:16:25Z</time>
      </trkpt>
      <trkpt lat="44.07051" lon="6.29106">
        <ele>965.181</ele>
        <time>2022-08-24T14:16:45Z</time>
      </trkpt>
      <trkpt lat="44.07027" lon="6.29122">
        <ele>963.181</ele>
        <time>2022-08-24T14:17:05Z</time>
      </trkpt>
      <trkpt lat="44.0702" lon="6.29139">
        <ele>961.196</ele>
        <time>2022-08-24T14:17:25Z</time>
      </trkpt>
      <trkpt lat="44.06977" lon="6.2917">
        <ele>956.998</ele>
        <time>2022-08-24T14:17:45Z</time>
      </trkpt>
      <trkpt lat="44.0696" lon="6.29175">
        <ele>956.696</ele>
        <time>2022-08-24T14:18:05Z</time>
      </trkpt>
      <trkpt lat="44.06941" lon="6.29157">
        <ele>955.551</ele>
        <time>2022-08-24T14:18:25Z</time>
      </trkpt>
      <trkpt lat="44.06937" lon="6.29162">
        <ele>954.659</ele>
        <time>2022-08-24T14:18:45Z</time>
      </trkpt>
      <trkpt lat="44.06929" lon="6.29183">
        <ele>954.403</ele>
        <time>2022-08-24T14:19:05Z</time>
      </trkpt>
      <trkpt lat="44.06919" lon="6.29199">
        <ele>951.723</ele>
        <time>2022-08-24T14:19:25Z</time>
      </trkpt>
      <trkpt lat="44.06873" lon="6.29219">
        <ele>947.409</ele>
        <time>2022-08-24T14:19:45Z</time>
      </trkpt>
      <trkpt lat="44.06828" lon="6.29251">
        <ele>943.176</ele>
        <time>2022-08-24T14:20:05Z</time>
      </trkpt>
      <trkpt lat="44.06806" lon="6.29252">
        <ele>942.226</ele>
        <time>2022-08-24T14:20:25Z</time>
      </trkpt>
      <trkpt lat="44.06749" lon="6.29265">
        <ele>935.966</ele>
        <time>2022-08-24T14:20:45Z</time>
      </trkpt>
      <trkpt lat="44.0672" lon="6.29293">
        <ele>933.041</ele>
        <time>2022-08-24T14:21:05Z</time>
      </trkpt>
      <trkpt lat="44.06699" lon="6.29324">
        <ele>929.521</ele>
        <time>2022-08-24T14:21:25Z</time>
      </trkpt>
      <trkpt lat="44.06705" lon="6.29362">
        <ele>928.186</ele>
        <time>2022-08-24T14:21:45Z</time>
      </trkpt>
      <trkpt lat="44.06699" lon="6.29374">
        <ele>927.898</ele>
        <time>2022-08-24T14:22:05Z</time>
      </trkpt>
      <trkpt lat="44.06661" lon="6.2941">
        <ele>922.096</ele>
        <time>2022-08-24T14:22:25Z</time>
      </trkpt>
      <trkpt lat="44.06631" lon="6.29478">
        <ele>917.121</ele>
        <time>2022-08-24T14:22:45Z</time>
      </trkpt>
      <trkpt lat="44.06628" lon="6.29506">
        <ele>916.978</ele>
        <time>2022-08-24T14:23:05Z</time>
      </trkpt>
      <trkpt lat="44.06617" lon="6.29539">
        <ele>916.533</ele>
        <time>2022-08-24T14:23:25Z</time>
      </trkpt>
      <trkpt lat="44.06575" lon="6.29632">
        <ele>916.626</ele>
        <time>2022-08-24T14:23:45Z</time>
      </trkpt>
      <trkpt lat="44.06537" lon="6.29737">
        <ele>923.509</ele>
        <time>2022-08-24T14:24:05Z</time>
      </trkpt>
      <trkpt lat="44.06538" lon="6.29756">
        <ele>924.388</ele>
        <time>2022-08-24T14:24:25Z</time>
      </trkpt>
      <trkpt lat="44.0653" lon="6.29768">
        <ele>925.178</ele>
        <time>2022-08-24T14:24:45Z</time>
      </trkpt>
      <trkpt lat="44.0652" lon="6.29768">
        <ele>926.148</ele>
        <time>2022-08-24T14:25:05Z</time>
      </trkpt>
      <trkpt lat="44.06509" lon="6.29801">
        <ele>928.853</ele>
        <time>2022-08-24T14:25:25Z</time>
      </trkpt>
      <trkpt lat="44.06501" lon="6.29843">
        <ele>932.833</ele>
        <time>2022-08-24T14:25:45Z</time>
      </trkpt>
      <trkpt lat="44.06487" lon="6.29868">
        <ele>933.028</ele>
        <time>2022-08-24T14:26:05Z</time>
      </trkpt>
      <trkpt lat="44.06484" lon="6.29898">
        <ele>933.58</ele>
        <time>2022-08-24T14:26:25Z</time>
      </trkpt>
      <trkpt lat="44.06493" lon="6.29941">
        <ele>935.948</ele>
        <time>2022-08-24T14:26:45Z</time>
      </trkpt>
      <trkpt lat="44.06482" lon="6.29954">
        <ele>935.863</ele>
        <time>2022-08-24T14:27:05Z</time>
      </trkpt>
      <trkpt lat="44.06477" lon="6.29976">
        <ele>935.271</ele>
        <time>2022-08-24T14:27:25Z</time>
      </trkpt>
      <trkpt lat="44.06496" lon="6.30069">
        <ele>939.841</ele>
        <time>2022-08-24T14:27:45Z</time>
      </trkpt>
      <trkpt lat="44.06493" lon="6.30121">
        <ele>941.915</ele>
        <time>2022-08-24T14:28:05Z</time>
      </trkpt>
      <trkpt lat="44.06479" lon="6.30177">
        <ele>942.209</ele>
        <time>2022-08-24T14:28:25Z</time>
      </trkpt>
      <trkpt lat="44.06465" lon="6.30223">
        <ele>945.598</ele>
        <time>2022-08-24T14:28:45Z</time>
      </trkpt>
      <trkpt lat="44.06447" lon="6.30255">
        <ele>947.858</ele>
        <time>2022-08-24T14:29:05Z</time>
      </trkpt>
      <trkpt lat="44.06447" lon="6.30254">
        <ele>947.838</ele>
        <time>2022-08-24T14:29:25Z</time>
      </trkpt>
      <trkpt lat="44.06457" lon="6.30283">
        <ele>947.843</ele>
        <time>2022-08-24T14:29:45Z</time>
      </trkpt>
      <trkpt lat="44.06478" lon="6.30289">
        <ele>953.573</ele>
        <time>2022-08-24T14:30:05Z</time>
      </trkpt>
      <trkpt lat="44.06492" lon="6.30301">
        <ele>956.198</ele>
        <time>2022-08-24T14:30:25Z</time>
      </trkpt>
      <trkpt lat="44.06516" lon="6.30305">
        <ele>958.28</ele>
        <time>2022-08-24T14:30:45Z</time>
      </trkpt>
      <trkpt lat="44.06547" lon="6.30282">
        <ele>962.918</ele>
        <time>2022-08-24T14:31:05Z</time>
      </trkpt>
      <trkpt lat="44.06564" lon="6.30267">
        <ele>963.323</ele>
        <time>2022-08-24T14:31:25Z</time>
      </trkpt>
      <trkpt lat="44.06581" lon="6.30276">
        <ele>962.685</ele>
        <time>2022-08-24T14:31:45Z</time>
      </trkpt>
      <trkpt lat="44.06589" lon="6.30314">
        <ele>959.389</ele>
        <time>2022-08-24T14:32:05Z</time>
      </trkpt>
      <trkpt lat="44.06587" lon="6.30368">
        <ele>958.517</ele>
        <time>2022-08-24T14:32:25Z</time>
      </trkpt>
      <trkpt lat="44.06592" lon="6.3043">
        <ele>958.909</ele>
        <time>2022-08-24T14:32:45Z</time>
      </trkpt>
      <trkpt lat="44.06589" lon="6.30444">
        <ele>959.099</ele>
        <time>2022-08-24T14:33:05Z</time>
      </trkpt>
      <trkpt lat="44.06591" lon="6.30457">
        <ele>959.119</ele>
        <time>2022-08-24T14:33:25Z</time>
      </trkpt>
      <trkpt lat="44.06601" lon="6.30499">
        <ele>961.219</ele>
        <time>2022-08-24T14:33:45Z</time>
      </trkpt>
      <trkpt lat="44.06602" lon="6.30515">
        <ele>961.614</ele>
        <time>2022-08-24T14:34:05Z</time>
      </trkpt>
      <trkpt lat="44.066" lon="6.30529">
        <ele>962.024</ele>
        <time>2022-08-24T14:34:25Z</time>
      </trkpt>
      <trkpt lat="44.0659" lon="6.30555">
        <ele>963.999</ele>
        <time>2022-08-24T14:34:45Z</time>
      </trkpt>
      <trkpt lat="44.06575" lon="6.30583">
        <ele>966.391</ele>
        <time>2022-08-24T14:35:05Z</time>
      </trkpt>
      <trkpt lat="44.06566" lon="6.30604">
        <ele>968.999</ele>
        <time>2022-08-24T14:35:25Z</time>
      </trkpt>
      <trkpt lat="44.06555" lon="6.30616">
        <ele>971.084</ele>
        <time>2022-08-24T14:35:45Z</time>
      </trkpt>
      <trkpt lat="44.06525" lon="6.30625">
        <ele>974.978</ele>
        <time>2022-08-24T14:36:05Z</time>
      </trkpt>
      <trkpt lat="44.06519" lon="6.30634">
        <ele>974.933</ele>
        <time>2022-08-24T14:36:25Z</time>
      </trkpt>
      <trkpt lat="44.06521" lon="6.30644">
        <ele>974.926</ele>
        <time>2022-08-24T14:36:45Z</time>
      </trkpt>
      <trkpt lat="44.06527" lon="6.3065">
        <ele>974.909</ele>
        <time>2022-08-24T14:37:05Z</time>
      </trkpt>
      <trkpt lat="44.06541" lon="6.30653">
        <ele>976.728</ele>
        <time>2022-08-24T14:37:25Z</time>
      </trkpt>
      <trkpt lat="44.06584" lon="6.30671">
        <ele>981.598</ele>
        <time>2022-08-24T14:37:45Z</time>
      </trkpt>
      <trkpt lat="44.06592" lon="6.30679">
        <ele>981.968</ele>
        <time>2022-08-24T14:38:05Z</time>
      </trkpt>
      <trkpt lat="44.06592" lon="6.30689">
        <ele>982.393</ele>
        <time>2022-08-24T14:38:25Z</time>
      </trkpt>
      <trkpt lat="44.06585" lon="6.30695">
        <ele>982.333</ele>
        <time>2022-08-24T14:38:45Z</time>
      </trkpt>
      <trkpt lat="44.06563" lon="6.30688">
        <ele>983.848</ele>
        <time>2022-08-24T14:39:05Z</time>
      </trkpt>
      <trkpt lat="44.06535" lon="6.30689">
        <ele>988.66</ele>
        <time>2022-08-24T14:39:25Z</time>
      </trkpt>
      <trkpt lat="44.06518" lon="6.30697">
        <ele>990.438</ele>
        <time>2022-08-24T14:39:45Z</time>
      </trkpt>
      <trkpt lat="44.065" lon="6.30736">
        <ele>994.153</ele>
        <time>2022-08-24T14:40:05Z</time>
      </trkpt>
      <trkpt lat="44.06494" lon="6.30768">
        <ele>995.517</ele>
        <time>2022-08-24T14:40:25Z</time>
      </trkpt>
      <trkpt lat="44.06488" lon="6.30779">
        <ele>998.187</ele>
        <time>2022-08-24T14:40:45Z</time>
      </trkpt>
      <trkpt lat="44.06479" lon="6.30783">
        <ele>999.215</ele>
        <time>2022-08-24T14:41:05Z</time>
      </trkpt>
      <trkpt lat="44.06461" lon="6.30785">
        <ele>1000.209</ele>
        <time>2022-08-24T14:41:25Z</time>
      </trkpt>
      <trkpt lat="44.06442" lon="6.30797">
        <ele>1001.822</ele>
        <time>2022-08-24T14:41:45Z</time>
      </trkpt>
      <trkpt lat="44.06431" lon="6.30813">
        <ele>1003.682</ele>
        <time>2022-08-24T14:42:05Z</time>
      </trkpt>
      <trkpt lat="44.06424" lon="6.30841">
        <ele>1006.212</ele>
        <time>2022-08-24T14:42:25Z</time>
      </trkpt>
      <trkpt lat="44.06409" lon="6.30873">
        <ele>1009.987</ele>
        <time>2022-08-24T14:42:45Z</time>
      </trkpt>
      <trkpt lat="44.06411" lon="6.30888">
        <ele>1010.487</ele>
        <time>2022-08-24T14:43:05Z</time>
      </trkpt>
      <trkpt lat="44.06419" lon="6.30899">
        <ele>1010.942</ele>
        <time>2022-08-24T14:43:25Z</time>
      </trkpt>
      <trkpt lat="44.06435" lon="6.30909">
        <ele>1012.964</ele>
        <time>2022-08-24T14:43:45Z</time>
      </trkpt>
      <trkpt lat="44.06448" lon="6.30922">
        <ele>1015.332</ele>
        <time>2022-08-24T14:44:05Z</time>
      </trkpt>
      <trkpt lat="44.06462" lon="6.30949">
        <ele>1017.667</ele>
        <time>2022-08-24T14:44:25Z</time>
      </trkpt>
      <trkpt lat="44.06472" lon="6.30956">
        <ele>1019.119</ele>
        <time>2022-08-24T14:44:45Z</time>
      </trkpt>
      <trkpt lat="44.06498" lon="6.30961">
        <ele>1021.809</ele>
        <time>2022-08-24T14:45:05Z</time>
      </trkpt>
      <trkpt lat="44.06522" lon="6.30957">
        <ele>1024.019</ele>
        <time>2022-08-24T14:45:25Z</time>
      </trkpt>
      <trkpt lat="44.06534" lon="6.30952">
        <ele>1025.109</ele>
        <time>2022-08-24T14:45:45Z</time>
      </trkpt>
      <trkpt lat="44.06549" lon="6.30954">
        <ele>1025.842</ele>
        <time>2022-08-24T14:46:05Z</time>
      </trkpt>
      <trkpt lat="44.06571" lon="6.30963">
        <ele>1025.942</ele>
        <time>2022-08-24T14:46:25Z</time>
      </trkpt>
      <trkpt lat="44.06622" lon="6.31012">
        <ele>1024.222</ele>
        <time>2022-08-24T14:46:45Z</time>
      </trkpt>
      <trkpt lat="44.06674" lon="6.31061">
        <ele>1025.697</ele>
        <time>2022-08-24T14:47:05Z</time>
      </trkpt>
      <trkpt lat="44.06686" lon="6.31069">
        <ele>1025.877</ele>
        <time>2022-08-24T14:47:25Z</time>
      </trkpt>
      <trkpt lat="44.06697" lon="6.31091">
        <ele>1025.842</ele>
        <time>2022-08-24T14:47:45Z</time>
      </trkpt>
      <trkpt lat="44.06719" lon="6.31118">
        <ele>1025.224</ele>
        <time>2022-08-24T14:48:05Z</time>
      </trkpt>
      <trkpt lat="44.06734" lon="6.31156">
        <ele>1024.162</ele>
        <time>2022-08-24T14:48:25Z</time>
      </trkpt>
      <trkpt lat="44.06743" lon="6.31171">
        <ele>1024.167</ele>
        <time>2022-08-24T14:48:45Z</time>
      </trkpt>
      <trkpt lat="44.06753" lon="6.31178">
        <ele>1024.115</ele>
        <time>2022-08-24T14:49:05Z</time>
      </trkpt>
      <trkpt lat="44.06785" lon="6.31175">
        <ele>1025.165</ele>
        <time>2022-08-24T14:49:25Z</time>
      </trkpt>
      <trkpt lat="44.06799" lon="6.31171">
        <ele>1025.311</ele>
        <time>2022-08-24T14:49:45Z</time>
      </trkpt>
      <trkpt lat="44.06806" lon="6.31159">
        <ele>1025.509</ele>
        <time>2022-08-24T14:50:05Z</time>
      </trkpt>
      <trkpt lat="44.0681" lon="6.31112">
        <ele>1027.612</ele>
        <time>2022-08-24T14:50:25Z</time>
      </trkpt>
      <trkpt lat="44.06814" lon="6.31102">
        <ele>1027.662</ele>
        <time>2022-08-24T14:50:45Z</time>
      </trkpt>
      <trkpt lat="44.06828" lon="6.31105">
        <ele>1027.672</ele>
        <time>2022-08-24T14:51:05Z</time>
      </trkpt>
      <trkpt lat="44.06844" lon="6.31136">
        <ele>1030.357</ele>
        <time>2022-08-24T14:51:25Z</time>
      </trkpt>
      <trkpt lat="44.06853" lon="6.31169">
        <ele>1031.677</ele>
        <time>2022-08-24T14:51:45Z</time>
      </trkpt>
      <trkpt lat="44.06881" lon="6.31194">
        <ele>1034.332</ele>
        <time>2022-08-24T14:52:05Z</time>
      </trkpt>
      <trkpt lat="44.06916" lon="6.31204">
        <ele>1038.254</ele>
        <time>2022-08-24T14:52:25Z</time>
      </trkpt>
      <trkpt lat="44.06958" lon="6.31203">
        <ele>1043.422</ele>
        <time>2022-08-24T14:52:45Z</time>
      </trkpt>
      <trkpt lat="44.06979" lon="6.31215">
        <ele>1043.427</ele>
        <time>2022-08-24T14:53:05Z</time>
      </trkpt>
      <trkpt lat="44.06982" lon="6.31232">
        <ele>1044.468</ele>
        <time>2022-08-24T14:53:25Z</time>
      </trkpt>
      <trkpt lat="44.0697" lon="6.31255">
        <ele>1046.242</ele>
        <time>2022-08-24T14:53:45Z</time>
      </trkpt>
      <trkpt lat="44.06968" lon="6.31274">
        <ele>1047.326</ele>
        <time>2022-08-24T14:54:05Z</time>
      </trkpt>
      <trkpt lat="44.06971" lon="6.31292">
        <ele>1048.509</ele>
        <time>2022-08-24T14:54:25Z</time>
      </trkpt>
      <trkpt lat="44.06989" lon="6.31309">
        <ele>1050.177</ele>
        <time>2022-08-24T14:54:45Z</time>
      </trkpt>
      <trkpt lat="44.07006" lon="6.31341">
        <ele>1054.187</ele>
        <time>2022-08-24T14:55:05Z</time>
      </trkpt>
      <trkpt lat="44.07025" lon="6.31363">
        <ele>1055.097</ele>
        <time>2022-08-24T14:55:25Z</time>
      </trkpt>
      <trkpt lat="44.0704" lon="6.31395">
        <ele>1057.192</ele>
        <time>2022-08-24T14:55:45Z</time>
      </trkpt>
      <trkpt lat="44.07044" lon="6.31434">
        <ele>1059.942</ele>
        <time>2022-08-24T14:56:05Z</time>
      </trkpt>
      <trkpt lat="44.07084" lon="6.31475">
        <ele>1065.667</ele>
        <time>2022-08-24T14:56:25Z</time>
      </trkpt>
      <trkpt lat="44.07112" lon="6.31473">
        <ele>1066.419</ele>
        <time>2022-08-24T14:56:45Z</time>
      </trkpt>
      <trkpt lat="44.07139" lon="6.31478">
        <ele>1069.827</ele>
        <time>2022-08-24T14:57:05Z</time>
      </trkpt>
      <trkpt lat="44.07158" lon="6.31463">
        <ele>1070.732</ele>
        <time>2022-08-24T14:57:25Z</time>
      </trkpt>
      <trkpt lat="44.07164" lon="6.31464">
        <ele>1071.936</ele>
        <time>2022-08-24T14:57:45Z</time>
      </trkpt>
      <trkpt lat="44.07166" lon="6.31465">
        <ele>1072.217</ele>
        <time>2022-08-24T14:58:05Z</time>
      </trkpt>
      <trkpt lat="44.07168" lon="6.31479">
        <ele>1072.218</ele>
        <time>2022-08-24T14:58:25Z</time>
      </trkpt>
      <trkpt lat="44.07126" lon="6.31508">
        <ele>1075.509</ele>
        <time>2022-08-24T14:58:45Z</time>
      </trkpt>
      <trkpt lat="44.07085" lon="6.31537">
        <ele>1079.184</ele>
        <time>2022-08-24T14:59:05Z</time>
      </trkpt>
      <trkpt lat="44.07016" lon="6.3153">
        <ele>1085.524</ele>
        <time>2022-08-24T14:59:25Z</time>
      </trkpt>
      <trkpt lat="44.06955" lon="6.31565">
        <ele>1091.264</ele>
        <time>2022-08-24T14:59:45Z</time>
      </trkpt>
      <trkpt lat="44.06924" lon="6.3157">
        <ele>1092.769</ele>
        <time>2022-08-24T15:00:05Z</time>
      </trkpt>
      <trkpt lat="44.06859" lon="6.31543">
        <ele>1097.939</ele>
        <time>2022-08-24T15:00:25Z</time>
      </trkpt>
      <trkpt lat="44.06859" lon="6.31586">
        <ele>1102.774</ele>
        <time>2022-08-24T15:00:45Z</time>
      </trkpt>
      <trkpt lat="44.06851" lon="6.31606">
        <ele>1102.766</ele>
        <time>2022-08-24T15:01:05Z</time>
      </trkpt>
      <trkpt lat="44.0684" lon="6.3162">
        <ele>1104.074</ele>
        <time>2022-08-24T15:01:25Z</time>
      </trkpt>
      <trkpt lat="44.06811" lon="6.31621">
        <ele>1107.999</ele>
        <time>2022-08-24T15:01:45Z</time>
      </trkpt>
      <trkpt lat="44.06796" lon="6.31627">
        <ele>1108.648</ele>
        <time>2022-08-24T15:02:05Z</time>
      </trkpt>
      <trkpt lat="44.06764" lon="6.31673">
        <ele>1113.661</ele>
        <time>2022-08-24T15:02:25Z</time>
      </trkpt>
      <trkpt lat="44.06732" lon="6.31718">
        <ele>1120.117</ele>
        <time>2022-08-24T15:02:45Z</time>
      </trkpt>
      <trkpt lat="44.06718" lon="6.31764">
        <ele>1124.009</ele>
        <time>2022-08-24T15:03:05Z</time>
      </trkpt>
      <trkpt lat="44.0671" lon="6.31804">
        <ele>1130.855</ele>
        <time>2022-08-24T15:03:25Z</time>
      </trkpt>
      <trkpt lat="44.06694" lon="6.31824">
        <ele>1130.875</ele>
        <time>2022-08-24T15:03:45Z</time>
      </trkpt>
      <trkpt lat="44.06695" lon="6.31839">
        <ele>1131.385</ele>
        <time>2022-08-24T15:04:05Z</time>
      </trkpt>
      <trkpt lat="44.06702" lon="6.31851">
        <ele>1131.81</ele>
        <time>2022-08-24T15:04:25Z</time>
      </trkpt>
      <trkpt lat="44.0672" lon="6.31848">
        <ele>1133.37</ele>
        <time>2022-08-24T15:04:45Z</time>
      </trkpt>
      <trkpt lat="44.06741" lon="6.31836">
        <ele>1134.775</ele>
        <time>2022-08-24T15:05:05Z</time>
      </trkpt>
      <trkpt lat="44.06757" lon="6.31814">
        <ele>1136.037</ele>
        <time>2022-08-24T15:05:25Z</time>
      </trkpt>
      <trkpt lat="44.06777" lon="6.31798">
        <ele>1137.835</ele>
        <time>2022-08-24T15:05:45Z</time>
      </trkpt>
      <trkpt lat="44.0679" lon="6.31796">
        <ele>1140.55</ele>
        <time>2022-08-24T15:06:05Z</time>
      </trkpt>
      <trkpt lat="44.0681" lon="6.31804">
        <ele>1142.517</ele>
        <time>2022-08-24T15:06:25Z</time>
      </trkpt>
      <trkpt lat="44.06835" lon="6.31823">
        <ele>1147.987</ele>
        <time>2022-08-24T15:06:45Z</time>
      </trkpt>
      <trkpt lat="44.06857" lon="6.31832">
        <ele>1148.715</ele>
        <time>2022-08-24T15:07:05Z</time>
      </trkpt>
      <trkpt lat="44.06819" lon="6.31855">
        <ele>1153.609</ele>
        <time>2022-08-24T15:07:25Z</time>
      </trkpt>
      <trkpt lat="44.06803" lon="6.31879">
        <ele>1155.432</ele>
        <time>2022-08-24T15:07:45Z</time>
      </trkpt>
      <trkpt lat="44.06766" lon="6.31947">
        <ele>1164.932</ele>
        <time>2022-08-24T15:08:05Z</time>
      </trkpt>
      <trkpt lat="44.06762" lon="6.31966">
        <ele>1165.972</ele>
        <time>2022-08-24T15:08:25Z</time>
      </trkpt>
      <trkpt lat="44.06785" lon="6.31981">
        <ele>1168.647</ele>
        <time>2022-08-24T15:08:45Z</time>
      </trkpt>
      <trkpt lat="44.06809" lon="6.32007">
        <ele>1175.917</ele>
        <time>2022-08-24T15:09:05Z</time>
      </trkpt>
      <trkpt lat="44.0684" lon="6.32007">
        <ele>1178.322</ele>
        <time>2022-08-24T15:09:25Z</time>
      </trkpt>
      <trkpt lat="44.06871" lon="6.32001">
        <ele>1181.544</ele>
        <time>2022-08-24T15:09:45Z</time>
      </trkpt>
      <trkpt lat="44.06904" lon="6.31999">
        <ele>1186.312</ele>
        <time>2022-08-24T15:10:05Z</time>
      </trkpt>
      <trkpt lat="44.06956" lon="6.32058">
        <ele>1194.247</ele>
        <time>2022-08-24T15:10:25Z</time>
      </trkpt>
      <trkpt lat="44.06968" lon="6.32087">
        <ele>1195.746</ele>
        <time>2022-08-24T15:10:45Z</time>
      </trkpt>
      <trkpt lat="44.06968" lon="6.32108">
        <ele>1198.388</ele>
        <time>2022-08-24T15:11:05Z</time>
      </trkpt>
      <trkpt lat="44.06951" lon="6.3213">
        <ele>1200.916</ele>
        <time>2022-08-24T15:11:25Z</time>
      </trkpt>
      <trkpt lat="44.06871" lon="6.32127">
        <ele>1210.409</ele>
        <time>2022-08-24T15:11:45Z</time>
      </trkpt>
      <trkpt lat="44.06836" lon="6.32142">
        <ele>1213.635</ele>
        <time>2022-08-24T15:12:05Z</time>
      </trkpt>
      <trkpt lat="44.06816" lon="6.32164">
        <ele>1214.915</ele>
        <time>2022-08-24T15:12:25Z</time>
      </trkpt>
      <trkpt lat="44.06797" lon="6.32207">
        <ele>1222.255</ele>
        <time>2022-08-24T15:12:45Z</time>
      </trkpt>
      <trkpt lat="44.06786" lon="6.32267">
        <ele>1227.31</ele>
        <time>2022-08-24T15:13:05Z</time>
      </trkpt>
      <trkpt lat="44.06792" lon="6.32307">
        <ele>1232.43</ele>
        <time>2022-08-24T15:13:25Z</time>
      </trkpt>
      <trkpt lat="44.06805" lon="6.32338">
        <ele>1234.015</ele>
        <time>2022-08-24T15:13:45Z</time>
      </trkpt>
      <trkpt lat="44.06805" lon="6.32404">
        <ele>1242.727</ele>
        <time>2022-08-24T15:14:05Z</time>
      </trkpt>
      <trkpt lat="44.06789" lon="6.32443">
        <ele>1246.415</ele>
        <time>2022-08-24T15:14:25Z</time>
      </trkpt>
      <trkpt lat="44.06795" lon="6.32458">
        <ele>1247.82</ele>
        <time>2022-08-24T15:14:45Z</time>
      </trkpt>
      <trkpt lat="44.06796" lon="6.32459">
        <ele>1249.275</ele>
        <time>2022-08-24T15:15:05Z</time>
      </trkpt>
      <trkpt lat="44.06853" lon="6.32469">
        <ele>1254.728</ele>
        <time>2022-08-24T15:15:25Z</time>
      </trkpt>
      <trkpt lat="44.06878" lon="6.32508">
        <ele>1258.52</ele>
        <time>2022-08-24T15:15:45Z</time>
      </trkpt>
      <trkpt lat="44.06899" lon="6.32517">
        <ele>1259.509</ele>
        <time>2022-08-24T15:16:05Z</time>
      </trkpt>
      <trkpt lat="44.06958" lon="6.32519">
        <ele>1267.398</ele>
        <time>2022-08-24T15:16:25Z</time>
      </trkpt>
      <trkpt lat="44.0697" lon="6.32541">
        <ele>1268.388</ele>
        <time>2022-08-24T15:16:45Z</time>
      </trkpt>
      <trkpt lat="44.06987" lon="6.32622">
        <ele>1274.288</ele>
        <time>2022-08-24T15:17:05Z</time>
      </trkpt>
      <trkpt lat="44.07003" lon="6.32649">
        <ele>1275.613</ele>
        <time>2022-08-24T15:17:25Z</time>
      </trkpt>
      <trkpt lat="44.07023" lon="6.3266">
        <ele>1277.623</ele>
        <time>2022-08-24T15:17:45Z</time>
      </trkpt>
      <trkpt lat="44.071" lon="6.32663">
        <ele>1280.618</ele>
        <time>2022-08-24T15:18:05Z</time>
      </trkpt>
      <trkpt lat="44.07153" lon="6.32717">
        <ele>1284.79</ele>
        <time>2022-08-24T15:18:25Z</time>
      </trkpt>
      <trkpt lat="44.07206" lon="6.32771">
        <ele>1291.578</ele>
        <time>2022-08-24T15:18:45Z</time>
      </trkpt>
      <trkpt lat="44.07216" lon="6.32794">
        <ele>1292.593</ele>
        <time>2022-08-24T15:19:05Z</time>
      </trkpt>
      <trkpt lat="44.0724" lon="6.32804">
        <ele>1294.596</ele>
        <time>2022-08-24T15:19:25Z</time>
      </trkpt>
      <trkpt lat="44.0725" lon="6.32815">
        <ele>1295.531</ele>
        <time>2022-08-24T15:19:45Z</time>
      </trkpt>
      <trkpt lat="44.07274" lon="6.32835">
        <ele>1298.424</ele>
        <time>2022-08-24T15:20:05Z</time>
      </trkpt>
      <trkpt lat="44.07302" lon="6.32834">
        <ele>1299.109</ele>
        <time>2022-08-24T15:20:25Z</time>
      </trkpt>
      <trkpt lat="44.07364" lon="6.32875">
        <ele>1302.09</ele>
        <time>2022-08-24T15:20:45Z</time>
      </trkpt>
      <trkpt lat="44.07374" lon="6.32916">
        <ele>1305.99</ele>
        <time>2022-08-24T15:21:05Z</time>
      </trkpt>
      <trkpt lat="44.07415" lon="6.32942">
        <ele>1309.91</ele>
        <time>2022-08-24T15:21:25Z</time>
      </trkpt>
      <trkpt lat="44.07429" lon="6.32968">
        <ele>1311.185</ele>
        <time>2022-08-24T15:21:45Z</time>
      </trkpt>
      <trkpt lat="44.07464" lon="6.33017">
        <ele>1315.715</ele>
        <time>2022-08-24T15:22:05Z</time>
      </trkpt>
      <trkpt lat="44.07499" lon="6.33066">
        <ele>1320.37</ele>
        <time>2022-08-24T15:22:25Z</time>
      </trkpt>
      <trkpt lat="44.07552" lon="6.33094">
        <ele>1323.962</ele>
        <time>2022-08-24T15:22:45Z</time>
      </trkpt>
      <trkpt lat="44.07579" lon="6.33121">
        <ele>1325.67</ele>
        <time>2022-08-24T15:23:05Z</time>
      </trkpt>
      <trkpt lat="44.07549" lon="6.33108">
        <ele>1328.055</ele>
        <time>2022-08-24T15:23:25Z</time>
      </trkpt>
      <trkpt lat="44.07526" lon="6.3311">
        <ele>1331.163</ele>
        <time>2022-08-24T15:23:45Z</time>
      </trkpt>
      <trkpt lat="44.07495" lon="6.3311">
        <ele>1339.344</ele>
        <time>2022-08-24T15:24:05Z</time>
      </trkpt>
      <trkpt lat="44.07461" lon="6.33099">
        <ele>1345.818</ele>
        <time>2022-08-24T15:24:25Z</time>
      </trkpt>
      <trkpt lat="44.0744" lon="6.33079">
        <ele>1347.109</ele>
        <time>2022-08-24T15:24:45Z</time>
      </trkpt>
      <trkpt lat="44.07409" lon="6.33057">
        <ele>1352.897</ele>
        <time>2022-08-24T15:25:05Z</time>
      </trkpt>
      <trkpt lat="44.07418" lon="6.33081">
        <ele>1354.847</ele>
        <time>2022-08-24T15:25:25Z</time>
      </trkpt>
      <trkpt lat="44.07445" lon="6.33125">
        <ele>1361.677</ele>
        <time>2022-08-24T15:25:45Z</time>
      </trkpt>
      <trkpt lat="44.07473" lon="6.33159">
        <ele>1368.472</ele>
        <time>2022-08-24T15:26:05Z</time>
      </trkpt>
      <trkpt lat="44.07494" lon="6.33174">
        <ele>1369.712</ele>
        <time>2022-08-24T15:26:25Z</time>
      </trkpt>
      <trkpt lat="44.07518" lon="6.33198">
        <ele>1376.127</ele>
        <time>2022-08-24T15:26:45Z</time>
      </trkpt>
      <trkpt lat="44.0753" lon="6.3322">
        <ele>1377.369</ele>
        <time>2022-08-24T15:27:05Z</time>
      </trkpt>
      <trkpt lat="44.07556" lon="6.33245">
        <ele>1382.237</ele>
        <time>2022-08-24T15:27:25Z</time>
      </trkpt>
      <trkpt lat="44.07599" lon="6.33281">
        <ele>1387.772</ele>
        <time>2022-08-24T15:27:45Z</time>
      </trkpt>
      <trkpt lat="44.07608" lon="6.33295">
        <ele>1388.772</ele>
        <time>2022-08-24T15:28:05Z</time>
      </trkpt>
      <trkpt lat="44.07631" lon="6.33308">
        <ele>1391.013</ele>
        <time>2022-08-24T15:28:25Z</time>
      </trkpt>
      <trkpt lat="44.07655" lon="6.33334">
        <ele>1397.414</ele>
        <time>2022-08-24T15:28:45Z</time>
      </trkpt>
      <trkpt lat="44.07708" lon="6.33376">
        <ele>1405.309</ele>
        <time>2022-08-24T15:29:05Z</time>
      </trkpt>
      <trkpt lat="44.07749" lon="6.33404">
        <ele>1411.418</ele>
        <time>2022-08-24T15:29:25Z</time>
      </trkpt>
      <trkpt lat="44.0779" lon="6.33432">
        <ele>1416.538</ele>
        <time>2022-08-24T15:29:45Z</time>
      </trkpt>
      <trkpt lat="44.07873" lon="6.33476">
        <ele>1427.978</ele>
        <time>2022-08-24T15:30:05Z</time>
      </trkpt>
      <trkpt lat="44.07888" lon="6.33476">
        <ele>1427.513</ele>
        <time>2022-08-24T15:30:25Z</time>
      </trkpt>
      <trkpt lat="44.07954" lon="6.33506">
        <ele>1434.623</ele>
        <time>2022-08-24T15:30:45Z</time>
      </trkpt>
      <trkpt lat="44.0803" lon="6.33522">
        <ele>1445.328</ele>
        <time>2022-08-24T15:31:05Z</time>
      </trkpt>
      <trkpt lat="44.08032" lon="6.33523">
        <ele>1445.33</ele>
        <time>2022-08-24T15:31:25Z</time>
      </trkpt>
      <trkpt lat="44.07979" lon="6.33554">
        <ele>1457.248</ele>
        <time>2022-08-24T15:31:45Z</time>
      </trkpt>
      <trkpt lat="44.07925" lon="6.33567">
        <ele>1464.163</ele>
        <time>2022-08-24T15:32:05Z</time>
      </trkpt>
      <trkpt lat="44.07901" lon="6.3357">
        <ele>1465.456</ele>
        <time>2022-08-24T15:32:25Z</time>
      </trkpt>
      <trkpt lat="44.07901" lon="6.33584">
        <ele>1473.959</ele>
        <time>2022-08-24T15:32:45Z</time>
      </trkpt>
      <trkpt lat="44.07926" lon="6.33594">
        <ele>1482.314</ele>
        <time>2022-08-24T15:33:05Z</time>
      </trkpt>
      <trkpt lat="44.07978" lon="6.33611">
        <ele>1490.909</ele>
        <time>2022-08-24T15:33:25Z</time>
      </trkpt>
      <trkpt lat="44.08031" lon="6.33627">
        <ele>1497.996</ele>
        <time>2022-08-24T15:33:45Z</time>
      </trkpt>
      <trkpt lat="44.08048" lon="6.33652">
        <ele>1499.876</ele>
        <time>2022-08-24T15:34:05Z</time>
      </trkpt>
      <trkpt lat="44.0799" lon="6.3366">
        <ele>1507.836</ele>
        <time>2022-08-24T15:34:25Z</time>
      </trkpt>
      <trkpt lat="44.07932" lon="6.33668">
        <ele>1509.921</ele>
        <time>2022-08-24T15:34:45Z</time>
      </trkpt>
      <trkpt lat="44.07874" lon="6.33665">
        <ele>1511.971</ele>
        <time>2022-08-24T15:35:05Z</time>
      </trkpt>
      <trkpt lat="44.07816" lon="6.33661">
        <ele>1515.116</ele>
        <time>2022-08-24T15:35:25Z</time>
      </trkpt>
      <trkpt lat="44.07871" lon="6.33691">
        <ele>1530.218</ele>
        <time>2022-08-24T15:35:45Z</time>
      </trkpt>
      <trkpt lat="44.07926" lon="6.3372">
        <ele>1547.966</ele>
        <time>2022-08-24T15:36:05Z</time>
      </trkpt>
      <trkpt lat="44.08001" lon="6.33752">
        <ele>1566.271</ele>
        <time>2022-08-24T15:36:25Z</time>
      </trkpt>
      <trkpt lat="44.0802" lon="6.33775">
        <ele>1569.978</ele>
        <time>2022-08-24T15:36:45Z</time>
      </trkpt>
      <trkpt lat="44.07941" lon="6.33794">
        <ele>1595.833</ele>
        <time>2022-08-24T15:37:05Z</time>
      </trkpt>
      <trkpt lat="44.07899" lon="6.33812">
        <ele>1597.226</ele>
        <time>2022-08-24T15:37:25Z</time>
      </trkpt>
      <trkpt lat="44.07881" lon="6.33812">
        <ele>1597.309</ele>
        <time>2022-08-24T15:37:45Z</time>
      </trkpt>
      <trkpt lat="44.07865" lon="6.33818">
        <ele>1598.698</ele>
        <time>2022-08-24T15:38:05Z</time>
      </trkpt>
      <trkpt lat="44.07872" lon="6.33826">
        <ele>1599.848</ele>
        <time>2022-08-24T15:38:25Z</time>
      </trkpt>
      <trkpt lat="44.07869" lon="6.3383">
        <ele>1603.228</ele>
        <time>2022-08-24T15:38:45Z</time>
      </trkpt>
      <trkpt lat="44.07868" lon="6.33836">
        <ele>1604.093</ele>
        <time>2022-08-24T15:39:05Z</time>
      </trkpt>
      <trkpt lat="44.07879" lon="6.33831">
        <ele>1605.693</ele>
        <time>2022-08-24T15:39:25Z</time>
      </trkpt>
      <trkpt lat="44.07886" lon="6.33836">
        <ele>1607.648</ele>
        <time>2022-08-24T15:39:45Z</time>
      </trkpt>
      <trkpt lat="44.07891" lon="6.33829">
        <ele>1608.96</ele>
        <time>2022-08-24T15:40:05Z</time>
      </trkpt>
      <trkpt lat="44.07901" lon="6.33832">
        <ele>1609.048</ele>
        <time>2022-08-24T15:40:25Z</time>
      </trkpt>
      <trkpt lat="44.07905" lon="6.33836">
        <ele>1609.533</ele>
        <time>2022-08-24T15:40:45Z</time>
      </trkpt>
      <trkpt lat="44.07895" lon="6.33838">
        <ele>1609.888</ele>
        <time>2022-08-24T15:41:05Z</time>
      </trkpt>
      <trkpt lat="44.07891" lon="6.33848">
        <ele>1609.824</ele>
        <time>2022-08-24T15:41:25Z</time>
      </trkpt>
      <trkpt lat="44.0788" lon="6.33853">
        <ele>1609.726</ele>
        <time>2022-08-24T15:41:45Z</time>
      </trkpt>
      <trkpt lat="44.07881" lon="6.33853">
        <ele>1609.709</ele>
        <time>2022-08-24T15:42:05Z</time>
      </trkpt>
      <trkpt lat="44.0788" lon="6.33853">
        <ele>1609.729</ele>
        <time>2022-08-24T15:42:25Z</time>
      </trkpt>
      <trkpt lat="44.07896" lon="6.33857">
        <ele>1609.779</ele>
        <time>2022-08-24T15:42:45Z</time>
      </trkpt>
      <trkpt lat="44.07914" lon="6.33864">
        <ele>1615.339</ele>
        <time>2022-08-24T15:43:05Z</time>
      </trkpt>
      <trkpt lat="44.07931" lon="6.33874">
        <ele>1618.194</ele>
        <time>2022-08-24T15:43:25Z</time>
      </trkpt>
      <trkpt lat="44.07941" lon="6.33873">
        <ele>1619.894</ele>
        <time>2022-08-24T15:43:45Z</time>
      </trkpt>
      <trkpt lat="44.0796" lon="6.33865">
        <ele>1621.739</ele>
        <time>2022-08-24T15:44:05Z</time>
      </trkpt>
      <trkpt lat="44.07969" lon="6.33868">
        <ele>1622.981</ele>
        <time>2022-08-24T15:44:25Z</time>
      </trkpt>
      <trkpt lat="44.07966" lon="6.33871">
        <ele>1623.349</ele>
        <time>2022-08-24T15:44:45Z</time>
      </trkpt>
      <trkpt lat="44.07967" lon="6.33875">
        <ele>1623.334</ele>
        <time>2022-08-24T15:45:05Z</time>
      </trkpt>
      <trkpt lat="44.07981" lon="6.33875">
        <ele>1623.865</ele>
        <time>2022-08-24T15:45:25Z</time>
      </trkpt>
      <trkpt lat="44.07996" lon="6.33871">
        <ele>1625.168</ele>
        <time>2022-08-24T15:45:45Z</time>
      </trkpt>
      <trkpt lat="44.08038" lon="6.3388">
        <ele>1617.214</ele>
        <time>2022-08-24T15:46:05Z</time>
      </trkpt>
      <trkpt lat="44.08052" lon="6.33878">
        <ele>1616.909</ele>
        <time>2022-08-24T15:46:25Z</time>
      </trkpt>
      <trkpt lat="44.08065" lon="6.3388">
        <ele>1617.147</ele>
        <time>2022-08-24T15:46:45Z</time>
      </trkpt>
      <trkpt lat="44.08076" lon="6.33891">
        <ele>1617.667</ele>
        <time>2022-08-24T15:47:05Z</time>
      </trkpt>
      <trkpt lat="44.08082" lon="6.33893">
        <ele>1618.267</ele>
        <time>2022-08-24T15:47:25Z</time>
      </trkpt>
      <trkpt lat="44.08114" lon="6.3391">
        <ele>1619.382</ele>
        <time>2022-08-24T15:47:45Z</time>
      </trkpt>
      <trkpt lat="44.08116" lon="6.33916">
        <ele>1624.882</ele>
        <time>2022-08-24T15:48:05Z</time>
      </trkpt>
      <trkpt lat="44.08089" lon="6.3394">
        <ele>1630.147</ele>
        <time>2022-08-24T15:48:25Z</time>
      </trkpt>
      <trkpt lat="44.08091" lon="6.33943">
        <ele>1630.179</ele>
        <time>2022-08-24T15:48:45Z</time>
      </trkpt>
      <trkpt lat="44.081" lon="6.33943">
        <ele>1630.147</ele>
        <time>2022-08-24T15:49:05Z</time>
      </trkpt>
      <trkpt lat="44.08134" lon="6.33949">
        <ele>1628.442</ele>
        <time>2022-08-24T15:49:25Z</time>
      </trkpt>
      <trkpt lat="44.08181" lon="6.3396">
        <ele>1623.973</ele>
        <time>2022-08-24T15:49:45Z</time>
      </trkpt>
      <trkpt lat="44.08201" lon="6.33972">
        <ele>1623.585</ele>
        <time>2022-08-24T15:50:05Z</time>
      </trkpt>
      <trkpt lat="44.08214" lon="6.33971">
        <ele>1623.013</ele>
        <time>2022-08-24T15:50:25Z</time>
      </trkpt>
      <trkpt lat="44.08239" lon="6.33997">
        <ele>1622.709</ele>
        <time>2022-08-24T15:50:45Z</time>
      </trkpt>
      <trkpt lat="44.08217" lon="6.34002">
        <ele>1621.998</ele>
        <time>2022-08-24T15:51:05Z</time>
      </trkpt>
      <trkpt lat="44.08189" lon="6.34019">
        <ele>1619.058</ele>
        <time>2022-08-24T15:51:25Z</time>
      </trkpt>
      <trkpt lat="44.08205" lon="6.34038">
        <ele>1617.718</ele>
        <time>2022-08-24T15:51:45Z</time>
      </trkpt>
      <trkpt lat="44.0823" lon="6.3405">
        <ele>1615.593</ele>
        <time>2022-08-24T15:52:05Z</time>
      </trkpt>
      <trkpt lat="44.08242" lon="6.34073">
        <ele>1613.433</ele>
        <time>2022-08-24T15:52:25Z</time>
      </trkpt>
      <trkpt lat="44.08247" lon="6.34074">
        <ele>1612.268</ele>
        <time>2022-08-24T15:52:45Z</time>
      </trkpt>
      <trkpt lat="44.08259" lon="6.34097">
        <ele>1612.28</ele>
        <time>2022-08-24T15:53:05Z</time>
      </trkpt>
      <trkpt lat="44.08311" lon="6.34102">
        <ele>1607.418</ele>
        <time>2022-08-24T15:53:25Z</time>
      </trkpt>
      <trkpt lat="44.08363" lon="6.34106">
        <ele>1607.013</ele>
        <time>2022-08-24T15:53:45Z</time>
      </trkpt>
      <trkpt lat="44.08416" lon="6.34113">
        <ele>1606.382</ele>
        <time>2022-08-24T15:54:05Z</time>
      </trkpt>
      <trkpt lat="44.08469" lon="6.3412">
        <ele>1605.143</ele>
        <time>2022-08-24T15:54:25Z</time>
      </trkpt>
      <trkpt lat="44.08534" lon="6.34115">
        <ele>1604.817</ele>
        <time>2022-08-24T15:54:45Z</time>
      </trkpt>
      <trkpt lat="44.08613" lon="6.34118">
        <ele>1605.709</ele>
        <time>2022-08-24T15:55:05Z</time>
      </trkpt>
      <trkpt lat="44.08657" lon="6.34123">
        <ele>1605.839</ele>
        <time>2022-08-24T15:55:25Z</time>
      </trkpt>
      <trkpt lat="44.08708" lon="6.34116">
        <ele>1607.019</ele>
        <time>2022-08-24T15:55:45Z</time>
      </trkpt>
      <trkpt lat="44.0876" lon="6.34109">
        <ele>1608.329</ele>
        <time>2022-08-24T15:56:05Z</time>
      </trkpt>
      <trkpt lat="44.08832" lon="6.34102">
        <ele>1608.984</ele>
        <time>2022-08-24T15:56:25Z</time>
      </trkpt>
      <trkpt lat="44.08904" lon="6.34095">
        <ele>1609.654</ele>
        <time>2022-08-24T15:56:45Z</time>
      </trkpt>
      <trkpt lat="44.08977" lon="6.34087">
        <ele>1608.479</ele>
        <time>2022-08-24T15:57:05Z</time>
      </trkpt>
      <trkpt lat="44.09048" lon="6.34093">
        <ele>1605.161</ele>
        <time>2022-08-24T15:57:25Z</time>
      </trkpt>
      <trkpt lat="44.09112" lon="6.34088">
        <ele>1604.859</ele>
        <time>2022-08-24T15:57:45Z</time>
      </trkpt>
      <trkpt lat="44.09132" lon="6.34093">
        <ele>1604.984</ele>
        <time>2022-08-24T15:58:05Z</time>
      </trkpt>
      <trkpt lat="44.09195" lon="6.34098">
        <ele>1610.714</ele>
        <time>2022-08-24T15:58:25Z</time>
      </trkpt>
      <trkpt lat="44.09248" lon="6.3411">
        <ele>1614.354</ele>
        <time>2022-08-24T15:58:45Z</time>
      </trkpt>
      <trkpt lat="44.09301" lon="6.34122">
        <ele>1617.209</ele>
        <time>2022-08-24T15:59:05Z</time>
      </trkpt>
      <trkpt lat="44.0935" lon="6.34148">
        <ele>1619.509</ele>
        <time>2022-08-24T15:59:25Z</time>
      </trkpt>
      <trkpt lat="44.09399" lon="6.34174">
        <ele>1620.812</ele>
        <time>2022-08-24T15:59:45Z</time>
      </trkpt>
      <trkpt lat="44.09448" lon="6.34206">
        <ele>1622.122</ele>
        <time>2022-08-24T16:00:05Z</time>
      </trkpt>
      <trkpt lat="44.09497" lon="6.34238">
        <ele>1623.912</ele>
        <time>2022-08-24T16:00:25Z</time>
      </trkpt>
      <trkpt lat="44.09524" lon="6.34266">
        <ele>1625.437</ele>
        <time>2022-08-24T16:00:45Z</time>
      </trkpt>
      <trkpt lat="44.0956" lon="6.34293">
        <ele>1626.917</ele>
        <time>2022-08-24T16:01:05Z</time>
      </trkpt>
      <trkpt lat="44.09561" lon="6.34294">
        <ele>1626.982</ele>
        <time>2022-08-24T16:01:25Z</time>
      </trkpt>
      <trkpt lat="44.09568" lon="6.34314">
        <ele>1626.944</ele>
        <time>2022-08-24T16:01:45Z</time>
      </trkpt>
      <trkpt lat="44.09558" lon="6.34356">
        <ele>1626.732</ele>
        <time>2022-08-24T16:02:05Z</time>
      </trkpt>
      <trkpt lat="44.09536" lon="6.34405">
        <ele>1624.487</ele>
        <time>2022-08-24T16:02:25Z</time>
      </trkpt>
      <trkpt lat="44.0951" lon="6.34514">
        <ele>1619.044</ele>
        <time>2022-08-24T16:02:45Z</time>
      </trkpt>
      <trkpt lat="44.09493" lon="6.34572">
        <ele>1616.305</ele>
        <time>2022-08-24T16:03:05Z</time>
      </trkpt>
      <trkpt lat="44.09476" lon="6.3463">
        <ele>1611.415</ele>
        <time>2022-08-24T16:03:25Z</time>
      </trkpt>
      <trkpt lat="44.09456" lon="6.34691">
        <ele>1602.909</ele>
        <time>2022-08-24T16:03:45Z</time>
      </trkpt>
      <trkpt lat="44.09437" lon="6.34751">
        <ele>1596.755</ele>
        <time>2022-08-24T16:04:05Z</time>
      </trkpt>
      <trkpt lat="44.09422" lon="6.34815">
        <ele>1589.495</ele>
        <time>2022-08-24T16:04:25Z</time>
      </trkpt>
      <trkpt lat="44.09423" lon="6.34882">
        <ele>1582.065</ele>
        <time>2022-08-24T16:04:45Z</time>
      </trkpt>
      <trkpt lat="44.09424" lon="6.34948">
        <ele>1577.07</ele>
        <time>2022-08-24T16:05:05Z</time>
      </trkpt>
      <trkpt lat="44.09434" lon="6.34956">
        <ele>1575.35</ele>
        <time>2022-08-24T16:05:25Z</time>
      </trkpt>
      <trkpt lat="44.09418" lon="6.35008">
        <ele>1570.355</ele>
        <time>2022-08-24T16:05:45Z</time>
      </trkpt>
      <trkpt lat="44.09417" lon="6.35063">
        <ele>1564.457</ele>
        <time>2022-08-24T16:06:05Z</time>
      </trkpt>
      <trkpt lat="44.09401" lon="6.35095">
        <ele>1560.195</ele>
        <time>2022-08-24T16:06:25Z</time>
      </trkpt>
      <trkpt lat="44.09405" lon="6.35208">
        <ele>1550.67</ele>
        <time>2022-08-24T16:06:45Z</time>
      </trkpt>
      <trkpt lat="44.09402" lon="6.35226">
        <ele>1549.787</ele>
        <time>2022-08-24T16:07:05Z</time>
      </trkpt>
      <trkpt lat="44.094" lon="6.35269">
        <ele>1545.842</ele>
        <time>2022-08-24T16:07:25Z</time>
      </trkpt>
      <trkpt lat="44.09405" lon="6.3529">
        <ele>1543.926</ele>
        <time>2022-08-24T16:07:45Z</time>
      </trkpt>
      <trkpt lat="44.09422" lon="6.3533">
        <ele>1540.309</ele>
        <time>2022-08-24T16:08:05Z</time>
      </trkpt>
      <trkpt lat="44.09424" lon="6.35357">
        <ele>1539.779</ele>
        <time>2022-08-24T16:08:25Z</time>
      </trkpt>
      <trkpt lat="44.09413" lon="6.35377">
        <ele>1538.319</ele>
        <time>2022-08-24T16:08:45Z</time>
      </trkpt>
      <trkpt lat="44.09373" lon="6.35469">
        <ele>1532.559</ele>
        <time>2022-08-24T16:09:05Z</time>
      </trkpt>
      <trkpt lat="44.09334" lon="6.35561">
        <ele>1528.194</ele>
        <time>2022-08-24T16:09:25Z</time>
      </trkpt>
      <trkpt lat="44.09306" lon="6.35611">
        <ele>1525.844</ele>
        <time>2022-08-24T16:09:45Z</time>
      </trkpt>
      <trkpt lat="44.09279" lon="6.35661">
        <ele>1523.629</ele>
        <time>2022-08-24T16:10:05Z</time>
      </trkpt>
      <trkpt lat="44.09246" lon="6.35753">
        <ele>1518.421</ele>
        <time>2022-08-24T16:10:25Z</time>
      </trkpt>
      <trkpt lat="44.09213" lon="6.35845">
        <ele>1514.099</ele>
        <time>2022-08-24T16:10:45Z</time>
      </trkpt>
      <trkpt lat="44.09208" lon="6.35952">
        <ele>1508.134</ele>
        <time>2022-08-24T16:11:05Z</time>
      </trkpt>
      <trkpt lat="44.09179" lon="6.36029">
        <ele>1503.412</ele>
        <time>2022-08-24T16:11:25Z</time>
      </trkpt>
      <trkpt lat="44.09163" lon="6.36096">
        <ele>1501.132</ele>
        <time>2022-08-24T16:11:45Z</time>
      </trkpt>
      <trkpt lat="44.09175" lon="6.36117">
        <ele>1501.605</ele>
        <time>2022-08-24T16:12:05Z</time>
      </trkpt>
      <trkpt lat="44.09185" lon="6.36172">
        <ele>1505.509</ele>
        <time>2022-08-24T16:12:25Z</time>
      </trkpt>
      <trkpt lat="44.09173" lon="6.36213">
        <ele>1506.912</ele>
        <time>2022-08-24T16:12:45Z</time>
      </trkpt>
      <trkpt lat="44.09177" lon="6.36259">
        <ele>1508.472</ele>
        <time>2022-08-24T16:13:05Z</time>
      </trkpt>
      <trkpt lat="44.09195" lon="6.36316">
        <ele>1511.492</ele>
        <time>2022-08-24T16:13:25Z</time>
      </trkpt>
      <trkpt lat="44.09233" lon="6.36371">
        <ele>1514.297</ele>
        <time>2022-08-24T16:13:45Z</time>
      </trkpt>
      <trkpt lat="44.09246" lon="6.36457">
        <ele>1518.547</ele>
        <time>2022-08-24T16:14:05Z</time>
      </trkpt>
      <trkpt lat="44.09267" lon="6.36575">
        <ele>1526.662</ele>
        <time>2022-08-24T16:14:25Z</time>
      </trkpt>
      <trkpt lat="44.09268" lon="6.36623">
        <ele>1528.344</ele>
        <time>2022-08-24T16:14:45Z</time>
      </trkpt>
      <trkpt lat="44.09255" lon="6.36665">
        <ele>1529.472</ele>
        <time>2022-08-24T16:15:05Z</time>
      </trkpt>
      <trkpt lat="44.09257" lon="6.36673">
        <ele>1529.677</ele>
        <time>2022-08-24T16:15:25Z</time>
      </trkpt>
      <trkpt lat="44.0926" lon="6.36675">
        <ele>1529.896</ele>
        <time>2022-08-24T16:15:45Z</time>
      </trkpt>
      <trkpt lat="44.09261" lon="6.36675">
        <ele>1529.831</ele>
        <time>2022-08-24T16:16:05Z</time>
      </trkpt>
      <trkpt lat="44.09277" lon="6.36664">
        <ele>1529.824</ele>
        <time>2022-08-24T16:16:25Z</time>
      </trkpt>
      <trkpt lat="44.09311" lon="6.36619">
        <ele>1531.409</ele>
        <time>2022-08-24T16:16:45Z</time>
      </trkpt>
      <trkpt lat="44.09346" lon="6.36573">
        <ele>1535.39</ele>
        <time>2022-08-24T16:17:05Z</time>
      </trkpt>
      <trkpt lat="44.09382" lon="6.36535">
        <ele>1539.93</ele>
        <time>2022-08-24T16:17:25Z</time>
      </trkpt>
      <trkpt lat="44.09419" lon="6.36497">
        <ele>1543.11</ele>
        <time>2022-08-24T16:17:45Z</time>
      </trkpt>
      <trkpt lat="44.09458" lon="6.36446">
        <ele>1549.055</ele>
        <time>2022-08-24T16:18:05Z</time>
      </trkpt>
      <trkpt lat="44.09497" lon="6.36394">
        <ele>1552.695</ele>
        <time>2022-08-24T16:18:25Z</time>
      </trkpt>
      <trkpt lat="44.09523" lon="6.36369">
        <ele>1555.08</ele>
        <time>2022-08-24T16:18:45Z</time>
      </trkpt>
      <trkpt lat="44.09531" lon="6.36322">
        <ele>1558.352</ele>
        <time>2022-08-24T16:19:05Z</time>
      </trkpt>
      <trkpt lat="44.09549" lon="6.36304">
        <ele>1559.72</ele>
        <time>2022-08-24T16:19:25Z</time>
      </trkpt>
      <trkpt lat="44.0957" lon="6.36293">
        <ele>1562.035</ele>
        <time>2022-08-24T16:19:45Z</time>
      </trkpt>
      <trkpt lat="44.09598" lon="6.36295">
        <ele>1564.865</ele>
        <time>2022-08-24T16:20:05Z</time>
      </trkpt>
      <trkpt lat="44.09631" lon="6.36279">
        <ele>1569.168</ele>
        <time>2022-08-24T16:20:25Z</time>
      </trkpt>
      <trkpt lat="44.09653" lon="6.36252">
        <ele>1570.914</ele>
        <time>2022-08-24T16:20:45Z</time>
      </trkpt>
      <trkpt lat="44.09679" lon="6.3624">
        <ele>1573.209</ele>
        <time>2022-08-24T16:21:05Z</time>
      </trkpt>
      <trkpt lat="44.09706" lon="6.36203">
        <ele>1576.967</ele>
        <time>2022-08-24T16:21:25Z</time>
      </trkpt>
      <trkpt lat="44.09733" lon="6.36198">
        <ele>1580.847</ele>
        <time>2022-08-24T16:21:45Z</time>
      </trkpt>
      <trkpt lat="44.09772" lon="6.36146">
        <ele>1586.527</ele>
        <time>2022-08-24T16:22:05Z</time>
      </trkpt>
      <trkpt lat="44.09821" lon="6.36118">
        <ele>1592.412</ele>
        <time>2022-08-24T16:22:25Z</time>
      </trkpt>
      <trkpt lat="44.09872" lon="6.36076">
        <ele>1599.782</ele>
        <time>2022-08-24T16:22:45Z</time>
      </trkpt>
      <trkpt lat="44.09924" lon="6.36034">
        <ele>1606.157</ele>
        <time>2022-08-24T16:23:05Z</time>
      </trkpt>
      <trkpt lat="44.0995" lon="6.36039">
        <ele>1607.179</ele>
        <time>2022-08-24T16:23:25Z</time>
      </trkpt>
      <trkpt lat="44.09972" lon="6.36033">
        <ele>1608.967</ele>
        <time>2022-08-24T16:23:45Z</time>
      </trkpt>
      <trkpt lat="44.0998" lon="6.3602">
        <ele>1610.472</ele>
        <time>2022-08-24T16:24:05Z</time>
      </trkpt>
      <trkpt lat="44.0999" lon="6.35994">
        <ele>1611.422</ele>
        <time>2022-08-24T16:24:25Z</time>
      </trkpt>
      <trkpt lat="44.10003" lon="6.35982">
        <ele>1612.562</ele>
        <time>2022-08-24T16:24:45Z</time>
      </trkpt>
      <trkpt lat="44.10013" lon="6.35962">
        <ele>1613.508</ele>
        <time>2022-08-24T16:25:05Z</time>
      </trkpt>
      <trkpt lat="44.10035" lon="6.35943">
        <ele>1615.109</ele>
        <time>2022-08-24T16:25:25Z</time>
      </trkpt>
      <trkpt lat="44.10056" lon="6.3593">
        <ele>1617.293</ele>
        <time>2022-08-24T16:25:45Z</time>
      </trkpt>
      <trkpt lat="44.10073" lon="6.35903">
        <ele>1619.783</ele>
        <time>2022-08-24T16:26:05Z</time>
      </trkpt>
      <trkpt lat="44.10101" lon="6.35874">
        <ele>1625.493</ele>
        <time>2022-08-24T16:26:25Z</time>
      </trkpt>
      <trkpt lat="44.10133" lon="6.35875">
        <ele>1630.898</ele>
        <time>2022-08-24T16:26:45Z</time>
      </trkpt>
      <trkpt lat="44.10158" lon="6.35858">
        <ele>1631.918</ele>
        <time>2022-08-24T16:27:05Z</time>
      </trkpt>
      <trkpt lat="44.10188" lon="6.35848">
        <ele>1636.863</ele>
        <time>2022-08-24T16:27:25Z</time>
      </trkpt>
      <trkpt lat="44.10199" lon="6.35827">
        <ele>1638.435</ele>
        <time>2022-08-24T16:27:45Z</time>
      </trkpt>
      <trkpt lat="44.10219" lon="6.35822">
        <ele>1641.123</ele>
        <time>2022-08-24T16:28:05Z</time>
      </trkpt>
      <trkpt lat="44.10256" lon="6.35827">
        <ele>1646.638</ele>
        <time>2022-08-24T16:28:25Z</time>
      </trkpt>
      <trkpt lat="44.10285" lon="6.35816">
        <ele>1649.385</ele>
        <time>2022-08-24T16:28:45Z</time>
      </trkpt>
      <trkpt lat="44.10314" lon="6.35801">
        <ele>1654.189</ele>
        <time>2022-08-24T16:29:05Z</time>
      </trkpt>
      <trkpt lat="44.10365" lon="6.3577">
        <ele>1661.017</ele>
        <time>2022-08-24T16:29:25Z</time>
      </trkpt>
      <trkpt lat="44.10417" lon="6.35738">
        <ele>1667.509</ele>
        <time>2022-08-24T16:29:45Z</time>
      </trkpt>
      <trkpt lat="44.1043" lon="6.35721">
        <ele>1668.849</ele>
        <time>2022-08-24T16:30:05Z</time>
      </trkpt>
      <trkpt lat="44.10453" lon="6.35705">
        <ele>1671.179</ele>
        <time>2022-08-24T16:30:25Z</time>
      </trkpt>
      <trkpt lat="44.10482" lon="6.35717">
        <ele>1674.239</ele>
        <time>2022-08-24T16:30:45Z</time>
      </trkpt>
      <trkpt lat="44.10499" lon="6.35729">
        <ele>1674.674</ele>
        <time>2022-08-24T16:31:05Z</time>
      </trkpt>
      <trkpt lat="44.1052" lon="6.35759">
        <ele>1675.954</ele>
        <time>2022-08-24T16:31:25Z</time>
      </trkpt>
      <trkpt lat="44.10557" lon="6.35796">
        <ele>1674.069</ele>
        <time>2022-08-24T16:31:45Z</time>
      </trkpt>
      <trkpt lat="44.10579" lon="6.35828">
        <ele>1672.441</ele>
        <time>2022-08-24T16:32:05Z</time>
      </trkpt>
      <trkpt lat="44.10585" lon="6.3583">
        <ele>1672.189</ele>
        <time>2022-08-24T16:32:25Z</time>
      </trkpt>
      <trkpt lat="44.10591" lon="6.35826">
        <ele>1672.454</ele>
        <time>2022-08-24T16:32:45Z</time>
      </trkpt>
      <trkpt lat="44.1065" lon="6.35828">
        <ele>1670.449</ele>
        <time>2022-08-24T16:33:05Z</time>
      </trkpt>
      <trkpt lat="44.10669" lon="6.3584">
        <ele>1669.002</ele>
        <time>2022-08-24T16:33:25Z</time>
      </trkpt>
      <trkpt lat="44.10688" lon="6.35836">
        <ele>1665.822</ele>
        <time>2022-08-24T16:33:45Z</time>
      </trkpt>
      <trkpt lat="44.10705" lon="6.35828">
        <ele>1662.409</ele>
        <time>2022-08-24T16:34:05Z</time>
      </trkpt>
      <trkpt lat="44.10754" lon="6.35756">
        <ele>1649.365</ele>
        <time>2022-08-24T16:34:25Z</time>
      </trkpt>
      <trkpt lat="44.10807" lon="6.35691">
        <ele>1641.235</ele>
        <time>2022-08-24T16:34:45Z</time>
      </trkpt>
      <trkpt lat="44.10818" lon="6.35673">
        <ele>1638.755</ele>
        <time>2022-08-24T16:35:05Z</time>
      </trkpt>
      <trkpt lat="44.10824" lon="6.35699">
        <ele>1634.86</ele>
        <time>2022-08-24T16:35:25Z</time>
      </trkpt>
      <trkpt lat="44.10849" lon="6.35724">
        <ele>1626.34</ele>
        <time>2022-08-24T16:35:45Z</time>
      </trkpt>
      <trkpt lat="44.10865" lon="6.35726">
        <ele>1623.775</ele>
        <time>2022-08-24T16:36:05Z</time>
      </trkpt>
      <trkpt lat="44.10843" lon="6.35697">
        <ele>1615.377</ele>
        <time>2022-08-24T16:36:25Z</time>
      </trkpt>
      <trkpt lat="44.10834" lon="6.35678">
        <ele>1613.725</ele>
        <time>2022-08-24T16:36:45Z</time>
      </trkpt>
      <trkpt lat="44.10844" lon="6.35689">
        <ele>1610.69</ele>
        <time>2022-08-24T16:37:05Z</time>
      </trkpt>
      <trkpt lat="44.1086" lon="6.35701">
        <ele>1608.466</ele>
        <time>2022-08-24T16:37:25Z</time>
      </trkpt>
      <trkpt lat="44.10881" lon="6.35703">
        <ele>1605.829</ele>
        <time>2022-08-24T16:37:45Z</time>
      </trkpt>
      <trkpt lat="44.10886" lon="6.35691">
        <ele>1599.421</ele>
        <time>2022-08-24T16:38:05Z</time>
      </trkpt>
      <trkpt lat="44.10876" lon="6.35682">
        <ele>1595.009</ele>
        <time>2022-08-24T16:38:25Z</time>
      </trkpt>
      <trkpt lat="44.10867" lon="6.35678">
        <ele>1593.137</ele>
        <time>2022-08-24T16:38:45Z</time>
      </trkpt>
      <trkpt lat="44.10858" lon="6.35666">
        <ele>1592.967</ele>
        <time>2022-08-24T16:39:05Z</time>
      </trkpt>
      <trkpt lat="44.10848" lon="6.35663">
        <ele>1592.067</ele>
        <time>2022-08-24T16:39:25Z</time>
      </trkpt>
      <trkpt lat="44.10854" lon="6.35652">
        <ele>1591.592</ele>
        <time>2022-08-24T16:39:45Z</time>
      </trkpt>
      <trkpt lat="44.10863" lon="6.35657">
        <ele>1584.152</ele>
        <time>2022-08-24T16:40:05Z</time>
      </trkpt>
      <trkpt lat="44.10875" lon="6.35657">
        <ele>1583.087</ele>
        <time>2022-08-24T16:40:25Z</time>
      </trkpt>
      <trkpt lat="44.10866" lon="6.35645">
        <ele>1579.849</ele>
        <time>2022-08-24T16:40:45Z</time>
      </trkpt>
      <trkpt lat="44.10865" lon="6.3565">
        <ele>1579.857</ele>
        <time>2022-08-24T16:41:05Z</time>
      </trkpt>
      <trkpt lat="44.10872" lon="6.35653">
        <ele>1579.822</ele>
        <time>2022-08-24T16:41:25Z</time>
      </trkpt>
      <trkpt lat="44.10878" lon="6.35652">
        <ele>1578.777</ele>
        <time>2022-08-24T16:41:45Z</time>
      </trkpt>
      <trkpt lat="44.10882" lon="6.35645">
        <ele>1577.661</ele>
        <time>2022-08-24T16:42:05Z</time>
      </trkpt>
      <trkpt lat="44.10838" lon="6.35622">
        <ele>1571.827</ele>
        <time>2022-08-24T16:42:25Z</time>
      </trkpt>
      <trkpt lat="44.10851" lon="6.35601">
        <ele>1567.009</ele>
        <time>2022-08-24T16:42:45Z</time>
      </trkpt>
      <trkpt lat="44.1088" lon="6.35598">
        <ele>1553.368</ele>
        <time>2022-08-24T16:43:05Z</time>
      </trkpt>
      <trkpt lat="44.10921" lon="6.35577">
        <ele>1546.248</ele>
        <time>2022-08-24T16:43:25Z</time>
      </trkpt>
      <trkpt lat="44.10967" lon="6.35569">
        <ele>1535.538</ele>
        <time>2022-08-24T16:43:45Z</time>
      </trkpt>
      <trkpt lat="44.10965" lon="6.35568">
        <ele>1535.523</ele>
        <time>2022-08-24T16:44:05Z</time>
      </trkpt>
      <trkpt lat="44.10967" lon="6.35569">
        <ele>1535.583</ele>
        <time>2022-08-24T16:44:25Z</time>
      </trkpt>
      <trkpt lat="44.10935" lon="6.35551">
        <ele>1525.138</ele>
        <time>2022-08-24T16:44:45Z</time>
      </trkpt>
      <trkpt lat="44.10904" lon="6.35549">
        <ele>1517.54</ele>
        <time>2022-08-24T16:45:05Z</time>
      </trkpt>
      <trkpt lat="44.10901" lon="6.35537">
        <ele>1516.848</ele>
        <time>2022-08-24T16:45:25Z</time>
      </trkpt>
      <trkpt lat="44.1091" lon="6.35525">
        <ele>1516.183</ele>
        <time>2022-08-24T16:45:45Z</time>
      </trkpt>
      <trkpt lat="44.10937" lon="6.35514">
        <ele>1506.353</ele>
        <time>2022-08-24T16:46:05Z</time>
      </trkpt>
      <trkpt lat="44.10959" lon="6.355">
        <ele>1503.404</ele>
        <time>2022-08-24T16:46:25Z</time>
      </trkpt>
      <trkpt lat="44.10957" lon="6.35494">
        <ele>1498.914</ele>
        <time>2022-08-24T16:46:45Z</time>
      </trkpt>
      <trkpt lat="44.10939" lon="6.35493">
        <ele>1497.309</ele>
        <time>2022-08-24T16:47:05Z</time>
      </trkpt>
      <trkpt lat="44.10933" lon="6.35483">
        <ele>1493.716</ele>
        <time>2022-08-24T16:47:25Z</time>
      </trkpt>
      <trkpt lat="44.10929" lon="6.35469">
        <ele>1493.036</ele>
        <time>2022-08-24T16:47:45Z</time>
      </trkpt>
      <trkpt lat="44.1093" lon="6.35415">
        <ele>1482.966</ele>
        <time>2022-08-24T16:48:05Z</time>
      </trkpt>
      <trkpt lat="44.10932" lon="6.35404">
        <ele>1480.831</ele>
        <time>2022-08-24T16:48:25Z</time>
      </trkpt>
      <trkpt lat="44.10937" lon="6.35408">
        <ele>1478.711</ele>
        <time>2022-08-24T16:48:45Z</time>
      </trkpt>
      <trkpt lat="44.10943" lon="6.35434">
        <ele>1478.746</ele>
        <time>2022-08-24T16:49:05Z</time>
      </trkpt>
      <trkpt lat="44.10958" lon="6.3544">
        <ele>1472.668</ele>
        <time>2022-08-24T16:49:25Z</time>
      </trkpt>
      <trkpt lat="44.10972" lon="6.35434">
        <ele>1469.676</ele>
        <time>2022-08-24T16:49:45Z</time>
      </trkpt>
      <trkpt lat="44.10995" lon="6.35418">
        <ele>1464.681</ele>
        <time>2022-08-24T16:50:05Z</time>
      </trkpt>
      <trkpt lat="44.1099" lon="6.35411">
        <ele>1461.436</ele>
        <time>2022-08-24T16:50:25Z</time>
      </trkpt>
      <trkpt lat="44.10977" lon="6.35403">
        <ele>1461.417</ele>
        <time>2022-08-24T16:50:45Z</time>
      </trkpt>
      <trkpt lat="44.1097" lon="6.35389">
        <ele>1458.118</ele>
        <time>2022-08-24T16:51:05Z</time>
      </trkpt>
      <trkpt lat="44.10971" lon="6.35375">
        <ele>1453.709</ele>
        <time>2022-08-24T16:51:25Z</time>
      </trkpt>
      <trkpt lat="44.10982" lon="6.35345">
        <ele>1449.854</ele>
        <time>2022-08-24T16:51:45Z</time>
      </trkpt>
      <trkpt lat="44.10974" lon="6.35325">
        <ele>1446.924</ele>
        <time>2022-08-24T16:52:05Z</time>
      </trkpt>
      <trkpt lat="44.10961" lon="6.35283">
        <ele>1437.974</ele>
        <time>2022-08-24T16:52:25Z</time>
      </trkpt>
      <trkpt lat="44.10961" lon="6.35209">
        <ele>1422.559</ele>
        <time>2022-08-24T16:52:45Z</time>
      </trkpt>
      <trkpt lat="44.10959" lon="6.35153">
        <ele>1414.279</ele>
        <time>2022-08-24T16:53:05Z</time>
      </trkpt>
      <trkpt lat="44.10945" lon="6.35083">
        <ele>1408.934</ele>
        <time>2022-08-24T16:53:25Z</time>
      </trkpt>
      <trkpt lat="44.10929" lon="6.35018">
        <ele>1395.976</ele>
        <time>2022-08-24T16:53:45Z</time>
      </trkpt>
      <trkpt lat="44.10914" lon="6.34953">
        <ele>1387.234</ele>
        <time>2022-08-24T16:54:05Z</time>
      </trkpt>
      <trkpt lat="44.10904" lon="6.34886">
        <ele>1377.389</ele>
        <time>2022-08-24T16:54:25Z</time>
      </trkpt>
      <trkpt lat="44.10902" lon="6.34849">
        <ele>1374.242</ele>
        <time>2022-08-24T16:54:45Z</time>
      </trkpt>
      <trkpt lat="44.10899" lon="6.34846">
        <ele>1370.822</ele>
        <time>2022-08-24T16:55:05Z</time>
      </trkpt>
      <trkpt lat="44.10896" lon="6.34833">
        <ele>1370.414</ele>
        <time>2022-08-24T16:55:25Z</time>
      </trkpt>
      <trkpt lat="44.1089" lon="6.34746">
        <ele>1355.209</ele>
        <time>2022-08-24T16:55:45Z</time>
      </trkpt>
      <trkpt lat="44.10854" lon="6.34658">
        <ele>1334.275</ele>
        <time>2022-08-24T16:56:05Z</time>
      </trkpt>
      <trkpt lat="44.10847" lon="6.3456">
        <ele>1321.415</ele>
        <time>2022-08-24T16:56:25Z</time>
      </trkpt>
      <trkpt lat="44.1084" lon="6.34462">
        <ele>1305.065</ele>
        <time>2022-08-24T16:56:45Z</time>
      </trkpt>
      <trkpt lat="44.10834" lon="6.34364">
        <ele>1289.73</ele>
        <time>2022-08-24T16:57:05Z</time>
      </trkpt>
      <trkpt lat="44.10808" lon="6.3428">
        <ele>1278.62</ele>
        <time>2022-08-24T16:57:25Z</time>
      </trkpt>
      <trkpt lat="44.1081" lon="6.34273">
        <ele>1278.635</ele>
        <time>2022-08-24T16:57:45Z</time>
      </trkpt>
      <trkpt lat="44.10817" lon="6.34273">
        <ele>1278.647</ele>
        <time>2022-08-24T16:58:05Z</time>
      </trkpt>
      <trkpt lat="44.10863" lon="6.3429">
        <ele>1270.735</ele>
        <time>2022-08-24T16:58:25Z</time>
      </trkpt>
      <trkpt lat="44.1087" lon="6.34291">
        <ele>1270.04</ele>
        <time>2022-08-24T16:58:45Z</time>
      </trkpt>
      <trkpt lat="44.10873" lon="6.34287">
        <ele>1269.314</ele>
        <time>2022-08-24T16:59:05Z</time>
      </trkpt>
      <trkpt lat="44.1087" lon="6.34281">
        <ele>1269.154</ele>
        <time>2022-08-24T16:59:25Z</time>
      </trkpt>
      <trkpt lat="44.10847" lon="6.34258">
        <ele>1268.209</ele>
        <time>2022-08-24T16:59:45Z</time>
      </trkpt>
      <trkpt lat="44.10828" lon="6.34244">
        <ele>1268.309</ele>
        <time>2022-08-24T17:00:05Z</time>
      </trkpt>
      <trkpt lat="44.10811" lon="6.34242">
        <ele>1268.452</ele>
        <time>2022-08-24T17:00:25Z</time>
      </trkpt>
      <trkpt lat="44.10754" lon="6.34213">
        <ele>1267.192</ele>
        <time>2022-08-24T17:00:45Z</time>
      </trkpt>
      <trkpt lat="44.10708" lon="6.34178">
        <ele>1264.682</ele>
        <time>2022-08-24T17:01:05Z</time>
      </trkpt>
      <trkpt lat="44.10678" lon="6.34149">
        <ele>1263.187</ele>
        <time>2022-08-24T17:01:25Z</time>
      </trkpt>
      <trkpt lat="44.1067" lon="6.34149">
        <ele>1263.047</ele>
        <time>2022-08-24T17:01:45Z</time>
      </trkpt>
      <trkpt lat="44.10658" lon="6.34162">
        <ele>1262.922</ele>
        <time>2022-08-24T17:02:05Z</time>
      </trkpt>
      <trkpt lat="44.10649" lon="6.34183">
        <ele>1260.794</ele>
        <time>2022-08-24T17:02:25Z</time>
      </trkpt>
      <trkpt lat="44.10637" lon="6.34187">
        <ele>1259.222</ele>
        <time>2022-08-24T17:02:45Z</time>
      </trkpt>
      <trkpt lat="44.10628" lon="6.34181">
        <ele>1258.627</ele>
        <time>2022-08-24T17:03:05Z</time>
      </trkpt>
      <trkpt lat="44.10583" lon="6.34189">
        <ele>1254.338</ele>
        <time>2022-08-24T17:03:25Z</time>
      </trkpt>
      <trkpt lat="44.10564" lon="6.34185">
        <ele>1256.87</ele>
        <time>2022-08-24T17:03:45Z</time>
      </trkpt>
      <trkpt lat="44.10574" lon="6.34187">
        <ele>1259.317</ele>
        <time>2022-08-24T17:04:05Z</time>
      </trkpt>
      <trkpt lat="44.10616" lon="6.34144">
        <ele>1243.509</ele>
        <time>2022-08-24T17:04:25Z</time>
      </trkpt>
      <trkpt lat="44.10614" lon="6.34135">
        <ele>1243.144</ele>
        <time>2022-08-24T17:04:45Z</time>
      </trkpt>
      <trkpt lat="44.10585" lon="6.34139">
        <ele>1238.364</ele>
        <time>2022-08-24T17:05:05Z</time>
      </trkpt>
      <trkpt lat="44.10571" lon="6.34134">
        <ele>1237.424</ele>
        <time>2022-08-24T17:05:25Z</time>
      </trkpt>
      <trkpt lat="44.10572" lon="6.34124">
        <ele>1236.549</ele>
        <time>2022-08-24T17:05:45Z</time>
      </trkpt>
      <trkpt lat="44.10587" lon="6.34111">
        <ele>1233.679</ele>
        <time>2022-08-24T17:06:05Z</time>
      </trkpt>
      <trkpt lat="44.10587" lon="6.34103">
        <ele>1227.324</ele>
        <time>2022-08-24T17:06:25Z</time>
      </trkpt>
      <trkpt lat="44.10578" lon="6.34093">
        <ele>1227.386</ele>
        <time>2022-08-24T17:06:45Z</time>
      </trkpt>
      <trkpt lat="44.10557" lon="6.34094">
        <ele>1224.524</ele>
        <time>2022-08-24T17:07:05Z</time>
      </trkpt>
      <trkpt lat="44.10549" lon="6.34084">
        <ele>1221.439</ele>
        <time>2022-08-24T17:07:25Z</time>
      </trkpt>
      <trkpt lat="44.10542" lon="6.34058">
        <ele>1220.182</ele>
        <time>2022-08-24T17:07:45Z</time>
      </trkpt>
      <trkpt lat="44.10529" lon="6.34047">
        <ele>1218.343</ele>
        <time>2022-08-24T17:08:05Z</time>
      </trkpt>
      <trkpt lat="44.1052" lon="6.34027">
        <ele>1215.317</ele>
        <time>2022-08-24T17:08:25Z</time>
      </trkpt>
      <trkpt lat="44.10524" lon="6.34006">
        <ele>1212.509</ele>
        <time>2022-08-24T17:08:45Z</time>
      </trkpt>
      <trkpt lat="44.10532" lon="6.33991">
        <ele>1210.979</ele>
        <time>2022-08-24T17:09:05Z</time>
      </trkpt>
      <trkpt lat="44.10527" lon="6.3394">
        <ele>1207.359</ele>
        <time>2022-08-24T17:09:25Z</time>
      </trkpt>
      <trkpt lat="44.10523" lon="6.33922">
        <ele>1205.579</ele>
        <time>2022-08-24T17:09:45Z</time>
      </trkpt>
      <trkpt lat="44.10512" lon="6.3391">
        <ele>1203.214</ele>
        <time>2022-08-24T17:10:05Z</time>
      </trkpt>
      <trkpt lat="44.10511" lon="6.33892">
        <ele>1202.124</ele>
        <time>2022-08-24T17:10:25Z</time>
      </trkpt>
      <trkpt lat="44.10522" lon="6.33868">
        <ele>1201.349</ele>
        <time>2022-08-24T17:10:45Z</time>
      </trkpt>
      <trkpt lat="44.10522" lon="6.33852">
        <ele>1201.471</ele>
        <time>2022-08-24T17:11:05Z</time>
      </trkpt>
      <trkpt lat="44.10478" lon="6.33794">
        <ele>1202.289</ele>
        <time>2022-08-24T17:11:25Z</time>
      </trkpt>
      <trkpt lat="44.10473" lon="6.33795">
        <ele>1202.374</ele>
        <time>2022-08-24T17:11:45Z</time>
      </trkpt>
      <trkpt lat="44.10469" lon="6.33807">
        <ele>1202.423</ele>
        <time>2022-08-24T17:12:05Z</time>
      </trkpt>
      <trkpt lat="44.10471" lon="6.33819">
        <ele>1202.583</ele>
        <time>2022-08-24T17:12:25Z</time>
      </trkpt>
      <trkpt lat="44.10469" lon="6.33806">
        <ele>1203.011</ele>
        <time>2022-08-24T17:12:45Z</time>
      </trkpt>
      <trkpt lat="44.10475" lon="6.33838">
        <ele>1204.309</ele>
        <time>2022-08-24T17:13:05Z</time>
      </trkpt>
      <trkpt lat="44.10463" lon="6.33862">
        <ele>1207.243</ele>
        <time>2022-08-24T17:13:25Z</time>
      </trkpt>
      <trkpt lat="44.10456" lon="6.33885">
        <ele>1210.763</ele>
        <time>2022-08-24T17:13:45Z</time>
      </trkpt>
      <trkpt lat="44.10445" lon="6.33891">
        <ele>1213.943</ele>
        <time>2022-08-24T17:14:05Z</time>
      </trkpt>
      <trkpt lat="44.10432" lon="6.33837">
        <ele>1222.338</ele>
        <time>2022-08-24T17:14:25Z</time>
      </trkpt>
      <trkpt lat="44.10418" lon="6.33819">
        <ele>1223.818</ele>
        <time>2022-08-24T17:14:45Z</time>
      </trkpt>
      <trkpt lat="44.10397" lon="6.33798">
        <ele>1227.573</ele>
        <time>2022-08-24T17:15:05Z</time>
      </trkpt>
      <trkpt lat="44.10391" lon="6.33783">
        <ele>1230.815</ele>
        <time>2022-08-24T17:15:25Z</time>
      </trkpt>
      <trkpt lat="44.10375" lon="6.33757">
        <ele>1234.123</ele>
        <time>2022-08-24T17:15:45Z</time>
      </trkpt>
      <trkpt lat="44.10357" lon="6.33742">
        <ele>1238.128</ele>
        <time>2022-08-24T17:16:05Z</time>
      </trkpt>
      <trkpt lat="44.10355" lon="6.33725">
        <ele>1241.393</ele>
        <time>2022-08-24T17:16:25Z</time>
      </trkpt>
      <trkpt lat="44.10352" lon="6.33714">
        <ele>1242.765</ele>
        <time>2022-08-24T17:16:45Z</time>
      </trkpt>
      <trkpt lat="44.10344" lon="6.33707">
        <ele>1242.721</ele>
        <time>2022-08-24T17:17:05Z</time>
      </trkpt>
      <trkpt lat="44.10335" lon="6.33695">
        <ele>1244.709</ele>
        <time>2022-08-24T17:17:25Z</time>
      </trkpt>
      <trkpt lat="44.1032" lon="6.33666">
        <ele>1247.87</ele>
        <time>2022-08-24T17:17:45Z</time>
      </trkpt>
      <trkpt lat="44.10305" lon="6.33645">
        <ele>1249.99</ele>
        <time>2022-08-24T17:18:05Z</time>
      </trkpt>
      <trkpt lat="44.10305" lon="6.33639">
        <ele>1250.63</ele>
        <time>2022-08-24T17:18:25Z</time>
      </trkpt>
      <trkpt lat="44.10305" lon="6.33645">
        <ele>1250.665</ele>
        <time>2022-08-24T17:18:45Z</time>
      </trkpt>
      <trkpt lat="44.10305" lon="6.33632">
        <ele>1250.645</ele>
        <time>2022-08-24T17:19:05Z</time>
      </trkpt>
      <trkpt lat="44.10312" lon="6.33616">
        <ele>1252.79</ele>
        <time>2022-08-24T17:19:25Z</time>
      </trkpt>
      <trkpt lat="44.10303" lon="6.336">
        <ele>1255.132</ele>
        <time>2022-08-24T17:19:45Z</time>
      </trkpt>
      <trkpt lat="44.10309" lon="6.33587">
        <ele>1256.11</ele>
        <time>2022-08-24T17:20:05Z</time>
      </trkpt>
      <trkpt lat="44.10311" lon="6.33573">
        <ele>1259.185</ele>
        <time>2022-08-24T17:20:25Z</time>
      </trkpt>
      <trkpt lat="44.10319" lon="6.33566">
        <ele>1259.899</ele>
        <time>2022-08-24T17:20:45Z</time>
      </trkpt>
      <trkpt lat="44.10328" lon="6.33562">
        <ele>1261.507</ele>
        <time>2022-08-24T17:21:05Z</time>
      </trkpt>
      <trkpt lat="44.10346" lon="6.3356">
        <ele>1263.327</ele>
        <time>2022-08-24T17:21:25Z</time>
      </trkpt>
      <trkpt lat="44.10344" lon="6.33548">
        <ele>1265.109</ele>
        <time>2022-08-24T17:21:45Z</time>
      </trkpt>
      <trkpt lat="44.10339" lon="6.33542">
        <ele>1265.18</ele>
        <time>2022-08-24T17:22:05Z</time>
      </trkpt>
      <trkpt lat="44.10324" lon="6.33539">
        <ele>1267.15</ele>
        <time>2022-08-24T17:22:25Z</time>
      </trkpt>
      <trkpt lat="44.10308" lon="6.3354">
        <ele>1269.75</ele>
        <time>2022-08-24T17:22:45Z</time>
      </trkpt>
      <trkpt lat="44.10287" lon="6.33506">
        <ele>1274.325</ele>
        <time>2022-08-24T17:23:05Z</time>
      </trkpt>
      <trkpt lat="44.103" lon="6.33452">
        <ele>1271.585</ele>
        <time>2022-08-24T17:23:25Z</time>
      </trkpt>
      <trkpt lat="44.10311" lon="6.33432">
        <ele>1270.48</ele>
        <time>2022-08-24T17:23:45Z</time>
      </trkpt>
      <trkpt lat="44.10341" lon="6.33426">
        <ele>1265.112</ele>
        <time>2022-08-24T17:24:05Z</time>
      </trkpt>
      <trkpt lat="44.10343" lon="6.334">
        <ele>1263.57</ele>
        <time>2022-08-24T17:24:25Z</time>
      </trkpt>
      <trkpt lat="44.1033" lon="6.33373">
        <ele>1260.685</ele>
        <time>2022-08-24T17:24:45Z</time>
      </trkpt>
      <trkpt lat="44.1031" lon="6.33353">
        <ele>1257.826</ele>
        <time>2022-08-24T17:25:05Z</time>
      </trkpt>
      <trkpt lat="44.10307" lon="6.33345">
        <ele>1256.347</ele>
        <time>2022-08-24T17:25:25Z</time>
      </trkpt>
      <trkpt lat="44.10308" lon="6.33333">
        <ele>1256.311</ele>
        <time>2022-08-24T17:25:45Z</time>
      </trkpt>
      <trkpt lat="44.10364" lon="6.33311">
        <ele>1247.309</ele>
        <time>2022-08-24T17:26:05Z</time>
      </trkpt>
      <trkpt lat="44.10402" lon="6.33299">
        <ele>1243.683</ele>
        <time>2022-08-24T17:26:25Z</time>
      </trkpt>
      <trkpt lat="44.10421" lon="6.33281">
        <ele>1243.063</ele>
        <time>2022-08-24T17:26:45Z</time>
      </trkpt>
      <trkpt lat="44.10459" lon="6.33278">
        <ele>1238.093</ele>
        <time>2022-08-24T17:27:05Z</time>
      </trkpt>
      <trkpt lat="44.10477" lon="6.33256">
        <ele>1237.328</ele>
        <time>2022-08-24T17:27:25Z</time>
      </trkpt>
      <trkpt lat="44.10487" lon="6.33238">
        <ele>1236.228</ele>
        <time>2022-08-24T17:27:45Z</time>
      </trkpt>
      <trkpt lat="44.10491" lon="6.33225">
        <ele>1235.893</ele>
        <time>2022-08-24T17:28:05Z</time>
      </trkpt>
      <trkpt lat="44.10489" lon="6.33176">
        <ele>1230.415</ele>
        <time>2022-08-24T17:28:25Z</time>
      </trkpt>
      <trkpt lat="44.10502" lon="6.33085">
        <ele>1226.743</ele>
        <time>2022-08-24T17:28:45Z</time>
      </trkpt>
      <trkpt lat="44.10515" lon="6.32993">
        <ele>1223.588</ele>
        <time>2022-08-24T17:29:05Z</time>
      </trkpt>
      <trkpt lat="44.10528" lon="6.32967">
        <ele>1223.287</ele>
        <time>2022-08-24T17:29:25Z</time>
      </trkpt>
      <trkpt lat="44.10537" lon="6.32957">
        <ele>1222.642</ele>
        <time>2022-08-24T17:29:45Z</time>
      </trkpt>
      <trkpt lat="44.10531" lon="6.32951">
        <ele>1222.326</ele>
        <time>2022-08-24T17:30:05Z</time>
      </trkpt>
      <trkpt lat="44.10517" lon="6.32945">
        <ele>1219.009</ele>
        <time>2022-08-24T17:30:25Z</time>
      </trkpt>
      <trkpt lat="44.10512" lon="6.32932">
        <ele>1219.089</ele>
        <time>2022-08-24T17:30:45Z</time>
      </trkpt>
      <trkpt lat="44.10512" lon="6.3292">
        <ele>1216.849</ele>
        <time>2022-08-24T17:31:05Z</time>
      </trkpt>
      <trkpt lat="44.10504" lon="6.32877">
        <ele>1209.799</ele>
        <time>2022-08-24T17:31:25Z</time>
      </trkpt>
      <trkpt lat="44.10504" lon="6.32867">
        <ele>1209.384</ele>
        <time>2022-08-24T17:31:45Z</time>
      </trkpt>
      <trkpt lat="44.105" lon="6.3284">
        <ele>1207.144</ele>
        <time>2022-08-24T17:32:05Z</time>
      </trkpt>
      <trkpt lat="44.10504" lon="6.32819">
        <ele>1202.469</ele>
        <time>2022-08-24T17:32:25Z</time>
      </trkpt>
      <trkpt lat="44.10501" lon="6.32805">
        <ele>1199.581</ele>
        <time>2022-08-24T17:32:45Z</time>
      </trkpt>
      <trkpt lat="44.10505" lon="6.32771">
        <ele>1197.429</ele>
        <time>2022-08-24T17:33:05Z</time>
      </trkpt>
      <trkpt lat="44.10536" lon="6.32695">
        <ele>1185.774</ele>
        <time>2022-08-24T17:33:25Z</time>
      </trkpt>
      <trkpt lat="44.10554" lon="6.32671">
        <ele>1184.745</ele>
        <time>2022-08-24T17:33:45Z</time>
      </trkpt>
      <trkpt lat="44.10554" lon="6.3265">
        <ele>1182.647</ele>
        <time>2022-08-24T17:34:05Z</time>
      </trkpt>
      <trkpt lat="44.10547" lon="6.32629">
        <ele>1181.111</ele>
        <time>2022-08-24T17:34:25Z</time>
      </trkpt>
      <trkpt lat="44.10549" lon="6.32603">
        <ele>1179.809</ele>
        <time>2022-08-24T17:34:45Z</time>
      </trkpt>
      <trkpt lat="44.10535" lon="6.3253">
        <ele>1171.665</ele>
        <time>2022-08-24T17:35:05Z</time>
      </trkpt>
      <trkpt lat="44.1054" lon="6.32501">
        <ele>1170.375</ele>
        <time>2022-08-24T17:35:25Z</time>
      </trkpt>
      <trkpt lat="44.10539" lon="6.32485">
        <ele>1168.515</ele>
        <time>2022-08-24T17:35:45Z</time>
      </trkpt>
      <trkpt lat="44.10533" lon="6.3246">
        <ele>1167.11</ele>
        <time>2022-08-24T17:36:05Z</time>
      </trkpt>
      <trkpt lat="44.10527" lon="6.32449">
        <ele>1165.62</ele>
        <time>2022-08-24T17:36:25Z</time>
      </trkpt>
      <trkpt lat="44.10509" lon="6.32424">
        <ele>1162.915</ele>
        <time>2022-08-24T17:36:45Z</time>
      </trkpt>
      <trkpt lat="44.10511" lon="6.32394">
        <ele>1158.917</ele>
        <time>2022-08-24T17:37:05Z</time>
      </trkpt>
      <trkpt lat="44.10503" lon="6.32392">
        <ele>1153.865</ele>
        <time>2022-08-24T17:37:25Z</time>
      </trkpt>
      <trkpt lat="44.1049" lon="6.32395">
        <ele>1150.53</ele>
        <time>2022-08-24T17:37:45Z</time>
      </trkpt>
      <trkpt lat="44.10484" lon="6.3239">
        <ele>1148.063</ele>
        <time>2022-08-24T17:38:05Z</time>
      </trkpt>
      <trkpt lat="44.10477" lon="6.32377">
        <ele>1145.844</ele>
        <time>2022-08-24T17:38:25Z</time>
      </trkpt>
      <trkpt lat="44.10448" lon="6.32296">
        <ele>1134.518</ele>
        <time>2022-08-24T17:38:45Z</time>
      </trkpt>
      <trkpt lat="44.10436" lon="6.32275">
        <ele>1133.309</ele>
        <time>2022-08-24T17:39:05Z</time>
      </trkpt>
      <trkpt lat="44.10425" lon="6.32264">
        <ele>1130.227</ele>
        <time>2022-08-24T17:39:25Z</time>
      </trkpt>
      <trkpt lat="44.10413" lon="6.32259">
        <ele>1128.367</ele>
        <time>2022-08-24T17:39:45Z</time>
      </trkpt>
      <trkpt lat="44.10406" lon="6.32259">
        <ele>1123.667</ele>
        <time>2022-08-24T17:40:05Z</time>
      </trkpt>
      <trkpt lat="44.10388" lon="6.32266">
        <ele>1123.672</ele>
        <time>2022-08-24T17:40:25Z</time>
      </trkpt>
      <trkpt lat="44.10374" lon="6.32264">
        <ele>1117.892</ele>
        <time>2022-08-24T17:40:45Z</time>
      </trkpt>
      <trkpt lat="44.10367" lon="6.3226">
        <ele>1115.957</ele>
        <time>2022-08-24T17:41:05Z</time>
      </trkpt>
      <trkpt lat="44.10356" lon="6.32243">
        <ele>1115.969</ele>
        <time>2022-08-24T17:41:25Z</time>
      </trkpt>
      <trkpt lat="44.10346" lon="6.32233">
        <ele>1112.537</ele>
        <time>2022-08-24T17:41:45Z</time>
      </trkpt>
      <trkpt lat="44.10341" lon="6.32231">
        <ele>1111.822</ele>
        <time>2022-08-24T17:42:05Z</time>
      </trkpt>
      <trkpt lat="44.10319" lon="6.32243">
        <ele>1110.438</ele>
        <time>2022-08-24T17:42:25Z</time>
      </trkpt>
      <trkpt lat="44.10297" lon="6.32242">
        <ele>1107.17</ele>
        <time>2022-08-24T17:42:45Z</time>
      </trkpt>
      <trkpt lat="44.10291" lon="6.3224">
        <ele>1105.217</ele>
        <time>2022-08-24T17:43:05Z</time>
      </trkpt>
      <trkpt lat="44.10286" lon="6.32235">
        <ele>1105.209</ele>
        <time>2022-08-24T17:43:25Z</time>
      </trkpt>
      <trkpt lat="44.10281" lon="6.32222">
        <ele>1104.424</ele>
        <time>2022-08-24T17:43:45Z</time>
      </trkpt>
      <trkpt lat="44.10273" lon="6.32216">
        <ele>1102.834</ele>
        <time>2022-08-24T17:44:05Z</time>
      </trkpt>
      <trkpt lat="44.10263" lon="6.32213">
        <ele>1099.194</ele>
        <time>2022-08-24T17:44:25Z</time>
      </trkpt>
      <trkpt lat="44.10257" lon="6.32205">
        <ele>1098.299</ele>
        <time>2022-08-24T17:44:45Z</time>
      </trkpt>
      <trkpt lat="44.10241" lon="6.32159">
        <ele>1092.639</ele>
        <time>2022-08-24T17:45:05Z</time>
      </trkpt>
      <trkpt lat="44.10224" lon="6.32148">
        <ele>1092.554</ele>
        <time>2022-08-24T17:45:25Z</time>
      </trkpt>
      <trkpt lat="44.10241" lon="6.32159">
        <ele>1092.636</ele>
        <time>2022-08-24T17:45:45Z</time>
      </trkpt>
      <trkpt lat="44.10257" lon="6.32205">
        <ele>1098.194</ele>
        <time>2022-08-24T17:46:05Z</time>
      </trkpt>
      <trkpt lat="44.10263" lon="6.32213">
        <ele>1098.689</ele>
        <time>2022-08-24T17:46:25Z</time>
      </trkpt>
      <trkpt lat="44.10273" lon="6.32216">
        <ele>1099.176</ele>
        <time>2022-08-24T17:46:45Z</time>
      </trkpt>
      <trkpt lat="44.10279" lon="6.32221">
        <ele>1098.69</ele>
        <time>2022-08-24T17:47:05Z</time>
      </trkpt>
      <trkpt lat="44.10269" lon="6.32214">
        <ele>1100.119</ele>
        <time>2022-08-24T17:47:25Z</time>
      </trkpt>
      <trkpt lat="44.10263" lon="6.32213">
        <ele>1099.109</ele>
        <time>2022-08-24T17:47:45Z</time>
      </trkpt>
      <trkpt lat="44.10257" lon="6.32205">
        <ele>1097.368</ele>
        <time>2022-08-24T17:48:05Z</time>
      </trkpt>
      <trkpt lat="44.10241" lon="6.32159">
        <ele>1092.618</ele>
        <time>2022-08-24T17:48:25Z</time>
      </trkpt>
      <trkpt lat="44.10235" lon="6.32154">
        <ele>1092.548</ele>
        <time>2022-08-24T17:48:45Z</time>
      </trkpt>
      <trkpt lat="44.10222" lon="6.32147">
        <ele>1092.493</ele>
        <time>2022-08-24T17:49:05Z</time>
      </trkpt>
      <trkpt lat="44.10216" lon="6.32138">
        <ele>1092.433</ele>
        <time>2022-08-24T17:49:25Z</time>
      </trkpt>
      <trkpt lat="44.10215" lon="6.32123">
        <ele>1092.138</ele>
        <time>2022-08-24T17:49:45Z</time>
      </trkpt>
      <trkpt lat="44.10211" lon="6.32113">
        <ele>1091.28</ele>
        <time>2022-08-24T17:50:05Z</time>
      </trkpt>
      <trkpt lat="44.10192" lon="6.32089">
        <ele>1088.788</ele>
        <time>2022-08-24T17:50:25Z</time>
      </trkpt>
      <trkpt lat="44.10184" lon="6.32073">
        <ele>1086.813</ele>
        <time>2022-08-24T17:50:45Z</time>
      </trkpt>
      <trkpt lat="44.1018" lon="6.3207">
        <ele>1086.125</ele>
        <time>2022-08-24T17:51:05Z</time>
      </trkpt>
      <trkpt lat="44.10154" lon="6.32063">
        <ele>1082.926</ele>
        <time>2022-08-24T17:51:25Z</time>
      </trkpt>
      <trkpt lat="44.10147" lon="6.32059">
        <ele>1080.308</ele>
        <time>2022-08-24T17:51:45Z</time>
      </trkpt>
      <trkpt lat="44.10143" lon="6.32053">
        <ele>1080.109</ele>
        <time>2022-08-24T17:52:05Z</time>
      </trkpt>
      <trkpt lat="44.10138" lon="6.32038">
        <ele>1079.853</ele>
        <time>2022-08-24T17:52:25Z</time>
      </trkpt>
      <trkpt lat="44.10136" lon="6.32022">
        <ele>1078.693</ele>
        <time>2022-08-24T17:52:45Z</time>
      </trkpt>
      <trkpt lat="44.10137" lon="6.31974">
        <ele>1067.093</ele>
        <time>2022-08-24T17:53:05Z</time>
      </trkpt>
      <trkpt lat="44.10142" lon="6.3196">
        <ele>1065.698</ele>
        <time>2022-08-24T17:53:25Z</time>
      </trkpt>
      <trkpt lat="44.10155" lon="6.31951">
        <ele>1064.228</ele>
        <time>2022-08-24T17:53:45Z</time>
      </trkpt>
      <trkpt lat="44.10149" lon="6.31921">
        <ele>1055.883</ele>
        <time>2022-08-24T17:54:05Z</time>
      </trkpt>
      <trkpt lat="44.10166" lon="6.31921">
        <ele>1049.055</ele>
        <time>2022-08-24T17:54:25Z</time>
      </trkpt>
      <trkpt lat="44.10171" lon="6.31932">
        <ele>1046.313</ele>
        <time>2022-08-24T17:54:45Z</time>
      </trkpt>
      <trkpt lat="44.10181" lon="6.31939">
        <ele>1039.028</ele>
        <time>2022-08-24T17:55:05Z</time>
      </trkpt>
      <trkpt lat="44.10187" lon="6.3194">
        <ele>1037.379</ele>
        <time>2022-08-24T17:55:25Z</time>
      </trkpt>
      <trkpt lat="44.10196" lon="6.31936">
        <ele>1034.905</ele>
        <time>2022-08-24T17:55:45Z</time>
      </trkpt>
      <trkpt lat="44.10203" lon="6.31927">
        <ele>1032.925</ele>
        <time>2022-08-24T17:56:05Z</time>
      </trkpt>
      <trkpt lat="44.10211" lon="6.3191">
        <ele>1029.809</ele>
        <time>2022-08-24T17:56:25Z</time>
      </trkpt>
      <trkpt lat="44.1022" lon="6.31871">
        <ele>1025.718</ele>
        <time>2022-08-24T17:56:45Z</time>
      </trkpt>
      <trkpt lat="44.10227" lon="6.31857">
        <ele>1024.558</ele>
        <time>2022-08-24T17:57:05Z</time>
      </trkpt>
      <trkpt lat="44.10228" lon="6.31848">
        <ele>1023.398</ele>
        <time>2022-08-24T17:57:25Z</time>
      </trkpt>
      <trkpt lat="44.10218" lon="6.31836">
        <ele>1019.393</ele>
        <time>2022-08-24T17:57:45Z</time>
      </trkpt>
      <trkpt lat="44.10223" lon="6.31819">
        <ele>1017.393</ele>
        <time>2022-08-24T17:58:05Z</time>
      </trkpt>
      <trkpt lat="44.10219" lon="6.31799">
        <ele>1018.018</ele>
        <time>2022-08-24T17:58:25Z</time>
      </trkpt>
      <trkpt lat="44.1022" lon="6.31782">
        <ele>1019.49</ele>
        <time>2022-08-24T17:58:45Z</time>
      </trkpt>
      <trkpt lat="44.10214" lon="6.31757">
        <ele>1021.258</ele>
        <time>2022-08-24T17:59:05Z</time>
      </trkpt>
      <trkpt lat="44.10217" lon="6.31746">
        <ele>1022.443</ele>
        <time>2022-08-24T17:59:25Z</time>
      </trkpt>
      <trkpt lat="44.10259" lon="6.31712">
        <ele>1027.567</ele>
        <time>2022-08-24T17:59:45Z</time>
      </trkpt>
      <trkpt lat="44.10282" lon="6.3171">
        <ele>1028.481</ele>
        <time>2022-08-24T18:00:05Z</time>
      </trkpt>
      <trkpt lat="44.10299" lon="6.31727">
        <ele>1029.619</ele>
        <time>2022-08-24T18:00:25Z</time>
      </trkpt>
      <trkpt lat="44.10313" lon="6.31771">
        <ele>1030.709</ele>
        <time>2022-08-24T18:00:45Z</time>
      </trkpt>
      <trkpt lat="44.10335" lon="6.31814">
        <ele>1033.717</ele>
        <time>2022-08-24T18:01:05Z</time>
      </trkpt>
      <trkpt lat="44.10348" lon="6.31826">
        <ele>1034.587</ele>
        <time>2022-08-24T18:01:25Z</time>
      </trkpt>
      <trkpt lat="44.10366" lon="6.31825">
        <ele>1036.427</ele>
        <time>2022-08-24T18:01:45Z</time>
      </trkpt>
      <trkpt lat="44.10374" lon="6.31808">
        <ele>1038.062</ele>
        <time>2022-08-24T18:02:05Z</time>
      </trkpt>
      <trkpt lat="44.10396" lon="6.3179">
        <ele>1039.922</ele>
        <time>2022-08-24T18:02:25Z</time>
      </trkpt>
      <trkpt lat="44.10443" lon="6.31778">
        <ele>1044.937</ele>
        <time>2022-08-24T18:02:45Z</time>
      </trkpt>
      <trkpt lat="44.10456" lon="6.31782">
        <ele>1046.589</ele>
        <time>2022-08-24T18:03:05Z</time>
      </trkpt>
      <trkpt lat="44.10496" lon="6.31825">
        <ele>1051.897</ele>
        <time>2022-08-24T18:03:25Z</time>
      </trkpt>
      <trkpt lat="44.10502" lon="6.31826">
        <ele>1052.122</ele>
        <time>2022-08-24T18:03:45Z</time>
      </trkpt>
      <trkpt lat="44.10532" lon="6.3184">
        <ele>1056.179</ele>
        <time>2022-08-24T18:04:05Z</time>
      </trkpt>
      <trkpt lat="44.10536" lon="6.31844">
        <ele>1056.405</ele>
        <time>2022-08-24T18:04:25Z</time>
      </trkpt>
      <trkpt lat="44.10585" lon="6.31846">
        <ele>1061.325</ele>
        <time>2022-08-24T18:04:45Z</time>
      </trkpt>
      <trkpt lat="44.10587" lon="6.31843">
        <ele>1061.509</ele>
        <time>2022-08-24T18:05:05Z</time>
      </trkpt>
      <trkpt lat="44.10617" lon="6.31841">
        <ele>1065.018</ele>
        <time>2022-08-24T18:05:25Z</time>
      </trkpt>
      <trkpt lat="44.10619" lon="6.31838">
        <ele>1065.048</ele>
        <time>2022-08-24T18:05:45Z</time>
      </trkpt>
      <trkpt lat="44.10651" lon="6.31826">
        <ele>1071.688</ele>
        <time>2022-08-24T18:06:05Z</time>
      </trkpt>
      <trkpt lat="44.10658" lon="6.31818">
        <ele>1071.673</ele>
        <time>2022-08-24T18:06:25Z</time>
      </trkpt>
      <trkpt lat="44.1068" lon="6.31804">
        <ele>1073.663</ele>
        <time>2022-08-24T18:06:45Z</time>
      </trkpt>
      <trkpt lat="44.10688" lon="6.31803">
        <ele>1076.398</ele>
        <time>2022-08-24T18:07:05Z</time>
      </trkpt>
      <trkpt lat="44.10706" lon="6.31806">
        <ele>1077.01</ele>
        <time>2022-08-24T18:07:25Z</time>
      </trkpt>
      <trkpt lat="44.10736" lon="6.31786">
        <ele>1084.748</ele>
        <time>2022-08-24T18:07:45Z</time>
      </trkpt>
      <trkpt lat="44.10756" lon="6.31785">
        <ele>1085.773</ele>
        <time>2022-08-24T18:08:05Z</time>
      </trkpt>
      <trkpt lat="44.10765" lon="6.3179">
        <ele>1087.064</ele>
        <time>2022-08-24T18:08:25Z</time>
      </trkpt>
      <trkpt lat="44.10786" lon="6.31809">
        <ele>1088.306</ele>
        <time>2022-08-24T18:08:45Z</time>
      </trkpt>
      <trkpt lat="44.108" lon="6.31841">
        <ele>1090.216</ele>
        <time>2022-08-24T18:09:05Z</time>
      </trkpt>
      <trkpt lat="44.10808" lon="6.31881">
        <ele>1092.309</ele>
        <time>2022-08-24T18:09:25Z</time>
      </trkpt>
      <trkpt lat="44.10808" lon="6.319">
        <ele>1092.517</ele>
        <time>2022-08-24T18:09:45Z</time>
      </trkpt>
      <trkpt lat="44.10817" lon="6.31924">
        <ele>1092.977</ele>
        <time>2022-08-24T18:10:05Z</time>
      </trkpt>
      <trkpt lat="44.1082" lon="6.31977">
        <ele>1094.957</ele>
        <time>2022-08-24T18:10:25Z</time>
      </trkpt>
      <trkpt lat="44.10817" lon="6.31999">
        <ele>1095.352</ele>
        <time>2022-08-24T18:10:45Z</time>
      </trkpt>
      <trkpt lat="44.10823" lon="6.32034">
        <ele>1096.172</ele>
        <time>2022-08-24T18:11:05Z</time>
      </trkpt>
      <trkpt lat="44.10832" lon="6.32059">
        <ele>1096.747</ele>
        <time>2022-08-24T18:11:25Z</time>
      </trkpt>
      <trkpt lat="44.10835" lon="6.32089">
        <ele>1097.959</ele>
        <time>2022-08-24T18:11:45Z</time>
      </trkpt>
      <trkpt lat="44.10847" lon="6.32102">
        <ele>1099.017</ele>
        <time>2022-08-24T18:12:05Z</time>
      </trkpt>
      <trkpt lat="44.10866" lon="6.32115">
        <ele>1099.542</ele>
        <time>2022-08-24T18:12:25Z</time>
      </trkpt>
      <trkpt lat="44.1092" lon="6.32052">
        <ele>1098.374</ele>
        <time>2022-08-24T18:12:45Z</time>
      </trkpt>
      <trkpt lat="44.10933" lon="6.32061">
        <ele>1098.056</ele>
        <time>2022-08-24T18:13:05Z</time>
      </trkpt>
      <trkpt lat="44.10963" lon="6.32096">
        <ele>1094.621</ele>
        <time>2022-08-24T18:13:25Z</time>
      </trkpt>
      <trkpt lat="44.10985" lon="6.32109">
        <ele>1094.409</ele>
        <time>2022-08-24T18:13:45Z</time>
      </trkpt>
      <trkpt lat="44.11002" lon="6.32116">
        <ele>1094.198</ele>
        <time>2022-08-24T18:14:05Z</time>
      </trkpt>
      <trkpt lat="44.11026" lon="6.32118">
        <ele>1093.898</ele>
        <time>2022-08-24T18:14:25Z</time>
      </trkpt>
      <trkpt lat="44.11034" lon="6.32115">
        <ele>1093.468</ele>
        <time>2022-08-24T18:14:45Z</time>
      </trkpt>
      <trkpt lat="44.11051" lon="6.32103">
        <ele>1092.653</ele>
        <time>2022-08-24T18:15:05Z</time>
      </trkpt>
      <trkpt lat="44.11059" lon="6.32104">
        <ele>1091.673</ele>
        <time>2022-08-24T18:15:25Z</time>
      </trkpt>
      <trkpt lat="44.11063" lon="6.32111">
        <ele>1091.288</ele>
        <time>2022-08-24T18:15:45Z</time>
      </trkpt>
      <trkpt lat="44.11065" lon="6.32121">
        <ele>1091.07</ele>
        <time>2022-08-24T18:16:05Z</time>
      </trkpt>
      <trkpt lat="44.11064" lon="6.32141">
        <ele>1089.318</ele>
        <time>2022-08-24T18:16:25Z</time>
      </trkpt>
      <trkpt lat="44.1106" lon="6.32163">
        <ele>1087.833</ele>
        <time>2022-08-24T18:16:45Z</time>
      </trkpt>
      <trkpt lat="44.11059" lon="6.32232">
        <ele>1081.647</ele>
        <time>2022-08-24T18:17:05Z</time>
      </trkpt>
      <trkpt lat="44.11052" lon="6.3225">
        <ele>1080.929</ele>
        <time>2022-08-24T18:17:25Z</time>
      </trkpt>
      <trkpt lat="44.11052" lon="6.32256">
        <ele>1080.221</ele>
        <time>2022-08-24T18:17:45Z</time>
      </trkpt>
      <trkpt lat="44.11058" lon="6.32265">
        <ele>1079.709</ele>
        <time>2022-08-24T18:18:05Z</time>
      </trkpt>
      <trkpt lat="44.11072" lon="6.32274">
        <ele>1078.625</ele>
        <time>2022-08-24T18:18:25Z</time>
      </trkpt>
      <trkpt lat="44.11081" lon="6.32291">
        <ele>1077.385</ele>
        <time>2022-08-24T18:18:45Z</time>
      </trkpt>
      <trkpt lat="44.11085" lon="6.32293">
        <ele>1077.035</ele>
        <time>2022-08-24T18:19:05Z</time>
      </trkpt>
      <trkpt lat="44.11098" lon="6.32288">
        <ele>1076.95</ele>
        <time>2022-08-24T18:19:25Z</time>
      </trkpt>
      <trkpt lat="44.11111" lon="6.32291">
        <ele>1076.94</ele>
        <time>2022-08-24T18:19:45Z</time>
      </trkpt>
      <trkpt lat="44.11125" lon="6.323">
        <ele>1077.855</ele>
        <time>2022-08-24T18:20:05Z</time>
      </trkpt>
      <trkpt lat="44.11127" lon="6.32304">
        <ele>1078.357</ele>
        <time>2022-08-24T18:20:25Z</time>
      </trkpt>
      <trkpt lat="44.11143" lon="6.32315">
        <ele>1078.335</ele>
        <time>2022-08-24T18:20:45Z</time>
      </trkpt>
      <trkpt lat="44.11148" lon="6.32326">
        <ele>1075.24</ele>
        <time>2022-08-24T18:21:05Z</time>
      </trkpt>
      <trkpt lat="44.11158" lon="6.32361">
        <ele>1070.336</ele>
        <time>2022-08-24T18:21:25Z</time>
      </trkpt>
      <trkpt lat="44.11161" lon="6.32365">
        <ele>1070.317</ele>
        <time>2022-08-24T18:21:45Z</time>
      </trkpt>
      <trkpt lat="44.11164" lon="6.32367">
        <ele>1070.318</ele>
        <time>2022-08-24T18:22:05Z</time>
      </trkpt>
      <trkpt lat="44.11173" lon="6.32367">
        <ele>1070.109</ele>
        <time>2022-08-24T18:22:25Z</time>
      </trkpt>
      <trkpt lat="44.1119" lon="6.32373">
        <ele>1069.734</ele>
        <time>2022-08-24T18:22:45Z</time>
      </trkpt>
      <trkpt lat="44.11207" lon="6.32376">
        <ele>1069.354</ele>
        <time>2022-08-24T18:23:05Z</time>
      </trkpt>
      <trkpt lat="44.11235" lon="6.32375">
        <ele>1070.244</ele>
        <time>2022-08-24T18:23:25Z</time>
      </trkpt>
      <trkpt lat="44.11261" lon="6.32361">
        <ele>1070.849</ele>
        <time>2022-08-24T18:23:45Z</time>
      </trkpt>
      <trkpt lat="44.11266" lon="6.32363">
        <ele>1070.869</ele>
        <time>2022-08-24T18:24:05Z</time>
      </trkpt>
      <trkpt lat="44.11307" lon="6.32349">
        <ele>1072.914</ele>
        <time>2022-08-24T18:24:25Z</time>
      </trkpt>
      <trkpt lat="44.11327" lon="6.32329">
        <ele>1073.576</ele>
        <time>2022-08-24T18:24:45Z</time>
      </trkpt>
      <trkpt lat="44.11341" lon="6.3232">
        <ele>1074.754</ele>
        <time>2022-08-24T18:25:05Z</time>
      </trkpt>
      <trkpt lat="44.11345" lon="6.32308">
        <ele>1075.359</ele>
        <time>2022-08-24T18:25:25Z</time>
      </trkpt>
      <trkpt lat="44.11374" lon="6.32308">
        <ele>1080.634</ele>
        <time>2022-08-24T18:25:45Z</time>
      </trkpt>
      <trkpt lat="44.11378" lon="6.32303">
        <ele>1080.955</ele>
        <time>2022-08-24T18:26:05Z</time>
      </trkpt>
      <trkpt lat="44.11376" lon="6.32296">
        <ele>1081.21</ele>
        <time>2022-08-24T18:26:25Z</time>
      </trkpt>
      <trkpt lat="44.11389" lon="6.3229">
        <ele>1081.309</ele>
        <time>2022-08-24T18:26:45Z</time>
      </trkpt>
      <trkpt lat="44.11401" lon="6.32301">
        <ele>1080.884</ele>
        <time>2022-08-24T18:27:05Z</time>
      </trkpt>
      <trkpt lat="44.114" lon="6.32321">
        <ele>1079.364</ele>
        <time>2022-08-24T18:27:25Z</time>
      </trkpt>
      <trkpt lat="44.11397" lon="6.32339">
        <ele>1077.274</ele>
        <time>2022-08-24T18:27:45Z</time>
      </trkpt>
      <trkpt lat="44.11393" lon="6.32344">
        <ele>1076.079</ele>
        <time>2022-08-24T18:28:05Z</time>
      </trkpt>
      <trkpt lat="44.11391" lon="6.32358">
        <ele>1075.169</ele>
        <time>2022-08-24T18:28:25Z</time>
      </trkpt>
      <trkpt lat="44.114" lon="6.32382">
        <ele>1069.784</ele>
        <time>2022-08-24T18:28:45Z</time>
      </trkpt>
      <trkpt lat="44.11418" lon="6.32389">
        <ele>1064.516</ele>
        <time>2022-08-24T18:29:05Z</time>
      </trkpt>
      <trkpt lat="44.11434" lon="6.32412">
        <ele>1061.144</ele>
        <time>2022-08-24T18:29:25Z</time>
      </trkpt>
      <trkpt lat="44.1145" lon="6.32427">
        <ele>1058.529</ele>
        <time>2022-08-24T18:29:45Z</time>
      </trkpt>
      <trkpt lat="44.1146" lon="6.32433">
        <ele>1057.365</ele>
        <time>2022-08-24T18:30:05Z</time>
      </trkpt>
      <trkpt lat="44.11477" lon="6.32438">
        <ele>1056.668</ele>
        <time>2022-08-24T18:30:25Z</time>
      </trkpt>
      <trkpt lat="44.11482" lon="6.32451">
        <ele>1055.514</ele>
        <time>2022-08-24T18:30:45Z</time>
      </trkpt>
      <trkpt lat="44.1149" lon="6.32448">
        <ele>1055.009</ele>
        <time>2022-08-24T18:31:05Z</time>
      </trkpt>
      <trkpt lat="44.11496" lon="6.32451">
        <ele>1054.357</ele>
        <time>2022-08-24T18:31:25Z</time>
      </trkpt>
      <trkpt lat="44.11501" lon="6.32449">
        <ele>1052.777</ele>
        <time>2022-08-24T18:31:45Z</time>
      </trkpt>
      <trkpt lat="44.11507" lon="6.32459">
        <ele>1051.217</ele>
        <time>2022-08-24T18:32:05Z</time>
      </trkpt>
      <trkpt lat="44.11509" lon="6.32463">
        <ele>1050.652</ele>
        <time>2022-08-24T18:32:25Z</time>
      </trkpt>
      <trkpt lat="44.11544" lon="6.32438">
        <ele>1036.112</ele>
        <time>2022-08-24T18:32:45Z</time>
      </trkpt>
      <trkpt lat="44.11556" lon="6.32436">
        <ele>1034.947</ele>
        <time>2022-08-24T18:33:05Z</time>
      </trkpt>
      <trkpt lat="44.11571" lon="6.3242">
        <ele>1032.679</ele>
        <time>2022-08-24T18:33:25Z</time>
      </trkpt>
      <trkpt lat="44.11576" lon="6.32407">
        <ele>1031.147</ele>
        <time>2022-08-24T18:33:45Z</time>
      </trkpt>
      <trkpt lat="44.11585" lon="6.32398">
        <ele>1030.742</ele>
        <time>2022-08-24T18:34:05Z</time>
      </trkpt>
      <trkpt lat="44.11589" lon="6.32398">
        <ele>1030.245</ele>
        <time>2022-08-24T18:34:25Z</time>
      </trkpt>
      <trkpt lat="44.11597" lon="6.32417">
        <ele>1029.647</ele>
        <time>2022-08-24T18:34:45Z</time>
      </trkpt>
      <trkpt lat="44.11607" lon="6.32422">
        <ele>1027.011</ele>
        <time>2022-08-24T18:35:05Z</time>
      </trkpt>
      <trkpt lat="44.11638" lon="6.32422">
        <ele>1019.109</ele>
        <time>2022-08-24T18:35:25Z</time>
      </trkpt>
      <trkpt lat="44.11651" lon="6.32426">
        <ele>1018.225</ele>
        <time>2022-08-24T18:35:45Z</time>
      </trkpt>
      <trkpt lat="44.11655" lon="6.32421">
        <ele>1017.345</ele>
        <time>2022-08-24T18:36:05Z</time>
      </trkpt>
      <trkpt lat="44.1166" lon="6.32405">
        <ele>1016.825</ele>
        <time>2022-08-24T18:36:25Z</time>
      </trkpt>
      <trkpt lat="44.11659" lon="6.32387">
        <ele>1016.02</ele>
        <time>2022-08-24T18:36:45Z</time>
      </trkpt>
      <trkpt lat="44.11661" lon="6.32362">
        <ele>1013.81</ele>
        <time>2022-08-24T18:37:05Z</time>
      </trkpt>
      <trkpt lat="44.11666" lon="6.3236">
        <ele>1013.325</ele>
        <time>2022-08-24T18:37:25Z</time>
      </trkpt>
      <trkpt lat="44.11678" lon="6.32359">
        <ele>1013.317</ele>
        <time>2022-08-24T18:37:45Z</time>
      </trkpt>
      <trkpt lat="44.11705" lon="6.32336">
        <ele>1010.695</ele>
        <time>2022-08-24T18:38:05Z</time>
      </trkpt>
      <trkpt lat="44.11748" lon="6.32323">
        <ele>1007.71</ele>
        <time>2022-08-24T18:38:25Z</time>
      </trkpt>
      <trkpt lat="44.11772" lon="6.32326">
        <ele>1007.334</ele>
        <time>2022-08-24T18:38:45Z</time>
      </trkpt>
      <trkpt lat="44.11786" lon="6.32319">
        <ele>1006.555</ele>
        <time>2022-08-24T18:39:05Z</time>
      </trkpt>
      <trkpt lat="44.11774" lon="6.32303">
        <ele>1005.51</ele>
        <time>2022-08-24T18:39:25Z</time>
      </trkpt>
      <trkpt lat="44.11768" lon="6.32304">
        <ele>1005.009</ele>
        <time>2022-08-24T18:39:45Z</time>
      </trkpt>
      <trkpt lat="44.11754" lon="6.323">
        <ele>1003.574</ele>
        <time>2022-08-24T18:40:05Z</time>
      </trkpt>
      <trkpt lat="44.11755" lon="6.32295">
        <ele>1003.264</ele>
        <time>2022-08-24T18:40:25Z</time>
      </trkpt>
      <trkpt lat="44.1177" lon="6.3228">
        <ele>1002.914</ele>
        <time>2022-08-24T18:40:45Z</time>
      </trkpt>
      <trkpt lat="44.11812" lon="6.32291">
        <ele>998.889</ele>
        <time>2022-08-24T18:41:05Z</time>
      </trkpt>
      <trkpt lat="44.1182" lon="6.32285">
        <ele>998.729</ele>
        <time>2022-08-24T18:41:25Z</time>
      </trkpt>
      <trkpt lat="44.11826" lon="6.32268">
        <ele>998.694</ele>
        <time>2022-08-24T18:41:45Z</time>
      </trkpt>
      <trkpt lat="44.11845" lon="6.32233">
        <ele>996.716</ele>
        <time>2022-08-24T18:42:05Z</time>
      </trkpt>
      <trkpt lat="44.11871" lon="6.32213">
        <ele>998.774</ele>
        <time>2022-08-24T18:42:25Z</time>
      </trkpt>
      <trkpt lat="44.11882" lon="6.3221">
        <ele>1000.099</ele>
        <time>2022-08-24T18:42:45Z</time>
      </trkpt>
      <trkpt lat="44.1189" lon="6.32201">
        <ele>1001.295</ele>
        <time>2022-08-24T18:43:05Z</time>
      </trkpt>
      <trkpt lat="44.11886" lon="6.32187">
        <ele>1002.449</ele>
        <time>2022-08-24T18:43:25Z</time>
      </trkpt>
      <trkpt lat="44.11874" lon="6.32168">
        <ele>1003.023</ele>
        <time>2022-08-24T18:43:45Z</time>
      </trkpt>
      <trkpt lat="44.11868" lon="6.32146">
        <ele>1003.109</ele>
        <time>2022-08-24T18:44:05Z</time>
      </trkpt>
      <trkpt lat="44.11871" lon="6.32137">
        <ele>1003.19</ele>
        <time>2022-08-24T18:44:25Z</time>
      </trkpt>
      <trkpt lat="44.11869" lon="6.3215">
        <ele>1003.19</ele>
        <time>2022-08-24T18:44:45Z</time>
      </trkpt>
      <trkpt lat="44.11874" lon="6.32168">
        <ele>1003.17</ele>
        <time>2022-08-24T18:45:05Z</time>
      </trkpt>
      <trkpt lat="44.11886" lon="6.32187">
        <ele>1003.155</ele>
        <time>2022-08-24T18:45:25Z</time>
      </trkpt>
      <trkpt lat="44.1189" lon="6.32201">
        <ele>1003.055</ele>
        <time>2022-08-24T18:45:45Z</time>
      </trkpt>
      <trkpt lat="44.11882" lon="6.3221">
        <ele>1002.96</ele>
        <time>2022-08-24T18:46:05Z</time>
      </trkpt>
      <trkpt lat="44.11871" lon="6.32213">
        <ele>1002.412</ele>
        <time>2022-08-24T18:46:25Z</time>
      </trkpt>
      <trkpt lat="44.11845" lon="6.32233">
        <ele>996.93</ele>
        <time>2022-08-24T18:46:45Z</time>
      </trkpt>
      <trkpt lat="44.11826" lon="6.32268">
        <ele>997.475</ele>
        <time>2022-08-24T18:47:05Z</time>
      </trkpt>
      <trkpt lat="44.1182" lon="6.32285">
        <ele>997.826</ele>
        <time>2022-08-24T18:47:25Z</time>
      </trkpt>
      <trkpt lat="44.11812" lon="6.32291">
        <ele>998.247</ele>
        <time>2022-08-24T18:47:45Z</time>
      </trkpt>
      <trkpt lat="44.1177" lon="6.3228">
        <ele>999.811</ele>
        <time>2022-08-24T18:48:05Z</time>
      </trkpt>
      <trkpt lat="44.11755" lon="6.32295">
        <ele>1000.409</ele>
        <time>2022-08-24T18:48:25Z</time>
      </trkpt>
      <trkpt lat="44.11754" lon="6.323">
        <ele>1001.063</ele>
        <time>2022-08-24T18:48:45Z</time>
      </trkpt>
      <trkpt lat="44.1176" lon="6.32301">
        <ele>1002.653</ele>
        <time>2022-08-24T18:49:05Z</time>
      </trkpt>
      <trkpt lat="44.11762" lon="6.32299">
        <ele>1002.613</ele>
        <time>2022-08-24T18:49:25Z</time>
      </trkpt>
      <trkpt lat="44.11777" lon="6.32318">
        <ele>1002.628</ele>
        <time>2022-08-24T18:49:45Z</time>
      </trkpt>
      <trkpt lat="44.11786" lon="6.32314">
        <ele>985.788</ele>
        <time>2022-08-24T18:50:05Z</time>
      </trkpt>
      <trkpt lat="44.11782" lon="6.32314">
        <ele>984.683</ele>
        <time>2022-08-24T18:50:25Z</time>
      </trkpt>
      <trkpt lat="44.11774" lon="6.32303">
        <ele>985.765</ele>
        <time>2022-08-24T18:50:45Z</time>
      </trkpt>
      <trkpt lat="44.11768" lon="6.32305">
        <ele>994.863</ele>
        <time>2022-08-24T18:51:05Z</time>
      </trkpt>
      <trkpt lat="44.11764" lon="6.32302">
        <ele>1004.748</ele>
        <time>2022-08-24T18:51:25Z</time>
      </trkpt>
      <trkpt lat="44.11754" lon="6.323">
        <ele>1004.932</ele>
        <time>2022-08-24T18:51:45Z</time>
      </trkpt>
      <trkpt lat="44.11755" lon="6.32295">
        <ele>1004.792</ele>
        <time>2022-08-24T18:52:05Z</time>
      </trkpt>
      <trkpt lat="44.1177" lon="6.3228">
        <ele>1003.611</ele>
        <time>2022-08-24T18:52:25Z</time>
      </trkpt>
      <trkpt lat="44.11812" lon="6.32291">
        <ele>998.809</ele>
        <time>2022-08-24T18:52:45Z</time>
      </trkpt>
      <trkpt lat="44.1182" lon="6.32285">
        <ele>998.734</ele>
        <time>2022-08-24T18:53:05Z</time>
      </trkpt>
      <trkpt lat="44.11826" lon="6.32268">
        <ele>998.644</ele>
        <time>2022-08-24T18:53:25Z</time>
      </trkpt>
      <trkpt lat="44.11845" lon="6.32233">
        <ele>996.834</ele>
        <time>2022-08-24T18:53:45Z</time>
      </trkpt>
      <trkpt lat="44.11871" lon="6.32213">
        <ele>998.099</ele>
        <time>2022-08-24T18:54:05Z</time>
      </trkpt>
      <trkpt lat="44.11882" lon="6.3221">
        <ele>998.789</ele>
        <time>2022-08-24T18:54:25Z</time>
      </trkpt>
      <trkpt lat="44.1189" lon="6.32201">
        <ele>999.414</ele>
        <time>2022-08-24T18:54:45Z</time>
      </trkpt>
      <trkpt lat="44.11886" lon="6.32187">
        <ele>1001.166</ele>
        <time>2022-08-24T18:55:05Z</time>
      </trkpt>
      <trkpt lat="44.11874" lon="6.32168">
        <ele>1002.854</ele>
        <time>2022-08-24T18:55:25Z</time>
      </trkpt>
      <trkpt lat="44.11868" lon="6.32146">
        <ele>1003.019</ele>
        <time>2022-08-24T18:55:45Z</time>
      </trkpt>
      <trkpt lat="44.11871" lon="6.32137">
        <ele>1003.082</ele>
        <time>2022-08-24T18:56:05Z</time>
      </trkpt>
      <trkpt lat="44.11877" lon="6.32133">
        <ele>1003.043</ele>
        <time>2022-08-24T18:56:25Z</time>
      </trkpt>
      <trkpt lat="44.11889" lon="6.32139">
        <ele>1003.017</ele>
        <time>2022-08-24T18:56:45Z</time>
      </trkpt>
      <trkpt lat="44.11912" lon="6.32132">
        <ele>999.009</ele>
        <time>2022-08-24T18:57:05Z</time>
      </trkpt>
      <trkpt lat="44.11912" lon="6.32125">
        <ele>996.119</ele>
        <time>2022-08-24T18:57:25Z</time>
      </trkpt>
      <trkpt lat="44.1193" lon="6.3211">
        <ele>996.139</ele>
        <time>2022-08-24T18:57:45Z</time>
      </trkpt>
      <trkpt lat="44.11944" lon="6.32112">
        <ele>984.869</ele>
        <time>2022-08-24T18:58:05Z</time>
      </trkpt>
      <trkpt lat="44.11954" lon="6.32087">
        <ele>980.874</ele>
        <time>2022-08-24T18:58:25Z</time>
      </trkpt>
      <trkpt lat="44.11958" lon="6.32084">
        <ele>978.244</ele>
        <time>2022-08-24T18:58:45Z</time>
      </trkpt>
      <trkpt lat="44.11983" lon="6.32106">
        <ele>970.629</ele>
        <time>2022-08-24T18:59:05Z</time>
      </trkpt>
      <trkpt lat="44.12" lon="6.32109">
        <ele>969.691</ele>
        <time>2022-08-24T18:59:25Z</time>
      </trkpt>
      <trkpt lat="44.12007" lon="6.32108">
        <ele>968.659</ele>
        <time>2022-08-24T18:59:45Z</time>
      </trkpt>
      <trkpt lat="44.12021" lon="6.32116">
        <ele>968.614</ele>
        <time>2022-08-24T19:00:05Z</time>
      </trkpt>
      <trkpt lat="44.12035" lon="6.32143">
        <ele>969.697</ele>
        <time>2022-08-24T19:00:25Z</time>
      </trkpt>
      <trkpt lat="44.12053" lon="6.32149">
        <ele>969.223</ele>
        <time>2022-08-24T19:00:45Z</time>
      </trkpt>
      <trkpt lat="44.12069" lon="6.32172">
        <ele>964.825</ele>
        <time>2022-08-24T19:01:05Z</time>
      </trkpt>
      <trkpt lat="44.12079" lon="6.32174">
        <ele>960.409</ele>
        <time>2022-08-24T19:01:25Z</time>
      </trkpt>
      <trkpt lat="44.12086" lon="6.32172">
        <ele>959.82</ele>
        <time>2022-08-24T19:01:45Z</time>
      </trkpt>
      <trkpt lat="44.12119" lon="6.32187">
        <ele>954.66</ele>
        <time>2022-08-24T19:02:05Z</time>
      </trkpt>
      <trkpt lat="44.12136" lon="6.32184">
        <ele>954.65</ele>
        <time>2022-08-24T19:02:25Z</time>
      </trkpt>
      <trkpt lat="44.12149" lon="6.3217">
        <ele>954.755</ele>
        <time>2022-08-24T19:02:45Z</time>
      </trkpt>
      <trkpt lat="44.12162" lon="6.32162">
        <ele>954.655</ele>
        <time>2022-08-24T19:03:05Z</time>
      </trkpt>
      <trkpt lat="44.1218" lon="6.32198">
        <ele>954.48</ele>
        <time>2022-08-24T19:03:25Z</time>
      </trkpt>
      <trkpt lat="44.12191" lon="6.32225">
        <ele>953.412</ele>
        <time>2022-08-24T19:03:45Z</time>
      </trkpt>
      <trkpt lat="44.12184" lon="6.32243">
        <ele>951.19</ele>
        <time>2022-08-24T19:04:05Z</time>
      </trkpt>
      <trkpt lat="44.12186" lon="6.32272">
        <ele>946.885</ele>
        <time>2022-08-24T19:04:25Z</time>
      </trkpt>
      <trkpt lat="44.12201" lon="6.32277">
        <ele>941.643</ele>
        <time>2022-08-24T19:04:45Z</time>
      </trkpt>
      <trkpt lat="44.12203" lon="6.32295">
        <ele>938.664</ele>
        <time>2022-08-24T19:05:05Z</time>
      </trkpt>
      <trkpt lat="44.12207" lon="6.32302">
        <ele>937.71</ele>
        <time>2022-08-24T19:05:25Z</time>
      </trkpt>
      <trkpt lat="44.12203" lon="6.32295">
        <ele>937.509</ele>
        <time>2022-08-24T19:05:45Z</time>
      </trkpt>
      <trkpt lat="44.12201" lon="6.32277">
        <ele>937.125</ele>
        <time>2022-08-24T19:06:05Z</time>
      </trkpt>
      <trkpt lat="44.12186" lon="6.32272">
        <ele>934.715</ele>
        <time>2022-08-24T19:06:25Z</time>
      </trkpt>
      <trkpt lat="44.12184" lon="6.32243">
        <ele>935.845</ele>
        <time>2022-08-24T19:06:45Z</time>
      </trkpt>
      <trkpt lat="44.1217" lon="6.32275">
        <ele>939.29</ele>
        <time>2022-08-24T19:07:05Z</time>
      </trkpt>
      <trkpt lat="44.12158" lon="6.32278">
        <ele>939.73</ele>
        <time>2022-08-24T19:07:25Z</time>
      </trkpt>
      <trkpt lat="44.12151" lon="6.32273">
        <ele>938.035</ele>
        <time>2022-08-24T19:07:45Z</time>
      </trkpt>
      <trkpt lat="44.12125" lon="6.32295">
        <ele>932.097</ele>
        <time>2022-08-24T19:08:05Z</time>
      </trkpt>
      <trkpt lat="44.12118" lon="6.32325">
        <ele>930.435</ele>
        <time>2022-08-24T19:08:25Z</time>
      </trkpt>
      <trkpt lat="44.12107" lon="6.32349">
        <ele>927.29</ele>
        <time>2022-08-24T19:08:45Z</time>
      </trkpt>
      <trkpt lat="44.12105" lon="6.32366">
        <ele>924.951</ele>
        <time>2022-08-24T19:09:05Z</time>
      </trkpt>
      <trkpt lat="44.1209" lon="6.32415">
        <ele>921.401</ele>
        <time>2022-08-24T19:09:25Z</time>
      </trkpt>
      <trkpt lat="44.12084" lon="6.32456">
        <ele>918.711</ele>
        <time>2022-08-24T19:09:45Z</time>
      </trkpt>
      <trkpt lat="44.12083" lon="6.32474">
        <ele>917.109</ele>
        <time>2022-08-24T19:10:05Z</time>
      </trkpt>
      <trkpt lat="44.12086" lon="6.32483">
        <ele>915.546</ele>
        <time>2022-08-24T19:10:25Z</time>
      </trkpt>
      <trkpt lat="44.1209" lon="6.32485">
        <ele>915.566</ele>
        <time>2022-08-24T19:10:45Z</time>
      </trkpt>
      <trkpt lat="44.12091" lon="6.32488">
        <ele>915.516</ele>
        <time>2022-08-24T19:11:05Z</time>
      </trkpt>
      <trkpt lat="44.12089" lon="6.32498">
        <ele>915.591</ele>
        <time>2022-08-24T19:11:25Z</time>
      </trkpt>
      <trkpt lat="44.12092" lon="6.32506">
        <ele>914.551</ele>
        <time>2022-08-24T19:11:45Z</time>
      </trkpt>
      <trkpt lat="44.12106" lon="6.32531">
        <ele>911.816</ele>
        <time>2022-08-24T19:12:05Z</time>
      </trkpt>
      <trkpt lat="44.12117" lon="6.32543">
        <ele>911.078</ele>
        <time>2022-08-24T19:12:25Z</time>
      </trkpt>
      <trkpt lat="44.12117" lon="6.32565">
        <ele>909.436</ele>
        <time>2022-08-24T19:12:45Z</time>
      </trkpt>
      <trkpt lat="44.1211" lon="6.32587">
        <ele>907.621</ele>
        <time>2022-08-24T19:13:05Z</time>
      </trkpt>
      <trkpt lat="44.12102" lon="6.32597">
        <ele>907.297</ele>
        <time>2022-08-24T19:13:25Z</time>
      </trkpt>
      <trkpt lat="44.12088" lon="6.32602">
        <ele>906.923</ele>
        <time>2022-08-24T19:13:45Z</time>
      </trkpt>
      <trkpt lat="44.12058" lon="6.32592">
        <ele>906.225</ele>
        <time>2022-08-24T19:14:05Z</time>
      </trkpt>
      <trkpt lat="44.12052" lon="6.32601">
        <ele>906.209</ele>
        <time>2022-08-24T19:14:25Z</time>
      </trkpt>
      <trkpt lat="44.12051" lon="6.32618">
        <ele>906.28</ele>
        <time>2022-08-24T19:14:45Z</time>
      </trkpt>
      <trkpt lat="44.12026" lon="6.32647">
        <ele>903.17</ele>
        <time>2022-08-24T19:15:05Z</time>
      </trkpt>
      <trkpt lat="44.12036" lon="6.3266">
        <ele>902.93</ele>
        <time>2022-08-24T19:15:25Z</time>
      </trkpt>
      <trkpt lat="44.12049" lon="6.32671">
        <ele>903.535</ele>
        <time>2022-08-24T19:15:45Z</time>
      </trkpt>
      <trkpt lat="44.12067" lon="6.32694">
        <ele>905.675</ele>
        <time>2022-08-24T19:16:05Z</time>
      </trkpt>
      <trkpt lat="44.12088" lon="6.32708">
        <ele>907.74</ele>
        <time>2022-08-24T19:16:25Z</time>
      </trkpt>
      <trkpt lat="44.12093" lon="6.32744">
        <ele>908.662</ele>
        <time>2022-08-24T19:16:45Z</time>
      </trkpt>
      <trkpt lat="44.12099" lon="6.3275">
        <ele>908.82</ele>
        <time>2022-08-24T19:17:05Z</time>
      </trkpt>
      <trkpt lat="44.12105" lon="6.32762">
        <ele>908.875</ele>
        <time>2022-08-24T19:17:25Z</time>
      </trkpt>
      <trkpt lat="44.12114" lon="6.32813">
        <ele>908.831</ele>
        <time>2022-08-24T19:17:45Z</time>
      </trkpt>
      <trkpt lat="44.12127" lon="6.32839">
        <ele>908.761</ele>
        <time>2022-08-24T19:18:05Z</time>
      </trkpt>
      <trkpt lat="44.12135" lon="6.32847">
        <ele>908.607</ele>
        <time>2022-08-24T19:18:25Z</time>
      </trkpt>
      <trkpt lat="44.12155" lon="6.32861">
        <ele>908.609</ele>
        <time>2022-08-24T19:18:45Z</time>
      </trkpt>
      <trkpt lat="44.1216" lon="6.32869">
        <ele>908.464</ele>
        <time>2022-08-24T19:19:05Z</time>
      </trkpt>
      <trkpt lat="44.12161" lon="6.32878">
        <ele>908.324</ele>
        <time>2022-08-24T19:19:25Z</time>
      </trkpt>
      <trkpt lat="44.12146" lon="6.32932">
        <ele>908.084</ele>
        <time>2022-08-24T19:19:45Z</time>
      </trkpt>
      <trkpt lat="44.12156" lon="6.32996">
        <ele>907.929</ele>
        <time>2022-08-24T19:20:05Z</time>
      </trkpt>
      <trkpt lat="44.12166" lon="6.33059">
        <ele>908.249</ele>
        <time>2022-08-24T19:20:25Z</time>
      </trkpt>
      <trkpt lat="44.12167" lon="6.33077">
        <ele>908.234</ele>
        <time>2022-08-24T19:20:45Z</time>
      </trkpt>
      <trkpt lat="44.12159" lon="6.33085">
        <ele>908.246</ele>
        <time>2022-08-24T19:21:05Z</time>
      </trkpt>
      <trkpt lat="44.12122" lon="6.3311">
        <ele>909.264</ele>
        <time>2022-08-24T19:21:25Z</time>
      </trkpt>
      <trkpt lat="44.12114" lon="6.33119">
        <ele>909.319</ele>
        <time>2022-08-24T19:21:45Z</time>
      </trkpt>
      <trkpt lat="44.12104" lon="6.33152">
        <ele>910.136</ele>
        <time>2022-08-24T19:22:05Z</time>
      </trkpt>
      <trkpt lat="44.12104" lon="6.33171">
        <ele>911.217</ele>
        <time>2022-08-24T19:22:25Z</time>
      </trkpt>
      <trkpt lat="44.12106" lon="6.33182">
        <ele>911.718</ele>
        <time>2022-08-24T19:22:45Z</time>
      </trkpt>
      <trkpt lat="44.12115" lon="6.33193">
        <ele>912.609</ele>
        <time>2022-08-24T19:23:05Z</time>
      </trkpt>
      <trkpt lat="44.12138" lon="6.33215">
        <ele>917.234</ele>
        <time>2022-08-24T19:23:25Z</time>
      </trkpt>
      <trkpt lat="44.12149" lon="6.33231">
        <ele>918.554</ele>
        <time>2022-08-24T19:23:45Z</time>
      </trkpt>
      <trkpt lat="44.12168" lon="6.33265">
        <ele>920.754</ele>
        <time>2022-08-24T19:24:05Z</time>
      </trkpt>
      <trkpt lat="44.12214" lon="6.33307">
        <ele>925.559</ele>
        <time>2022-08-24T19:24:25Z</time>
      </trkpt>
      <trkpt lat="44.12236" lon="6.33317">
        <ele>926.059</ele>
        <time>2022-08-24T19:24:45Z</time>
      </trkpt>
      <trkpt lat="44.12237" lon="6.33318">
        <ele>926.514</ele>
        <time>2022-08-24T19:25:05Z</time>
      </trkpt>
      <trkpt lat="44.12263" lon="6.33325">
        <ele>927.676</ele>
        <time>2022-08-24T19:25:25Z</time>
      </trkpt>
      <trkpt lat="44.1228" lon="6.33327">
        <ele>929.374</ele>
        <time>2022-08-24T19:25:45Z</time>
      </trkpt>
      <trkpt lat="44.12307" lon="6.33313">
        <ele>933.019</ele>
        <time>2022-08-24T19:26:05Z</time>
      </trkpt>
      <trkpt lat="44.12321" lon="6.33316">
        <ele>933.584</ele>
        <time>2022-08-24T19:26:25Z</time>
      </trkpt>
      <trkpt lat="44.1234" lon="6.33327">
        <ele>935.607</ele>
        <time>2022-08-24T19:26:45Z</time>
      </trkpt>
      <trkpt lat="44.12357" lon="6.33331">
        <ele>937.417</ele>
        <time>2022-08-24T19:27:05Z</time>
      </trkpt>
      <trkpt lat="44.1237" lon="6.33346">
        <ele>935.309</ele>
        <time>2022-08-24T19:27:25Z</time>
      </trkpt>
      <trkpt lat="44.12384" lon="6.33341">
        <ele>932.929</ele>
        <time>2022-08-24T19:27:45Z</time>
      </trkpt>
      <trkpt lat="44.12393" lon="6.33331">
        <ele>932.979</ele>
        <time>2022-08-24T19:28:05Z</time>
      </trkpt>
      <trkpt lat="44.12401" lon="6.33318">
        <ele>931.339</ele>
        <time>2022-08-24T19:28:25Z</time>
      </trkpt>
      <trkpt lat="44.12404" lon="6.33308">
        <ele>931.374</ele>
        <time>2022-08-24T19:28:45Z</time>
      </trkpt>
      <trkpt lat="44.1242" lon="6.33228">
        <ele>927.514</ele>
        <time>2022-08-24T19:29:05Z</time>
      </trkpt>
      <trkpt lat="44.12421" lon="6.33207">
        <ele>927.559</ele>
        <time>2022-08-24T19:29:25Z</time>
      </trkpt>
      <trkpt lat="44.12418" lon="6.33188">
        <ele>926.931</ele>
        <time>2022-08-24T19:29:45Z</time>
      </trkpt>
      <trkpt lat="44.1242" lon="6.33179">
        <ele>926.359</ele>
        <time>2022-08-24T19:30:05Z</time>
      </trkpt>
      <trkpt lat="44.12426" lon="6.33173">
        <ele>925.844</ele>
        <time>2022-08-24T19:30:25Z</time>
      </trkpt>
      <trkpt lat="44.12453" lon="6.33154">
        <ele>923.768</ele>
        <time>2022-08-24T19:30:45Z</time>
      </trkpt>
      <trkpt lat="44.12458" lon="6.33147">
        <ele>923.642</ele>
        <time>2022-08-24T19:31:05Z</time>
      </trkpt>
      <trkpt lat="44.12455" lon="6.33123">
        <ele>923.526</ele>
        <time>2022-08-24T19:31:25Z</time>
      </trkpt>
      <trkpt lat="44.12459" lon="6.33115">
        <ele>922.409</ele>
        <time>2022-08-24T19:31:45Z</time>
      </trkpt>
      <trkpt lat="44.12519" lon="6.33049">
        <ele>915.997</ele>
        <time>2022-08-24T19:32:05Z</time>
      </trkpt>
      <trkpt lat="44.12524" lon="6.33046">
        <ele>915.967</ele>
        <time>2022-08-24T19:32:25Z</time>
      </trkpt>
      <trkpt lat="44.12529" lon="6.33047">
        <ele>915.947</ele>
        <time>2022-08-24T19:32:45Z</time>
      </trkpt>
      <trkpt lat="44.12536" lon="6.33051">
        <ele>915.262</ele>
        <time>2022-08-24T19:33:05Z</time>
      </trkpt>
      <trkpt lat="44.12543" lon="6.33051">
        <ele>914.562</ele>
        <time>2022-08-24T19:33:25Z</time>
      </trkpt>
      <trkpt lat="44.12582" lon="6.33016">
        <ele>912.157</ele>
        <time>2022-08-24T19:33:45Z</time>
      </trkpt>
      <trkpt lat="44.12602" lon="6.32993">
        <ele>911.789</ele>
        <time>2022-08-24T19:34:05Z</time>
      </trkpt>
      <trkpt lat="44.12611" lon="6.3299">
        <ele>910.997</ele>
        <time>2022-08-24T19:34:25Z</time>
      </trkpt>
      <trkpt lat="44.12618" lon="6.32986">
        <ele>910.662</ele>
        <time>2022-08-24T19:34:45Z</time>
      </trkpt>
      <trkpt lat="44.12632" lon="6.32943">
        <ele>908.957</ele>
        <time>2022-08-24T19:35:05Z</time>
      </trkpt>
      <trkpt lat="44.12631" lon="6.3293">
        <ele>908.7</ele>
        <time>2022-08-24T19:35:25Z</time>
      </trkpt>
      <trkpt lat="44.12634" lon="6.32922">
        <ele>908.52</ele>
        <time>2022-08-24T19:35:45Z</time>
      </trkpt>
      <trkpt lat="44.12639" lon="6.32917">
        <ele>908.209</ele>
        <time>2022-08-24T19:36:05Z</time>
      </trkpt>
      <trkpt lat="44.12648" lon="6.32913">
        <ele>907.986</ele>
        <time>2022-08-24T19:36:25Z</time>
      </trkpt>
      <trkpt lat="44.1267" lon="6.3291">
        <ele>906.466</ele>
        <time>2022-08-24T19:36:45Z</time>
      </trkpt>
      <trkpt lat="44.1268" lon="6.32915">
        <ele>905.216</ele>
        <time>2022-08-24T19:37:05Z</time>
      </trkpt>
      <trkpt lat="44.12686" lon="6.32931">
        <ele>904.311</ele>
        <time>2022-08-24T19:37:25Z</time>
      </trkpt>
      <trkpt lat="44.12726" lon="6.32965">
        <ele>901.761</ele>
        <time>2022-08-24T19:37:45Z</time>
      </trkpt>
      <trkpt lat="44.12734" lon="6.32965">
        <ele>901.766</ele>
        <time>2022-08-24T19:38:05Z</time>
      </trkpt>
      <trkpt lat="44.12743" lon="6.32951">
        <ele>901.738</ele>
        <time>2022-08-24T19:38:25Z</time>
      </trkpt>
      <trkpt lat="44.12752" lon="6.32946">
        <ele>901.216</ele>
        <time>2022-08-24T19:38:45Z</time>
      </trkpt>
      <trkpt lat="44.12763" lon="6.32947">
        <ele>900.741</ele>
        <time>2022-08-24T19:39:05Z</time>
      </trkpt>
      <trkpt lat="44.12777" lon="6.32957">
        <ele>899.246</ele>
        <time>2022-08-24T19:39:25Z</time>
      </trkpt>
      <trkpt lat="44.12784" lon="6.32958">
        <ele>898.788</ele>
        <time>2022-08-24T19:39:45Z</time>
      </trkpt>
      <trkpt lat="44.12793" lon="6.32956">
        <ele>898.016</ele>
        <time>2022-08-24T19:40:05Z</time>
      </trkpt>
      <trkpt lat="44.12809" lon="6.32947">
        <ele>898.009</ele>
        <time>2022-08-24T19:40:25Z</time>
      </trkpt>
      <trkpt lat="44.12819" lon="6.32945">
        <ele>896.695</ele>
        <time>2022-08-24T19:40:45Z</time>
      </trkpt>
      <trkpt lat="44.12841" lon="6.32951">
        <ele>895.845</ele>
        <time>2022-08-24T19:41:05Z</time>
      </trkpt>
      <trkpt lat="44.12861" lon="6.32946">
        <ele>894.835</ele>
        <time>2022-08-24T19:41:25Z</time>
      </trkpt>
      <trkpt lat="44.12869" lon="6.32946">
        <ele>893.43</ele>
        <time>2022-08-24T19:41:45Z</time>
      </trkpt>
      <trkpt lat="44.12873" lon="6.32951">
        <ele>892.28</ele>
        <time>2022-08-24T19:42:05Z</time>
      </trkpt>
      <trkpt lat="44.12874" lon="6.32972">
        <ele>892.255</ele>
        <time>2022-08-24T19:42:25Z</time>
      </trkpt>
      <trkpt lat="44.12876" lon="6.32982">
        <ele>892.227</ele>
        <time>2022-08-24T19:42:45Z</time>
      </trkpt>
      <trkpt lat="44.12881" lon="6.32986">
        <ele>892.285</ele>
        <time>2022-08-24T19:43:05Z</time>
      </trkpt>
      <trkpt lat="44.12895" lon="6.32982">
        <ele>890.57</ele>
        <time>2022-08-24T19:43:25Z</time>
      </trkpt>
      <trkpt lat="44.12907" lon="6.32985">
        <ele>890.529</ele>
        <time>2022-08-24T19:43:45Z</time>
      </trkpt>
      <trkpt lat="44.12957" lon="6.33003">
        <ele>885.7</ele>
        <time>2022-08-24T19:44:05Z</time>
      </trkpt>
      <trkpt lat="44.12963" lon="6.33011">
        <ele>885.72</ele>
        <time>2022-08-24T19:44:25Z</time>
      </trkpt>
      <trkpt lat="44.12967" lon="6.33021">
        <ele>885.709</ele>
        <time>2022-08-24T19:44:45Z</time>
      </trkpt>
      <trkpt lat="44.12969" lon="6.33034">
        <ele>885.743</ele>
        <time>2022-08-24T19:45:05Z</time>
      </trkpt>
      <trkpt lat="44.12975" lon="6.33055">
        <ele>884.743</ele>
        <time>2022-08-24T19:45:25Z</time>
      </trkpt>
      <trkpt lat="44.12974" lon="6.33067">
        <ele>884.123</ele>
        <time>2022-08-24T19:45:45Z</time>
      </trkpt>
      <trkpt lat="44.12969" lon="6.33077">
        <ele>884.158</ele>
        <time>2022-08-24T19:46:05Z</time>
      </trkpt>
      <trkpt lat="44.12967" lon="6.33087">
        <ele>882.818</ele>
        <time>2022-08-24T19:46:25Z</time>
      </trkpt>
      <trkpt lat="44.12968" lon="6.33094">
        <ele>881.583</ele>
        <time>2022-08-24T19:46:45Z</time>
      </trkpt>
      <trkpt lat="44.12973" lon="6.33103">
        <ele>881.535</ele>
        <time>2022-08-24T19:47:05Z</time>
      </trkpt>
      <trkpt lat="44.1297" lon="6.33125">
        <ele>881.163</ele>
        <time>2022-08-24T19:47:25Z</time>
      </trkpt>
      <trkpt lat="44.12967" lon="6.33133">
        <ele>879.598</ele>
        <time>2022-08-24T19:47:45Z</time>
      </trkpt>
      <trkpt lat="44.12959" lon="6.33137">
        <ele>878.821</ele>
        <time>2022-08-24T19:48:05Z</time>
      </trkpt>
      <trkpt lat="44.12953" lon="6.33137">
        <ele>878.541</ele>
        <time>2022-08-24T19:48:25Z</time>
      </trkpt>
      <trkpt lat="44.12945" lon="6.33142">
        <ele>877.805</ele>
        <time>2022-08-24T19:48:45Z</time>
      </trkpt>
      <trkpt lat="44.12943" lon="6.33152">
        <ele>877.309</ele>
        <time>2022-08-24T19:49:05Z</time>
      </trkpt>
      <trkpt lat="44.12944" lon="6.33161">
        <ele>876.983</ele>
        <time>2022-08-24T19:49:25Z</time>
      </trkpt>
      <trkpt lat="44.12968" lon="6.33187">
        <ele>874.853</ele>
        <time>2022-08-24T19:49:45Z</time>
      </trkpt>
      <trkpt lat="44.1297" lon="6.33202">
        <ele>874.613</ele>
        <time>2022-08-24T19:50:05Z</time>
      </trkpt>
      <trkpt lat="44.12967" lon="6.33211">
        <ele>874.458</ele>
        <time>2022-08-24T19:50:25Z</time>
      </trkpt>
      <trkpt lat="44.1296" lon="6.33222">
        <ele>874.428</ele>
        <time>2022-08-24T19:50:45Z</time>
      </trkpt>
      <trkpt lat="44.12954" lon="6.33236">
        <ele>874.193</ele>
        <time>2022-08-24T19:51:05Z</time>
      </trkpt>
      <trkpt lat="44.12949" lon="6.33259">
        <ele>873.555</ele>
        <time>2022-08-24T19:51:25Z</time>
      </trkpt>
      <trkpt lat="44.12949" lon="6.33274">
        <ele>873.323</ele>
        <time>2022-08-24T19:51:45Z</time>
      </trkpt>
      <trkpt lat="44.12952" lon="6.33284">
        <ele>873.358</ele>
        <time>2022-08-24T19:52:05Z</time>
      </trkpt>
      <trkpt lat="44.12959" lon="6.33289">
        <ele>873.252</ele>
        <time>2022-08-24T19:52:25Z</time>
      </trkpt>
      <trkpt lat="44.12965" lon="6.33289">
        <ele>873.153</ele>
        <time>2022-08-24T19:52:45Z</time>
      </trkpt>
      <trkpt lat="44.12974" lon="6.33282">
        <ele>873.008</ele>
        <time>2022-08-24T19:53:05Z</time>
      </trkpt>
      <trkpt lat="44.12989" lon="6.33257">
        <ele>872.509</ele>
        <time>2022-08-24T19:53:25Z</time>
      </trkpt>
      <trkpt lat="44.13002" lon="6.3324">
        <ele>871.886</ele>
        <time>2022-08-24T19:53:45Z</time>
      </trkpt>
      <trkpt lat="44.13019" lon="6.33229">
        <ele>870.636</ele>
        <time>2022-08-24T19:54:05Z</time>
      </trkpt>
      <trkpt lat="44.13064" lon="6.33179">
        <ele>865.716</ele>
        <time>2022-08-24T19:54:25Z</time>
      </trkpt>
      <trkpt lat="44.13089" lon="6.33159">
        <ele>863.211</ele>
        <time>2022-08-24T19:54:45Z</time>
      </trkpt>
      <trkpt lat="44.1313" lon="6.33135">
        <ele>861.291</ele>
        <time>2022-08-24T19:55:05Z</time>
      </trkpt>
      <trkpt lat="44.13165" lon="6.33103">
        <ele>859.476</ele>
        <time>2022-08-24T19:55:25Z</time>
      </trkpt>
      <trkpt lat="44.13179" lon="6.3308">
        <ele>858.418</ele>
        <time>2022-08-24T19:55:45Z</time>
      </trkpt>
      <trkpt lat="44.13187" lon="6.33075">
        <ele>856.536</ele>
        <time>2022-08-24T19:56:05Z</time>
      </trkpt>
      <trkpt lat="44.1322" lon="6.33074">
        <ele>854.411</ele>
        <time>2022-08-24T19:56:25Z</time>
      </trkpt>
      <trkpt lat="44.13249" lon="6.33091">
        <ele>852.422</ele>
        <time>2022-08-24T19:56:45Z</time>
      </trkpt>
      <trkpt lat="44.13263" lon="6.33095">
        <ele>851.362</ele>
        <time>2022-08-24T19:57:05Z</time>
      </trkpt>
      <trkpt lat="44.13292" lon="6.33095">
        <ele>849.708</ele>
        <time>2022-08-24T19:57:25Z</time>
      </trkpt>
      <trkpt lat="44.13321" lon="6.3309">
        <ele>847.709</ele>
        <time>2022-08-24T19:57:45Z</time>
      </trkpt>
      <trkpt lat="44.13328" lon="6.33094">
        <ele>847.453</ele>
        <time>2022-08-24T19:58:05Z</time>
      </trkpt>
      <trkpt lat="44.13332" lon="6.33105">
        <ele>847.133</ele>
        <time>2022-08-24T19:58:25Z</time>
      </trkpt>
      <trkpt lat="44.13336" lon="6.3311">
        <ele>846.773</ele>
        <time>2022-08-24T19:58:45Z</time>
      </trkpt>
      <trkpt lat="44.13343" lon="6.33108">
        <ele>846.358</ele>
        <time>2022-08-24T19:59:05Z</time>
      </trkpt>
      <trkpt lat="44.13355" lon="6.33097">
        <ele>845.568</ele>
        <time>2022-08-24T19:59:25Z</time>
      </trkpt>
      <trkpt lat="44.13398" lon="6.33082">
        <ele>841.843</ele>
        <time>2022-08-24T19:59:45Z</time>
      </trkpt>
      <trkpt lat="44.13401" lon="6.33075">
        <ele>841.685</ele>
        <time>2022-08-24T20:00:05Z</time>
      </trkpt>
      <trkpt lat="44.13394" lon="6.33072">
        <ele>841.423</ele>
        <time>2022-08-24T20:00:25Z</time>
      </trkpt>
      <trkpt lat="44.13368" lon="6.33079">
        <ele>839.558</ele>
        <time>2022-08-24T20:00:45Z</time>
      </trkpt>
      <trkpt lat="44.13361" lon="6.33077">
        <ele>838.543</ele>
        <time>2022-08-24T20:01:05Z</time>
      </trkpt>
      <trkpt lat="44.13336" lon="6.33049">
        <ele>836.664</ele>
        <time>2022-08-24T20:01:25Z</time>
      </trkpt>
      <trkpt lat="44.13334" lon="6.3304">
        <ele>836.51</ele>
        <time>2022-08-24T20:01:45Z</time>
      </trkpt>
      <trkpt lat="44.13335" lon="6.33034">
        <ele>836.409</ele>
        <time>2022-08-24T20:02:05Z</time>
      </trkpt>
      <trkpt lat="44.13354" lon="6.32997">
        <ele>836.035</ele>
        <time>2022-08-24T20:02:25Z</time>
      </trkpt>
      <trkpt lat="44.1336" lon="6.32994">
        <ele>835.995</ele>
        <time>2022-08-24T20:02:45Z</time>
      </trkpt>
      <trkpt lat="44.13374" lon="6.33001">
        <ele>835.825</ele>
        <time>2022-08-24T20:03:05Z</time>
      </trkpt>
      <trkpt lat="44.13401" lon="6.33007">
        <ele>834.98</ele>
        <time>2022-08-24T20:03:25Z</time>
      </trkpt>
      <trkpt lat="44.13417" lon="6.33015">
        <ele>834.23</ele>
        <time>2022-08-24T20:03:45Z</time>
      </trkpt>
      <trkpt lat="44.13426" lon="6.33027">
        <ele>833.025</ele>
        <time>2022-08-24T20:04:05Z</time>
      </trkpt>
      <trkpt lat="44.13449" lon="6.33066">
        <ele>830.497</ele>
        <time>2022-08-24T20:04:25Z</time>
      </trkpt>
      <trkpt lat="44.13455" lon="6.33073">
        <ele>830.365</ele>
        <time>2022-08-24T20:04:45Z</time>
      </trkpt>
      <trkpt lat="44.1346" lon="6.33074">
        <ele>830.24</ele>
        <time>2022-08-24T20:05:05Z</time>
      </trkpt>
      <trkpt lat="44.13465" lon="6.33071">
        <ele>830.183</ele>
        <time>2022-08-24T20:05:25Z</time>
      </trkpt>
      <trkpt lat="44.1347" lon="6.33061">
        <ele>829.825</ele>
        <time>2022-08-24T20:05:45Z</time>
      </trkpt>
      <trkpt lat="44.13478" lon="6.33029">
        <ele>827.817</ele>
        <time>2022-08-24T20:06:05Z</time>
      </trkpt>
      <trkpt lat="44.13492" lon="6.33001">
        <ele>825.609</ele>
        <time>2022-08-24T20:06:25Z</time>
      </trkpt>
      <trkpt lat="44.13495" lon="6.32992">
        <ele>824.299</ele>
        <time>2022-08-24T20:06:45Z</time>
      </trkpt>
      <trkpt lat="44.13493" lon="6.32975">
        <ele>823.819</ele>
        <time>2022-08-24T20:07:05Z</time>
      </trkpt>
      <trkpt lat="44.13482" lon="6.32955">
        <ele>822.279</ele>
        <time>2022-08-24T20:07:25Z</time>
      </trkpt>
      <trkpt lat="44.13496" lon="6.32921">
        <ele>819.974</ele>
        <time>2022-08-24T20:07:45Z</time>
      </trkpt>
      <trkpt lat="44.13512" lon="6.32895">
        <ele>819.554</ele>
        <time>2022-08-24T20:08:05Z</time>
      </trkpt>
      <trkpt lat="44.13529" lon="6.32834">
        <ele>815.429</ele>
        <time>2022-08-24T20:08:25Z</time>
      </trkpt>
      <trkpt lat="44.1353" lon="6.32821">
        <ele>815.121</ele>
        <time>2022-08-24T20:08:45Z</time>
      </trkpt>
      <trkpt lat="44.1353" lon="6.3282">
        <ele>814.819</ele>
        <time>2022-08-24T20:09:05Z</time>
      </trkpt>
      <trkpt lat="44.13529" lon="6.3281">
        <ele>814.894</ele>
        <time>2022-08-24T20:09:25Z</time>
      </trkpt>
      <trkpt lat="44.13515" lon="6.32771">
        <ele>810.743</ele>
        <time>2022-08-24T20:09:45Z</time>
      </trkpt>
      <trkpt lat="44.13509" lon="6.32745">
        <ele>810.364</ele>
        <time>2022-08-24T20:10:05Z</time>
      </trkpt>
      <trkpt lat="44.13493" lon="6.32702">
        <ele>806.11</ele>
        <time>2022-08-24T20:10:25Z</time>
      </trkpt>
      <trkpt lat="44.13489" lon="6.32676">
        <ele>806.109</ele>
        <time>2022-08-24T20:10:45Z</time>
      </trkpt>
      <trkpt lat="44.13491" lon="6.32655">
        <ele>805.455</ele>
        <time>2022-08-24T20:11:05Z</time>
      </trkpt>
      <trkpt lat="44.13495" lon="6.32644">
        <ele>804.765</ele>
        <time>2022-08-24T20:11:25Z</time>
      </trkpt>
      <trkpt lat="44.13506" lon="6.32626">
        <ele>804.745</ele>
        <time>2022-08-24T20:11:45Z</time>
      </trkpt>
      <trkpt lat="44.13512" lon="6.3259">
        <ele>801.16</ele>
        <time>2022-08-24T20:12:05Z</time>
      </trkpt>
      <trkpt lat="44.13506" lon="6.3254">
        <ele>801.62</ele>
        <time>2022-08-24T20:12:25Z</time>
      </trkpt>
      <trkpt lat="44.13499" lon="6.32522">
        <ele>802.375</ele>
        <time>2022-08-24T20:12:45Z</time>
      </trkpt>
      <trkpt lat="44.13488" lon="6.32511">
        <ele>803.737</ele>
        <time>2022-08-24T20:13:05Z</time>
      </trkpt>
      <trkpt lat="44.13462" lon="6.32503">
        <ele>805.945</ele>
        <time>2022-08-24T20:13:25Z</time>
      </trkpt>
      <trkpt lat="44.13451" lon="6.32491">
        <ele>807.45</ele>
        <time>2022-08-24T20:13:45Z</time>
      </trkpt>
      <trkpt lat="44.1345" lon="6.32468">
        <ele>808.645</ele>
        <time>2022-08-24T20:14:05Z</time>
      </trkpt>
      <trkpt lat="44.13443" lon="6.32441">
        <ele>810.747</ele>
        <time>2022-08-24T20:14:25Z</time>
      </trkpt>
      <trkpt lat="44.13446" lon="6.32424">
        <ele>813.311</ele>
        <time>2022-08-24T20:14:45Z</time>
      </trkpt>
      <trkpt lat="44.13444" lon="6.32409">
        <ele>815.009</ele>
        <time>2022-08-24T20:15:05Z</time>
      </trkpt>
      <trkpt lat="44.13426" lon="6.32392">
        <ele>816.265</ele>
        <time>2022-08-24T20:15:25Z</time>
      </trkpt>
      <trkpt lat="44.13423" lon="6.32353">
        <ele>820.815</ele>
        <time>2022-08-24T20:15:45Z</time>
      </trkpt>
      <trkpt lat="44.13412" lon="6.32294">
        <ele>825.035</ele>
        <time>2022-08-24T20:16:05Z</time>
      </trkpt>
      <trkpt lat="44.13415" lon="6.32274">
        <ele>826.59</ele>
        <time>2022-08-24T20:16:25Z</time>
      </trkpt>
      <trkpt lat="44.13405" lon="6.32232">
        <ele>830.08</ele>
        <time>2022-08-24T20:16:45Z</time>
      </trkpt>
      <trkpt lat="44.13407" lon="6.3221">
        <ele>831.575</ele>
        <time>2022-08-24T20:17:05Z</time>
      </trkpt>
      <trkpt lat="44.13397" lon="6.32142">
        <ele>837.257</ele>
        <time>2022-08-24T20:17:25Z</time>
      </trkpt>
      <trkpt lat="44.13401" lon="6.32127">
        <ele>838.215</ele>
        <time>2022-08-24T20:17:45Z</time>
      </trkpt>
      <trkpt lat="44.13412" lon="6.32111">
        <ele>840.25</ele>
        <time>2022-08-24T20:18:05Z</time>
      </trkpt>
      <trkpt lat="44.13414" lon="6.32099">
        <ele>841.225</ele>
        <time>2022-08-24T20:18:25Z</time>
      </trkpt>
      <trkpt lat="44.13399" lon="6.32063">
        <ele>844.926</ele>
        <time>2022-08-24T20:18:45Z</time>
      </trkpt>
      <trkpt lat="44.13398" lon="6.32046">
        <ele>845.308</ele>
        <time>2022-08-24T20:19:05Z</time>
      </trkpt>
      <trkpt lat="44.13402" lon="6.32034">
        <ele>845.709</ele>
        <time>2022-08-24T20:19:25Z</time>
      </trkpt>
      <trkpt lat="44.13416" lon="6.3202">
        <ele>846.953</ele>
        <time>2022-08-24T20:19:45Z</time>
      </trkpt>
      <trkpt lat="44.13421" lon="6.32012">
        <ele>847.893</ele>
        <time>2022-08-24T20:20:05Z</time>
      </trkpt>
      <trkpt lat="44.13422" lon="6.32001">
        <ele>851.783</ele>
        <time>2022-08-24T20:20:25Z</time>
      </trkpt>
      <trkpt lat="44.13404" lon="6.31962">
        <ele>853.798</ele>
        <time>2022-08-24T20:20:45Z</time>
      </trkpt>
      <trkpt lat="44.13391" lon="6.31952">
        <ele>855.188</ele>
        <time>2022-08-24T20:21:05Z</time>
      </trkpt>
      <trkpt lat="44.13382" lon="6.31939">
        <ele>856.573</ele>
        <time>2022-08-24T20:21:25Z</time>
      </trkpt>
      <trkpt lat="44.13381" lon="6.31925">
        <ele>856.555</ele>
        <time>2022-08-24T20:21:45Z</time>
      </trkpt>
      <trkpt lat="44.13372" lon="6.319">
        <ele>860.043</ele>
        <time>2022-08-24T20:22:05Z</time>
      </trkpt>
      <trkpt lat="44.13373" lon="6.31871">
        <ele>862.058</ele>
        <time>2022-08-24T20:22:25Z</time>
      </trkpt>
      <trkpt lat="44.13367" lon="6.31855">
        <ele>863.591</ele>
        <time>2022-08-24T20:22:45Z</time>
      </trkpt>
      <trkpt lat="44.13362" lon="6.31817">
        <ele>866.781</ele>
        <time>2022-08-24T20:23:05Z</time>
      </trkpt>
      <trkpt lat="44.13362" lon="6.31796">
        <ele>867.519</ele>
        <time>2022-08-24T20:23:25Z</time>
      </trkpt>
      <trkpt lat="44.13352" lon="6.31768">
        <ele>870.109</ele>
        <time>2022-08-24T20:23:45Z</time>
      </trkpt>
      <trkpt lat="44.13347" lon="6.3174">
        <ele>872.79</ele>
        <time>2022-08-24T20:24:05Z</time>
      </trkpt>
      <trkpt lat="44.13332" lon="6.31716">
        <ele>875.38</ele>
        <time>2022-08-24T20:24:25Z</time>
      </trkpt>
      <trkpt lat="44.13305" lon="6.31691">
        <ele>880.07</ele>
        <time>2022-08-24T20:24:45Z</time>
      </trkpt>
      <trkpt lat="44.13286" lon="6.31666">
        <ele>881.095</ele>
        <time>2022-08-24T20:25:05Z</time>
      </trkpt>
      <trkpt lat="44.13265" lon="6.3166">
        <ele>882.775</ele>
        <time>2022-08-24T20:25:25Z</time>
      </trkpt>
      <trkpt lat="44.13247" lon="6.31636">
        <ele>884.48</ele>
        <time>2022-08-24T20:25:45Z</time>
      </trkpt>
      <trkpt lat="44.13224" lon="6.31627">
        <ele>885.792</ele>
        <time>2022-08-24T20:26:05Z</time>
      </trkpt>
      <trkpt lat="44.13194" lon="6.31579">
        <ele>889.44</ele>
        <time>2022-08-24T20:26:25Z</time>
      </trkpt>
      <trkpt lat="44.13189" lon="6.31557">
        <ele>890.015</ele>
        <time>2022-08-24T20:26:45Z</time>
      </trkpt>
      <trkpt lat="44.13186" lon="6.31501">
        <ele>894.421</ele>
        <time>2022-08-24T20:27:05Z</time>
      </trkpt>
      <trkpt lat="44.13172" lon="6.31436">
        <ele>898.141</ele>
        <time>2022-08-24T20:27:25Z</time>
      </trkpt>
      <trkpt lat="44.1316" lon="6.31428">
        <ele>898.405</ele>
        <time>2022-08-24T20:27:45Z</time>
      </trkpt>
      <trkpt lat="44.13143" lon="6.31312">
        <ele>899.709</ele>
        <time>2022-08-24T20:28:05Z</time>
      </trkpt>
      <trkpt lat="44.13145" lon="6.31295">
        <ele>900.033</ele>
        <time>2022-08-24T20:28:25Z</time>
      </trkpt>
      <trkpt lat="44.13153" lon="6.31281">
        <ele>900.313</ele>
        <time>2022-08-24T20:28:45Z</time>
      </trkpt>
      <trkpt lat="44.13166" lon="6.31269">
        <ele>901.293</ele>
        <time>2022-08-24T20:29:05Z</time>
      </trkpt>
      <trkpt lat="44.13169" lon="6.31263">
        <ele>901.428</ele>
        <time>2022-08-24T20:29:25Z</time>
      </trkpt>
      <trkpt lat="44.13171" lon="6.31246">
        <ele>901.478</ele>
        <time>2022-08-24T20:29:45Z</time>
      </trkpt>
      <trkpt lat="44.13167" lon="6.31229">
        <ele>901.123</ele>
        <time>2022-08-24T20:30:05Z</time>
      </trkpt>
      <trkpt lat="44.13161" lon="6.3122">
        <ele>900.535</ele>
        <time>2022-08-24T20:30:25Z</time>
      </trkpt>
      <trkpt lat="44.13131" lon="6.31225">
        <ele>900.113</ele>
        <time>2022-08-24T20:30:45Z</time>
      </trkpt>
      <trkpt lat="44.13113" lon="6.31221">
        <ele>900.178</ele>
        <time>2022-08-24T20:31:05Z</time>
      </trkpt>
      <trkpt lat="44.13098" lon="6.31213">
        <ele>900.138</ele>
        <time>2022-08-24T20:31:25Z</time>
      </trkpt>
      <trkpt lat="44.13091" lon="6.31197">
        <ele>900.17</ele>
        <time>2022-08-24T20:31:45Z</time>
      </trkpt>
      <trkpt lat="44.13082" lon="6.31187">
        <ele>900.117</ele>
        <time>2022-08-24T20:32:05Z</time>
      </trkpt>
      <trkpt lat="44.13069" lon="6.31178">
        <ele>900.109</ele>
        <time>2022-08-24T20:32:25Z</time>
      </trkpt>
      <trkpt lat="44.13059" lon="6.31183">
        <ele>900.114</ele>
        <time>2022-08-24T20:32:45Z</time>
      </trkpt>
      <trkpt lat="44.13044" lon="6.31202">
        <ele>900.194</ele>
        <time>2022-08-24T20:33:05Z</time>
      </trkpt>
      <trkpt lat="44.13038" lon="6.31207">
        <ele>900.194</ele>
        <time>2022-08-24T20:33:25Z</time>
      </trkpt>
      <trkpt lat="44.13006" lon="6.31211">
        <ele>900.189</ele>
        <time>2022-08-24T20:33:45Z</time>
      </trkpt>
      <trkpt lat="44.12999" lon="6.31215">
        <ele>900.199</ele>
        <time>2022-08-24T20:34:05Z</time>
      </trkpt>
      <trkpt lat="44.12976" lon="6.31249">
        <ele>900.174</ele>
        <time>2022-08-24T20:34:25Z</time>
      </trkpt>
      <trkpt lat="44.12954" lon="6.31254">
        <ele>900.176</ele>
        <time>2022-08-24T20:34:45Z</time>
      </trkpt>
      <trkpt lat="44.12924" lon="6.31275">
        <ele>900.184</ele>
        <time>2022-08-24T20:35:05Z</time>
      </trkpt>
      <trkpt lat="44.12878" lon="6.31334">
        <ele>899.419</ele>
        <time>2022-08-24T20:35:25Z</time>
      </trkpt>
      <trkpt lat="44.12861" lon="6.314">
        <ele>894.571</ele>
        <time>2022-08-24T20:35:45Z</time>
      </trkpt>
      <trkpt lat="44.12854" lon="6.31406">
        <ele>894.141</ele>
        <time>2022-08-24T20:36:05Z</time>
      </trkpt>
      <trkpt lat="44.1281" lon="6.31426">
        <ele>890.415</ele>
        <time>2022-08-24T20:36:25Z</time>
      </trkpt>
      <trkpt lat="44.12798" lon="6.3145">
        <ele>889.309</ele>
        <time>2022-08-24T20:36:45Z</time>
      </trkpt>
      <trkpt lat="44.12796" lon="6.31469">
        <ele>886.998</ele>
        <time>2022-08-24T20:37:05Z</time>
      </trkpt>
      <trkpt lat="44.12786" lon="6.31486">
        <ele>885.218</ele>
        <time>2022-08-24T20:37:25Z</time>
      </trkpt>
      <trkpt lat="44.12775" lon="6.31525">
        <ele>883.398</ele>
        <time>2022-08-24T20:37:45Z</time>
      </trkpt>
      <trkpt lat="44.12773" lon="6.31556">
        <ele>883.173</ele>
        <time>2022-08-24T20:38:05Z</time>
      </trkpt>
      <trkpt lat="44.12768" lon="6.3156">
        <ele>882.983</ele>
        <time>2022-08-24T20:38:25Z</time>
      </trkpt>
      <trkpt lat="44.12756" lon="6.31557">
        <ele>882.988</ele>
        <time>2022-08-24T20:38:45Z</time>
      </trkpt>
      <trkpt lat="44.12714" lon="6.3152">
        <ele>884.99</ele>
        <time>2022-08-24T20:39:05Z</time>
      </trkpt>
      <trkpt lat="44.12705" lon="6.3152">
        <ele>884.978</ele>
        <time>2022-08-24T20:39:25Z</time>
      </trkpt>
      <trkpt lat="44.12694" lon="6.31534">
        <ele>884.933</ele>
        <time>2022-08-24T20:39:45Z</time>
      </trkpt>
      <trkpt lat="44.12658" lon="6.31608">
        <ele>890.173</ele>
        <time>2022-08-24T20:40:05Z</time>
      </trkpt>
      <trkpt lat="44.12639" lon="6.31626">
        <ele>891.485</ele>
        <time>2022-08-24T20:40:25Z</time>
      </trkpt>
      <trkpt lat="44.12598" lon="6.31649">
        <ele>897.013</ele>
        <time>2022-08-24T20:40:45Z</time>
      </trkpt>
      <trkpt lat="44.1259" lon="6.31655">
        <ele>898.409</ele>
        <time>2022-08-24T20:41:05Z</time>
      </trkpt>
      <trkpt lat="44.12571" lon="6.31706">
        <ele>903.578</ele>
        <time>2022-08-24T20:41:25Z</time>
      </trkpt>
      <trkpt lat="44.12572" lon="6.31707">
        <ele>903.088</ele>
        <time>2022-08-24T20:41:45Z</time>
      </trkpt>
      <trkpt lat="44.12565" lon="6.31706">
        <ele>902.538</ele>
        <time>2022-08-24T20:42:05Z</time>
      </trkpt>
      <trkpt lat="44.12561" lon="6.31688">
        <ele>902.313</ele>
        <time>2022-08-24T20:42:25Z</time>
      </trkpt>
      <trkpt lat="44.12561" lon="6.31654">
        <ele>901.093</ele>
        <time>2022-08-24T20:42:45Z</time>
      </trkpt>
      <trkpt lat="44.12572" lon="6.31623">
        <ele>899.198</ele>
        <time>2022-08-24T20:43:05Z</time>
      </trkpt>
      <trkpt lat="44.12595" lon="6.31573">
        <ele>892.35</ele>
        <time>2022-08-24T20:43:25Z</time>
      </trkpt>
      <trkpt lat="44.12589" lon="6.31534">
        <ele>890.158</ele>
        <time>2022-08-24T20:43:45Z</time>
      </trkpt>
      <trkpt lat="44.12581" lon="6.31519">
        <ele>889.223</ele>
        <time>2022-08-24T20:44:05Z</time>
      </trkpt>
      <trkpt lat="44.12576" lon="6.31499">
        <ele>888.344</ele>
        <time>2022-08-24T20:44:25Z</time>
      </trkpt>
      <trkpt lat="44.1256" lon="6.31467">
        <ele>885.405</ele>
        <time>2022-08-24T20:44:45Z</time>
      </trkpt>
      <trkpt lat="44.12555" lon="6.31443">
        <ele>883.615</ele>
        <time>2022-08-24T20:45:05Z</time>
      </trkpt>
      <trkpt lat="44.12545" lon="6.31434">
        <ele>881.809</ele>
        <time>2022-08-24T20:45:25Z</time>
      </trkpt>
      <trkpt lat="44.12497" lon="6.31432">
        <ele>877.165</ele>
        <time>2022-08-24T20:45:45Z</time>
      </trkpt>
      <trkpt lat="44.12484" lon="6.3144">
        <ele>876.525</ele>
        <time>2022-08-24T20:46:05Z</time>
      </trkpt>
      <trkpt lat="44.12474" lon="6.31436">
        <ele>875.815</ele>
        <time>2022-08-24T20:46:25Z</time>
      </trkpt>
      <trkpt lat="44.12464" lon="6.31425">
        <ele>874.88</ele>
        <time>2022-08-24T20:46:45Z</time>
      </trkpt>
      <trkpt lat="44.12425" lon="6.31413">
        <ele>869.28</ele>
        <time>2022-08-24T20:47:05Z</time>
      </trkpt>
      <trkpt lat="44.12384" lon="6.31369">
        <ele>863.895</ele>
        <time>2022-08-24T20:47:25Z</time>
      </trkpt>
      <trkpt lat="44.12356" lon="6.31359">
        <ele>862.397</ele>
        <time>2022-08-24T20:47:45Z</time>
      </trkpt>
      <trkpt lat="44.1233" lon="6.31366">
        <ele>861.935</ele>
        <time>2022-08-24T20:48:05Z</time>
      </trkpt>
      <trkpt lat="44.12326" lon="6.31363">
        <ele>861.67</ele>
        <time>2022-08-24T20:48:25Z</time>
      </trkpt>
      <trkpt lat="44.12326" lon="6.31354">
        <ele>861.765</ele>
        <time>2022-08-24T20:48:45Z</time>
      </trkpt>
      <trkpt lat="44.1233" lon="6.31343">
        <ele>861.868</ele>
        <time>2022-08-24T20:49:05Z</time>
      </trkpt>
      <trkpt lat="44.12339" lon="6.31336">
        <ele>862.414</ele>
        <time>2022-08-24T20:49:25Z</time>
      </trkpt>
      <trkpt lat="44.12381" lon="6.31318">
        <ele>866.209</ele>
        <time>2022-08-24T20:49:45Z</time>
      </trkpt>
      <trkpt lat="44.12437" lon="6.31298">
        <ele>873.367</ele>
        <time>2022-08-24T20:50:05Z</time>
      </trkpt>
      <trkpt lat="44.12449" lon="6.31289">
        <ele>873.837</ele>
        <time>2022-08-24T20:50:25Z</time>
      </trkpt>
      <trkpt lat="44.12514" lon="6.31224">
        <ele>883.767</ele>
        <time>2022-08-24T20:50:45Z</time>
      </trkpt>
      <trkpt lat="44.12518" lon="6.31213">
        <ele>884.272</ele>
        <time>2022-08-24T20:51:05Z</time>
      </trkpt>
      <trkpt lat="44.12523" lon="6.31159">
        <ele>887.352</ele>
        <time>2022-08-24T20:51:25Z</time>
      </trkpt>
      <trkpt lat="44.12529" lon="6.31091">
        <ele>891.737</ele>
        <time>2022-08-24T20:51:45Z</time>
      </trkpt>
      <trkpt lat="44.12531" lon="6.31033">
        <ele>897.089</ele>
        <time>2022-08-24T20:52:05Z</time>
      </trkpt>
      <trkpt lat="44.1252" lon="6.30975">
        <ele>902.667</ele>
        <time>2022-08-24T20:52:25Z</time>
      </trkpt>
      <trkpt lat="44.12506" lon="6.3093">
        <ele>905.832</ele>
        <time>2022-08-24T20:52:45Z</time>
      </trkpt>
      <trkpt lat="44.12502" lon="6.30907">
        <ele>907.066</ele>
        <time>2022-08-24T20:53:05Z</time>
      </trkpt>
      <trkpt lat="44.12497" lon="6.30903">
        <ele>908.229</ele>
        <time>2022-08-24T20:53:25Z</time>
      </trkpt>
      <trkpt lat="44.12498" lon="6.30903">
        <ele>908.221</ele>
        <time>2022-08-24T20:53:45Z</time>
      </trkpt>
      <trkpt lat="44.12491" lon="6.30903">
        <ele>908.209</ele>
        <time>2022-08-24T20:54:05Z</time>
      </trkpt>
      <trkpt lat="44.12498" lon="6.30945">
        <ele>911.247</ele>
        <time>2022-08-24T20:54:25Z</time>
      </trkpt>
      <trkpt lat="44.12506" lon="6.31018">
        <ele>915.887</ele>
        <time>2022-08-24T20:54:45Z</time>
      </trkpt>
      <trkpt lat="44.125" lon="6.31061">
        <ele>919.297</ele>
        <time>2022-08-24T20:55:05Z</time>
      </trkpt>
      <trkpt lat="44.12467" lon="6.31165">
        <ele>927.042</ele>
        <time>2022-08-24T20:55:25Z</time>
      </trkpt>
      <trkpt lat="44.12458" lon="6.31172">
        <ele>927.752</ele>
        <time>2022-08-24T20:55:45Z</time>
      </trkpt>
      <trkpt lat="44.12428" lon="6.31186">
        <ele>930.717</ele>
        <time>2022-08-24T20:56:05Z</time>
      </trkpt>
      <trkpt lat="44.12397" lon="6.31191">
        <ele>935.949</ele>
        <time>2022-08-24T20:56:25Z</time>
      </trkpt>
      <trkpt lat="44.12352" lon="6.31189">
        <ele>939.227</ele>
        <time>2022-08-24T20:56:45Z</time>
      </trkpt>
      <trkpt lat="44.123" lon="6.31196">
        <ele>943.312</ele>
        <time>2022-08-24T20:57:05Z</time>
      </trkpt>
      <trkpt lat="44.12282" lon="6.31196">
        <ele>944.118</ele>
        <time>2022-08-24T20:57:25Z</time>
      </trkpt>
      <trkpt lat="44.12267" lon="6.31182">
        <ele>945.398</ele>
        <time>2022-08-24T20:57:45Z</time>
      </trkpt>
      <trkpt lat="44.12242" lon="6.31152">
        <ele>947.017</ele>
        <time>2022-08-24T20:58:05Z</time>
      </trkpt>
      <trkpt lat="44.12178" lon="6.31105">
        <ele>951.009</ele>
        <time>2022-08-24T20:58:25Z</time>
      </trkpt>
      <trkpt lat="44.12162" lon="6.31062">
        <ele>953.792</ele>
        <time>2022-08-24T20:58:45Z</time>
      </trkpt>
      <trkpt lat="44.12155" lon="6.31059">
        <ele>954.152</ele>
        <time>2022-08-24T20:59:05Z</time>
      </trkpt>
      <trkpt lat="44.12147" lon="6.31063">
        <ele>954.522</ele>
        <time>2022-08-24T20:59:25Z</time>
      </trkpt>
      <trkpt lat="44.12147" lon="6.3108">
        <ele>955.347</ele>
        <time>2022-08-24T20:59:45Z</time>
      </trkpt>
      <trkpt lat="44.12153" lon="6.31095">
        <ele>955.877</ele>
        <time>2022-08-24T21:00:05Z</time>
      </trkpt>
      <trkpt lat="44.12167" lon="6.31151">
        <ele>959.722</ele>
        <time>2022-08-24T21:00:25Z</time>
      </trkpt>
      <trkpt lat="44.12171" lon="6.312">
        <ele>962.374</ele>
        <time>2022-08-24T21:00:45Z</time>
      </trkpt>
      <trkpt lat="44.1217" lon="6.31216">
        <ele>962.562</ele>
        <time>2022-08-24T21:01:05Z</time>
      </trkpt>
      <trkpt lat="44.1216" lon="6.31244">
        <ele>963.997</ele>
        <time>2022-08-24T21:01:25Z</time>
      </trkpt>
      <trkpt lat="44.12129" lon="6.31291">
        <ele>967.153</ele>
        <time>2022-08-24T21:01:45Z</time>
      </trkpt>
      <trkpt lat="44.12094" lon="6.31323">
        <ele>968.004</ele>
        <time>2022-08-24T21:02:05Z</time>
      </trkpt>
      <trkpt lat="44.12061" lon="6.31348">
        <ele>968.214</ele>
        <time>2022-08-24T21:02:25Z</time>
      </trkpt>
      <trkpt lat="44.12037" lon="6.31343">
        <ele>968.109</ele>
        <time>2022-08-24T21:02:45Z</time>
      </trkpt>
      <trkpt lat="44.12006" lon="6.31342">
        <ele>967.216</ele>
        <time>2022-08-24T21:03:05Z</time>
      </trkpt>
      <trkpt lat="44.11995" lon="6.31347">
        <ele>967.186</ele>
        <time>2022-08-24T21:03:25Z</time>
      </trkpt>
      <trkpt lat="44.11985" lon="6.31349">
        <ele>967.086</ele>
        <time>2022-08-24T21:03:45Z</time>
      </trkpt>
      <trkpt lat="44.11973" lon="6.31345">
        <ele>966.771</ele>
        <time>2022-08-24T21:04:05Z</time>
      </trkpt>
      <trkpt lat="44.1194" lon="6.31332">
        <ele>964.511</ele>
        <time>2022-08-24T21:04:25Z</time>
      </trkpt>
      <trkpt lat="44.11924" lon="6.3132">
        <ele>963.966</ele>
        <time>2022-08-24T21:04:45Z</time>
      </trkpt>
      <trkpt lat="44.11896" lon="6.31293">
        <ele>961.078</ele>
        <time>2022-08-24T21:05:05Z</time>
      </trkpt>
      <trkpt lat="44.11875" lon="6.31289">
        <ele>960.236</ele>
        <time>2022-08-24T21:05:25Z</time>
      </trkpt>
      <trkpt lat="44.11861" lon="6.31273">
        <ele>958.931</ele>
        <time>2022-08-24T21:05:45Z</time>
      </trkpt>
      <trkpt lat="44.11825" lon="6.3126">
        <ele>956.713</ele>
        <time>2022-08-24T21:06:05Z</time>
      </trkpt>
      <trkpt lat="44.11809" lon="6.3125">
        <ele>956.343</ele>
        <time>2022-08-24T21:06:25Z</time>
      </trkpt>
      <trkpt lat="44.11796" lon="6.31247">
        <ele>955.707</ele>
        <time>2022-08-24T21:06:45Z</time>
      </trkpt>
      <trkpt lat="44.1178" lon="6.31261">
        <ele>955.209</ele>
        <time>2022-08-24T21:07:05Z</time>
      </trkpt>
      <trkpt lat="44.11774" lon="6.31272">
        <ele>954.782</ele>
        <time>2022-08-24T21:07:25Z</time>
      </trkpt>
      <trkpt lat="44.11765" lon="6.3133">
        <ele>951.692</ele>
        <time>2022-08-24T21:07:45Z</time>
      </trkpt>
      <trkpt lat="44.11755" lon="6.31353">
        <ele>951.652</ele>
        <time>2022-08-24T21:08:05Z</time>
      </trkpt>
      <trkpt lat="44.11747" lon="6.31361">
        <ele>951.827</ele>
        <time>2022-08-24T21:08:25Z</time>
      </trkpt>
      <trkpt lat="44.11715" lon="6.31371">
        <ele>951.497</ele>
        <time>2022-08-24T21:08:45Z</time>
      </trkpt>
      <trkpt lat="44.11708" lon="6.31368">
        <ele>951.422</ele>
        <time>2022-08-24T21:09:05Z</time>
      </trkpt>
      <trkpt lat="44.11689" lon="6.31344">
        <ele>950.744</ele>
        <time>2022-08-24T21:09:25Z</time>
      </trkpt>
      <trkpt lat="44.1166" lon="6.31332">
        <ele>945.672</ele>
        <time>2022-08-24T21:09:45Z</time>
      </trkpt>
      <trkpt lat="44.11633" lon="6.31334">
        <ele>942.147</ele>
        <time>2022-08-24T21:10:05Z</time>
      </trkpt>
      <trkpt lat="44.11613" lon="6.31345">
        <ele>941.485</ele>
        <time>2022-08-24T21:10:25Z</time>
      </trkpt>
      <trkpt lat="44.11579" lon="6.31338">
        <ele>940.789</ele>
        <time>2022-08-24T21:10:45Z</time>
      </trkpt>
      <trkpt lat="44.11528" lon="6.31312">
        <ele>941.217</ele>
        <time>2022-08-24T21:11:05Z</time>
      </trkpt>
      <trkpt lat="44.11508" lon="6.31297">
        <ele>940.209</ele>
        <time>2022-08-24T21:11:25Z</time>
      </trkpt>
      <trkpt lat="44.11475" lon="6.31306">
        <ele>938.029</ele>
        <time>2022-08-24T21:11:45Z</time>
      </trkpt>
      <trkpt lat="44.1144" lon="6.31323">
        <ele>939.579</ele>
        <time>2022-08-24T21:12:05Z</time>
      </trkpt>
      <trkpt lat="44.11407" lon="6.31351">
        <ele>937.499</ele>
        <time>2022-08-24T21:12:25Z</time>
      </trkpt>
      <trkpt lat="44.11391" lon="6.31337">
        <ele>937.374</ele>
        <time>2022-08-24T21:12:45Z</time>
      </trkpt>
      <trkpt lat="44.11353" lon="6.31342">
        <ele>936.044</ele>
        <time>2022-08-24T21:13:05Z</time>
      </trkpt>
      <trkpt lat="44.11353" lon="6.31343">
        <ele>936.089</ele>
        <time>2022-08-24T21:13:25Z</time>
      </trkpt>
      <trkpt lat="44.11329" lon="6.31265">
        <ele>944.051</ele>
        <time>2022-08-24T21:13:45Z</time>
      </trkpt>
      <trkpt lat="44.11308" lon="6.31235">
        <ele>947.069</ele>
        <time>2022-08-24T21:14:05Z</time>
      </trkpt>
      <trkpt lat="44.1129" lon="6.31205">
        <ele>947.814</ele>
        <time>2022-08-24T21:14:25Z</time>
      </trkpt>
      <trkpt lat="44.11274" lon="6.31164">
        <ele>946.191</ele>
        <time>2022-08-24T21:14:45Z</time>
      </trkpt>
      <trkpt lat="44.11221" lon="6.31093">
        <ele>938.181</ele>
        <time>2022-08-24T21:15:05Z</time>
      </trkpt>
      <trkpt lat="44.11196" lon="6.31042">
        <ele>942.519</ele>
        <time>2022-08-24T21:15:25Z</time>
      </trkpt>
      <trkpt lat="44.11159" lon="6.30985">
        <ele>946.309</ele>
        <time>2022-08-24T21:15:45Z</time>
      </trkpt>
      <trkpt lat="44.11112" lon="6.30966">
        <ele>941.72</ele>
        <time>2022-08-24T21:16:05Z</time>
      </trkpt>
      <trkpt lat="44.11081" lon="6.30973">
        <ele>938.57</ele>
        <time>2022-08-24T21:16:25Z</time>
      </trkpt>
      <trkpt lat="44.11011" lon="6.30932">
        <ele>941.57</ele>
        <time>2022-08-24T21:16:45Z</time>
      </trkpt>
      <trkpt lat="44.10986" lon="6.30899">
        <ele>943.335</ele>
        <time>2022-08-24T21:17:05Z</time>
      </trkpt>
      <trkpt lat="44.10963" lon="6.3088">
        <ele>944.345</ele>
        <time>2022-08-24T21:17:25Z</time>
      </trkpt>
      <trkpt lat="44.10943" lon="6.30869">
        <ele>945.98</ele>
        <time>2022-08-24T21:17:45Z</time>
      </trkpt>
      <trkpt lat="44.10896" lon="6.30812">
        <ele>948.842</ele>
        <time>2022-08-24T21:18:05Z</time>
      </trkpt>
      <trkpt lat="44.1085" lon="6.30755">
        <ele>950.56</ele>
        <time>2022-08-24T21:18:25Z</time>
      </trkpt>
      <trkpt lat="44.1082" lon="6.3074">
        <ele>949.325</ele>
        <time>2022-08-24T21:18:45Z</time>
      </trkpt>
      <trkpt lat="44.10796" lon="6.30722">
        <ele>947.263</ele>
        <time>2022-08-24T21:19:05Z</time>
      </trkpt>
      <trkpt lat="44.10765" lon="6.30671">
        <ele>943.244</ele>
        <time>2022-08-24T21:19:25Z</time>
      </trkpt>
      <trkpt lat="44.1076" lon="6.30628">
        <ele>937.418</ele>
        <time>2022-08-24T21:19:45Z</time>
      </trkpt>
      <trkpt lat="44.1076" lon="6.30518">
        <ele>930.309</ele>
        <time>2022-08-24T21:20:05Z</time>
      </trkpt>
      <trkpt lat="44.10747" lon="6.3045">
        <ele>931.847</ele>
        <time>2022-08-24T21:20:25Z</time>
      </trkpt>
      <trkpt lat="44.10732" lon="6.30349">
        <ele>935.647</ele>
        <time>2022-08-24T21:20:45Z</time>
      </trkpt>
      <trkpt lat="44.10719" lon="6.30295">
        <ele>940.957</ele>
        <time>2022-08-24T21:21:05Z</time>
      </trkpt>
      <trkpt lat="44.10701" lon="6.3026">
        <ele>944.722</ele>
        <time>2022-08-24T21:21:25Z</time>
      </trkpt>
      <trkpt lat="44.10683" lon="6.30214">
        <ele>949.782</ele>
        <time>2022-08-24T21:21:45Z</time>
      </trkpt>
      <trkpt lat="44.10668" lon="6.30207">
        <ele>950.427</ele>
        <time>2022-08-24T21:22:05Z</time>
      </trkpt>
      <trkpt lat="44.10661" lon="6.30181">
        <ele>951.669</ele>
        <time>2022-08-24T21:22:25Z</time>
      </trkpt>
      <trkpt lat="44.10635" lon="6.30167">
        <ele>950.287</ele>
        <time>2022-08-24T21:22:45Z</time>
      </trkpt>
      <trkpt lat="44.10646" lon="6.30163">
        <ele>950.672</ele>
        <time>2022-08-24T21:23:05Z</time>
      </trkpt>
      <trkpt lat="44.10644" lon="6.30137">
        <ele>951.117</ele>
        <time>2022-08-24T21:23:25Z</time>
      </trkpt>
      <trkpt lat="44.10633" lon="6.30117">
        <ele>951.287</ele>
        <time>2022-08-24T21:23:45Z</time>
      </trkpt>
      <trkpt lat="44.10615" lon="6.3005">
        <ele>954.815</ele>
        <time>2022-08-24T21:24:05Z</time>
      </trkpt>
      <trkpt lat="44.10615" lon="6.30029">
        <ele>956.709</ele>
        <time>2022-08-24T21:24:25Z</time>
      </trkpt>
      <trkpt lat="44.10617" lon="6.30023">
        <ele>958.632</ele>
        <time>2022-08-24T21:24:45Z</time>
      </trkpt>
      <trkpt lat="44.10608" lon="6.29991">
        <ele>959.762</ele>
        <time>2022-08-24T21:25:05Z</time>
      </trkpt>
      <trkpt lat="44.10574" lon="6.29999">
        <ele>958.232</ele>
        <time>2022-08-24T21:25:25Z</time>
      </trkpt>
      <trkpt lat="44.10563" lon="6.29998">
        <ele>957.587</ele>
        <time>2022-08-24T21:25:45Z</time>
      </trkpt>
      <trkpt lat="44.10541" lon="6.29982">
        <ele>955.137</ele>
        <time>2022-08-24T21:26:05Z</time>
      </trkpt>
      <trkpt lat="44.10473" lon="6.29986">
        <ele>948.342</ele>
        <time>2022-08-24T21:26:25Z</time>
      </trkpt>
      <trkpt lat="44.10466" lon="6.29976">
        <ele>948.354</ele>
        <time>2022-08-24T21:26:45Z</time>
      </trkpt>
      <trkpt lat="44.10447" lon="6.29963">
        <ele>948.692</ele>
        <time>2022-08-24T21:27:05Z</time>
      </trkpt>
      <trkpt lat="44.1044" lon="6.29945">
        <ele>949.087</ele>
        <time>2022-08-24T21:27:25Z</time>
      </trkpt>
      <trkpt lat="44.10392" lon="6.29892">
        <ele>949.032</ele>
        <time>2022-08-24T21:27:45Z</time>
      </trkpt>
      <trkpt lat="44.10356" lon="6.29869">
        <ele>948.492</ele>
        <time>2022-08-24T21:28:05Z</time>
      </trkpt>
      <trkpt lat="44.10338" lon="6.29853">
        <ele>948.411</ele>
        <time>2022-08-24T21:28:25Z</time>
      </trkpt>
      <trkpt lat="44.10312" lon="6.29821">
        <ele>949.509</ele>
        <time>2022-08-24T21:28:45Z</time>
      </trkpt>
      <trkpt lat="44.10307" lon="6.29804">
        <ele>949.874</ele>
        <time>2022-08-24T21:29:05Z</time>
      </trkpt>
      <trkpt lat="44.10286" lon="6.29786">
        <ele>950.834</ele>
        <time>2022-08-24T21:29:25Z</time>
      </trkpt>
      <trkpt lat="44.10277" lon="6.29763">
        <ele>951.874</ele>
        <time>2022-08-24T21:29:45Z</time>
      </trkpt>
      <trkpt lat="44.10254" lon="6.29732">
        <ele>954.299</ele>
        <time>2022-08-24T21:30:05Z</time>
      </trkpt>
      <trkpt lat="44.10253" lon="6.2971">
        <ele>954.869</ele>
        <time>2022-08-24T21:30:25Z</time>
      </trkpt>
      <trkpt lat="44.10239" lon="6.29675">
        <ele>957.884</ele>
        <time>2022-08-24T21:30:45Z</time>
      </trkpt>
      <trkpt lat="44.10227" lon="6.29624">
        <ele>963.436</ele>
        <time>2022-08-24T21:31:05Z</time>
      </trkpt>
      <trkpt lat="44.10184" lon="6.2954">
        <ele>968.654</ele>
        <time>2022-08-24T21:31:25Z</time>
      </trkpt>
      <trkpt lat="44.10185" lon="6.29527">
        <ele>969.499</ele>
        <time>2022-08-24T21:31:45Z</time>
      </trkpt>
      <trkpt lat="44.10165" lon="6.29485">
        <ele>972.198</ele>
        <time>2022-08-24T21:32:05Z</time>
      </trkpt>
      <trkpt lat="44.1015" lon="6.2948">
        <ele>972.715</ele>
        <time>2022-08-24T21:32:25Z</time>
      </trkpt>
      <trkpt lat="44.10148" lon="6.29476">
        <ele>973.326</ele>
        <time>2022-08-24T21:32:45Z</time>
      </trkpt>
      <trkpt lat="44.10151" lon="6.29465">
        <ele>973.309</ele>
        <time>2022-08-24T21:33:05Z</time>
      </trkpt>
      <trkpt lat="44.1015" lon="6.29456">
        <ele>973.33</ele>
        <time>2022-08-24T21:33:25Z</time>
      </trkpt>
      <trkpt lat="44.10142" lon="6.29444">
        <ele>973.52</ele>
        <time>2022-08-24T21:33:45Z</time>
      </trkpt>
      <trkpt lat="44.10132" lon="6.29438">
        <ele>974.17</ele>
        <time>2022-08-24T21:34:05Z</time>
      </trkpt>
      <trkpt lat="44.10127" lon="6.29424">
        <ele>974.765</ele>
        <time>2022-08-24T21:34:25Z</time>
      </trkpt>
      <trkpt lat="44.10126" lon="6.29401">
        <ele>975.425</ele>
        <time>2022-08-24T21:34:45Z</time>
      </trkpt>
      <trkpt lat="44.10121" lon="6.29391">
        <ele>975.86</ele>
        <time>2022-08-24T21:35:05Z</time>
      </trkpt>
      <trkpt lat="44.10106" lon="6.29372">
        <ele>976.462</ele>
        <time>2022-08-24T21:35:25Z</time>
      </trkpt>
      <trkpt lat="44.10102" lon="6.29363">
        <ele>977.03</ele>
        <time>2022-08-24T21:35:45Z</time>
      </trkpt>
      <trkpt lat="44.10094" lon="6.29335">
        <ele>977.055</ele>
        <time>2022-08-24T21:36:05Z</time>
      </trkpt>
      <trkpt lat="44.1009" lon="6.29326">
        <ele>977.022</ele>
        <time>2022-08-24T21:36:25Z</time>
      </trkpt>
      <trkpt lat="44.10076" lon="6.29308">
        <ele>976.962</ele>
        <time>2022-08-24T21:36:45Z</time>
      </trkpt>
      <trkpt lat="44.10066" lon="6.29302">
        <ele>975.908</ele>
        <time>2022-08-24T21:37:05Z</time>
      </trkpt>
      <trkpt lat="44.1006" lon="6.29284">
        <ele>975.809</ele>
        <time>2022-08-24T21:37:25Z</time>
      </trkpt>
      <trkpt lat="44.10049" lon="6.29272">
        <ele>975.723</ele>
        <time>2022-08-24T21:37:45Z</time>
      </trkpt>
      <trkpt lat="44.10042" lon="6.29257">
        <ele>975.743</ele>
        <time>2022-08-24T21:38:05Z</time>
      </trkpt>
      <trkpt lat="44.10031" lon="6.29245">
        <ele>975.643</ele>
        <time>2022-08-24T21:38:25Z</time>
      </trkpt>
      <trkpt lat="44.10028" lon="6.29234">
        <ele>975.668</ele>
        <time>2022-08-24T21:38:45Z</time>
      </trkpt>
      <trkpt lat="44.1003" lon="6.2922">
        <ele>976.158</ele>
        <time>2022-08-24T21:39:05Z</time>
      </trkpt>
      <trkpt lat="44.10021" lon="6.29209">
        <ele>977.033</ele>
        <time>2022-08-24T21:39:25Z</time>
      </trkpt>
      <trkpt lat="44.10019" lon="6.29203">
        <ele>978.685</ele>
        <time>2022-08-24T21:39:45Z</time>
      </trkpt>
      <trkpt lat="44.10022" lon="6.2919">
        <ele>978.993</ele>
        <time>2022-08-24T21:40:05Z</time>
      </trkpt>
      <trkpt lat="44.10011" lon="6.29169">
        <ele>982.278</ele>
        <time>2022-08-24T21:40:25Z</time>
      </trkpt>
      <trkpt lat="44.09988" lon="6.2915">
        <ele>985.077</ele>
        <time>2022-08-24T21:40:45Z</time>
      </trkpt>
      <trkpt lat="44.0998" lon="6.29152">
        <ele>985.761</ele>
        <time>2022-08-24T21:41:05Z</time>
      </trkpt>
      <trkpt lat="44.09974" lon="6.29165">
        <ele>985.327</ele>
        <time>2022-08-24T21:41:25Z</time>
      </trkpt>
      <trkpt lat="44.09958" lon="6.29171">
        <ele>982.309</ele>
        <time>2022-08-24T21:41:45Z</time>
      </trkpt>
      <trkpt lat="44.09947" lon="6.29182">
        <ele>979.968</ele>
        <time>2022-08-24T21:42:05Z</time>
      </trkpt>
      <trkpt lat="44.0994" lon="6.29195">
        <ele>978.678</ele>
        <time>2022-08-24T21:42:25Z</time>
      </trkpt>
      <trkpt lat="44.09928" lon="6.29194">
        <ele>975.248</ele>
        <time>2022-08-24T21:42:45Z</time>
      </trkpt>
      <trkpt lat="44.09908" lon="6.29188">
        <ele>971.113</ele>
        <time>2022-08-24T21:43:05Z</time>
      </trkpt>
      <trkpt lat="44.09902" lon="6.2919">
        <ele>969.923</ele>
        <time>2022-08-24T21:43:25Z</time>
      </trkpt>
      <trkpt lat="44.09887" lon="6.29219">
        <ele>966.298</ele>
        <time>2022-08-24T21:43:45Z</time>
      </trkpt>
      <trkpt lat="44.09863" lon="6.29206">
        <ele>961.76</ele>
        <time>2022-08-24T21:44:05Z</time>
      </trkpt>
      <trkpt lat="44.09854" lon="6.29194">
        <ele>958.758</ele>
        <time>2022-08-24T21:44:25Z</time>
      </trkpt>
      <trkpt lat="44.09811" lon="6.29181">
        <ele>948.423</ele>
        <time>2022-08-24T21:44:45Z</time>
      </trkpt>
      <trkpt lat="44.09796" lon="6.29172">
        <ele>948.167</ele>
        <time>2022-08-24T21:45:05Z</time>
      </trkpt>
      <trkpt lat="44.09783" lon="6.29179">
        <ele>946.781</ele>
        <time>2022-08-24T21:45:25Z</time>
      </trkpt>
      <trkpt lat="44.09776" lon="6.29178">
        <ele>945.619</ele>
        <time>2022-08-24T21:45:45Z</time>
      </trkpt>
      <trkpt lat="44.09762" lon="6.2917">
        <ele>945.109</ele>
        <time>2022-08-24T21:46:05Z</time>
      </trkpt>
      <trkpt lat="44.09742" lon="6.29153">
        <ele>942.527</ele>
        <time>2022-08-24T21:46:25Z</time>
      </trkpt>
      <trkpt lat="44.09724" lon="6.29152">
        <ele>941.237</ele>
        <time>2022-08-24T21:46:45Z</time>
      </trkpt>
      <trkpt lat="44.09711" lon="6.29147">
        <ele>940.647</ele>
        <time>2022-08-24T21:47:05Z</time>
      </trkpt>
      <trkpt lat="44.09697" lon="6.29137">
        <ele>939.622</ele>
        <time>2022-08-24T21:47:25Z</time>
      </trkpt>
      <trkpt lat="44.09671" lon="6.29132">
        <ele>937.772</ele>
        <time>2022-08-24T21:47:45Z</time>
      </trkpt>
      <trkpt lat="44.09657" lon="6.29122">
        <ele>936.247</ele>
        <time>2022-08-24T21:48:05Z</time>
      </trkpt>
      <trkpt lat="44.09638" lon="6.29096">
        <ele>936.189</ele>
        <time>2022-08-24T21:48:25Z</time>
      </trkpt>
      <trkpt lat="44.09634" lon="6.29082">
        <ele>936.657</ele>
        <time>2022-08-24T21:48:45Z</time>
      </trkpt>
      <trkpt lat="44.09629" lon="6.29076">
        <ele>936.892</ele>
        <time>2022-08-24T21:49:05Z</time>
      </trkpt>
      <trkpt lat="44.09616" lon="6.29075">
        <ele>937.199</ele>
        <time>2022-08-24T21:49:25Z</time>
      </trkpt>
      <trkpt lat="44.09608" lon="6.29064">
        <ele>937.307</ele>
        <time>2022-08-24T21:49:45Z</time>
      </trkpt>
      <trkpt lat="44.09605" lon="6.29056">
        <ele>937.327</ele>
        <time>2022-08-24T21:50:05Z</time>
      </trkpt>
      <trkpt lat="44.09609" lon="6.29036">
        <ele>936.809</ele>
        <time>2022-08-24T21:50:25Z</time>
      </trkpt>
      <trkpt lat="44.09609" lon="6.29014">
        <ele>931.76</ele>
        <time>2022-08-24T21:50:45Z</time>
      </trkpt>
      <trkpt lat="44.09605" lon="6.28991">
        <ele>927.01</ele>
        <time>2022-08-24T21:51:05Z</time>
      </trkpt>
      <trkpt lat="44.096" lon="6.28976">
        <ele>923.55</ele>
        <time>2022-08-24T21:51:25Z</time>
      </trkpt>
      <trkpt lat="44.09594" lon="6.28969">
        <ele>921.995</ele>
        <time>2022-08-24T21:51:45Z</time>
      </trkpt>
      <trkpt lat="44.0959" lon="6.28958">
        <ele>917.475</ele>
        <time>2022-08-24T21:52:05Z</time>
      </trkpt>
      <trkpt lat="44.09584" lon="6.28951">
        <ele>917.45</ele>
        <time>2022-08-24T21:52:25Z</time>
      </trkpt>
      <trkpt lat="44.0958" lon="6.28949">
        <ele>916.352</ele>
        <time>2022-08-24T21:52:45Z</time>
      </trkpt>
      <trkpt lat="44.09575" lon="6.28937">
        <ele>914.76</ele>
        <time>2022-08-24T21:53:05Z</time>
      </trkpt>
      <trkpt lat="44.09562" lon="6.28879">
        <ele>902.025</ele>
        <time>2022-08-24T21:53:25Z</time>
      </trkpt>
      <trkpt lat="44.09554" lon="6.28867">
        <ele>902.029</ele>
        <time>2022-08-24T21:53:45Z</time>
      </trkpt>
      <trkpt lat="44.09551" lon="6.28853">
        <ele>902</ele>
        <time>2022-08-24T21:54:05Z</time>
      </trkpt>
      <trkpt lat="44.09519" lon="6.28764">
        <ele>882.82</ele>
        <time>2022-08-24T21:54:25Z</time>
      </trkpt>
      <trkpt lat="44.09509" lon="6.28756">
        <ele>882.409</ele>
        <time>2022-08-24T21:54:45Z</time>
      </trkpt>
      <trkpt lat="44.09506" lon="6.2875">
        <ele>882.063</ele>
        <time>2022-08-24T21:55:05Z</time>
      </trkpt>
      <trkpt lat="44.09509" lon="6.28731">
        <ele>881.013</ele>
        <time>2022-08-24T21:55:25Z</time>
      </trkpt>
      <trkpt lat="44.09506" lon="6.28722">
        <ele>877.613</ele>
        <time>2022-08-24T21:55:45Z</time>
      </trkpt>
      <trkpt lat="44.09504" lon="6.28722">
        <ele>874.228</ele>
        <time>2022-08-24T21:56:05Z</time>
      </trkpt>
      <trkpt lat="44.09512" lon="6.28713">
        <ele>872.528</ele>
        <time>2022-08-24T21:56:25Z</time>
      </trkpt>
      <trkpt lat="44.09522" lon="6.28688">
        <ele>860.513</ele>
        <time>2022-08-24T21:56:45Z</time>
      </trkpt>
      <trkpt lat="44.0952" lon="6.28659">
        <ele>849.345</ele>
        <time>2022-08-24T21:57:05Z</time>
      </trkpt>
      <trkpt lat="44.09523" lon="6.28645">
        <ele>840.733</ele>
        <time>2022-08-24T21:57:25Z</time>
      </trkpt>
      <trkpt lat="44.09516" lon="6.28633">
        <ele>838.548</ele>
        <time>2022-08-24T21:57:45Z</time>
      </trkpt>
      <trkpt lat="44.09525" lon="6.28627">
        <ele>833.783</ele>
        <time>2022-08-24T21:58:05Z</time>
      </trkpt>
      <trkpt lat="44.09526" lon="6.28613">
        <ele>828.125</ele>
        <time>2022-08-24T21:58:25Z</time>
      </trkpt>
      <trkpt lat="44.09535" lon="6.28607">
        <ele>824.417</ele>
        <time>2022-08-24T21:58:45Z</time>
      </trkpt>
      <trkpt lat="44.0954" lon="6.28596">
        <ele>818.209</ele>
        <time>2022-08-24T21:59:05Z</time>
      </trkpt>
      <trkpt lat="44.0955" lon="6.28589">
        <ele>813.669</ele>
        <time>2022-08-24T21:59:25Z</time>
      </trkpt>
      <trkpt lat="44.09543" lon="6.28574">
        <ele>809.369</ele>
        <time>2022-08-24T21:59:45Z</time>
      </trkpt>
      <trkpt lat="44.09553" lon="6.28568">
        <ele>805.489</ele>
        <time>2022-08-24T22:00:05Z</time>
      </trkpt>
      <trkpt lat="44.09551" lon="6.28551">
        <ele>799.684</ele>
        <time>2022-08-24T22:00:25Z</time>
      </trkpt>
      <trkpt lat="44.09544" lon="6.28541">
        <ele>796.664</ele>
        <time>2022-08-24T22:00:45Z</time>
      </trkpt>
      <trkpt lat="44.09549" lon="6.28529">
        <ele>793.479</ele>
        <time>2022-08-24T22:01:05Z</time>
      </trkpt>
      <trkpt lat="44.09558" lon="6.28534">
        <ele>793.491</ele>
        <time>2022-08-24T22:01:25Z</time>
      </trkpt>
      <trkpt lat="44.09574" lon="6.28551">
        <ele>792.289</ele>
        <time>2022-08-24T22:01:45Z</time>
      </trkpt>
      <trkpt lat="44.0957" lon="6.28533">
        <ele>789.284</ele>
        <time>2022-08-24T22:02:05Z</time>
      </trkpt>
      <trkpt lat="44.09563" lon="6.28521">
        <ele>788.537</ele>
        <time>2022-08-24T22:02:25Z</time>
      </trkpt>
      <trkpt lat="44.09575" lon="6.28523">
        <ele>787.049</ele>
        <time>2022-08-24T22:02:45Z</time>
      </trkpt>
      <trkpt lat="44.09585" lon="6.28528">
        <ele>786.413</ele>
        <time>2022-08-24T22:03:05Z</time>
      </trkpt>
      <trkpt lat="44.09592" lon="6.28537">
        <ele>785.809</ele>
        <time>2022-08-24T22:03:25Z</time>
      </trkpt>
      <trkpt lat="44.09593" lon="6.28504">
        <ele>779.674</ele>
        <time>2022-08-24T22:03:45Z</time>
      </trkpt>
      <trkpt lat="44.09603" lon="6.285">
        <ele>774.894</ele>
        <time>2022-08-24T22:04:05Z</time>
      </trkpt>
      <trkpt lat="44.09599" lon="6.28504">
        <ele>772.834</ele>
        <time>2022-08-24T22:04:25Z</time>
      </trkpt>
      <trkpt lat="44.09596" lon="6.28493">
        <ele>772.839</ele>
        <time>2022-08-24T22:04:45Z</time>
      </trkpt>
      <trkpt lat="44.096" lon="6.28489">
        <ele>771.989</ele>
        <time>2022-08-24T22:05:05Z</time>
      </trkpt>
      <trkpt lat="44.09604" lon="6.28489">
        <ele>771.064</ele>
        <time>2022-08-24T22:05:25Z</time>
      </trkpt>
      <trkpt lat="44.09615" lon="6.28502">
        <ele>770.276</ele>
        <time>2022-08-24T22:05:45Z</time>
      </trkpt>
      <trkpt lat="44.09624" lon="6.28484">
        <ele>766.244</ele>
        <time>2022-08-24T22:06:05Z</time>
      </trkpt>
      <trkpt lat="44.09625" lon="6.2847">
        <ele>764.719</ele>
        <time>2022-08-24T22:06:25Z</time>
      </trkpt>
      <trkpt lat="44.09623" lon="6.28462">
        <ele>762.121</ele>
        <time>2022-08-24T22:06:45Z</time>
      </trkpt>
      <trkpt lat="44.09616" lon="6.28463">
        <ele>761.741</ele>
        <time>2022-08-24T22:07:05Z</time>
      </trkpt>
      <trkpt lat="44.09609" lon="6.2846">
        <ele>760.605</ele>
        <time>2022-08-24T22:07:25Z</time>
      </trkpt>
      <trkpt lat="44.09606" lon="6.28457">
        <ele>760.009</ele>
        <time>2022-08-24T22:07:45Z</time>
      </trkpt>
      <trkpt lat="44.09604" lon="6.28448">
        <ele>759.633</ele>
        <time>2022-08-24T22:08:05Z</time>
      </trkpt>
      <trkpt lat="44.09602" lon="6.28415">
        <ele>757.673</ele>
        <time>2022-08-24T22:08:25Z</time>
      </trkpt>
      <trkpt lat="44.09598" lon="6.28403">
        <ele>755.433</ele>
        <time>2022-08-24T22:08:45Z</time>
      </trkpt>
      <trkpt lat="44.09581" lon="6.28385">
        <ele>753.638</ele>
        <time>2022-08-24T22:09:05Z</time>
      </trkpt>
      <trkpt lat="44.09574" lon="6.28354">
        <ele>750.658</ele>
        <time>2022-08-24T22:09:25Z</time>
      </trkpt>
      <trkpt lat="44.09565" lon="6.28334">
        <ele>747.733</ele>
        <time>2022-08-24T22:09:45Z</time>
      </trkpt>
      <trkpt lat="44.09552" lon="6.28294">
        <ele>742.675</ele>
        <time>2022-08-24T22:10:05Z</time>
      </trkpt>
      <trkpt lat="44.0954" lon="6.28276">
        <ele>742.533</ele>
        <time>2022-08-24T22:10:25Z</time>
      </trkpt>
      <trkpt lat="44.09542" lon="6.28278">
        <ele>742.468</ele>
        <time>2022-08-24T22:10:45Z</time>
      </trkpt>
      <trkpt lat="44.09527" lon="6.28267">
        <ele>742.417</ele>
        <time>2022-08-24T22:11:05Z</time>
      </trkpt>
      <trkpt lat="44.09514" lon="6.28261">
        <ele>741.387</ele>
        <time>2022-08-24T22:11:25Z</time>
      </trkpt>
      <trkpt lat="44.09508" lon="6.28262">
        <ele>741.115</ele>
        <time>2022-08-24T22:11:45Z</time>
      </trkpt>
      <trkpt lat="44.0949" lon="6.28247">
        <ele>741.309</ele>
        <time>2022-08-24T22:12:05Z</time>
      </trkpt>
      <trkpt lat="44.09459" lon="6.28229">
        <ele>743.712</ele>
        <time>2022-08-24T22:12:25Z</time>
      </trkpt>
      <trkpt lat="44.09445" lon="6.28228">
        <ele>743.612</ele>
        <time>2022-08-24T22:12:45Z</time>
      </trkpt>
      <trkpt lat="44.09424" lon="6.2824">
        <ele>743.082</ele>
        <time>2022-08-24T22:13:05Z</time>
      </trkpt>
      <trkpt lat="44.0941" lon="6.28244">
        <ele>742.427</ele>
        <time>2022-08-24T22:13:25Z</time>
      </trkpt>
      <trkpt lat="44.09388" lon="6.28245">
        <ele>742.537</ele>
        <time>2022-08-24T22:13:45Z</time>
      </trkpt>
      <trkpt lat="44.09379" lon="6.28249">
        <ele>742.772</ele>
        <time>2022-08-24T22:14:05Z</time>
      </trkpt>
      <trkpt lat="44.09333" lon="6.28243">
        <ele>742.824</ele>
        <time>2022-08-24T22:14:25Z</time>
      </trkpt>
      <trkpt lat="44.09319" lon="6.28246">
        <ele>742.452</ele>
        <time>2022-08-24T22:14:45Z</time>
      </trkpt>
      <trkpt lat="44.09297" lon="6.28245">
        <ele>741.037</ele>
        <time>2022-08-24T22:15:05Z</time>
      </trkpt>
      <trkpt lat="44.09266" lon="6.28254">
        <ele>738.647</ele>
        <time>2022-08-24T22:15:25Z</time>
      </trkpt>
      <trkpt lat="44.09223" lon="6.28241">
        <ele>738.429</ele>
        <time>2022-08-24T22:15:45Z</time>
      </trkpt>
      <trkpt lat="44.09207" lon="6.28233">
        <ele>738.321</ele>
        <time>2022-08-24T22:16:05Z</time>
      </trkpt>
      <trkpt lat="44.09199" lon="6.28226">
        <ele>738.209</ele>
        <time>2022-08-24T22:16:25Z</time>
      </trkpt>
      <trkpt lat="44.09198" lon="6.28221">
        <ele>737.965</ele>
        <time>2022-08-24T22:16:45Z</time>
      </trkpt>
      <trkpt lat="44.092" lon="6.28216">
        <ele>737.725</ele>
        <time>2022-08-24T22:17:05Z</time>
      </trkpt>
      <trkpt lat="44.09208" lon="6.28206">
        <ele>737.335</ele>
        <time>2022-08-24T22:17:25Z</time>
      </trkpt>
      <trkpt lat="44.09205" lon="6.282">
        <ele>737.12</ele>
        <time>2022-08-24T22:17:45Z</time>
      </trkpt>
      <trkpt lat="44.09199" lon="6.28194">
        <ele>735.22</ele>
        <time>2022-08-24T22:18:05Z</time>
      </trkpt>
      <trkpt lat="44.0918" lon="6.28157">
        <ele>729.095</ele>
        <time>2022-08-24T22:18:25Z</time>
      </trkpt>
      <trkpt lat="44.09169" lon="6.2814">
        <ele>727.717</ele>
        <time>2022-08-24T22:18:45Z</time>
      </trkpt>
      <trkpt lat="44.09164" lon="6.28128">
        <ele>726.425</ele>
        <time>2022-08-24T22:19:05Z</time>
      </trkpt>
      <trkpt lat="44.09158" lon="6.28123">
        <ele>726.48</ele>
        <time>2022-08-24T22:19:25Z</time>
      </trkpt>
      <trkpt lat="44.09106" lon="6.28116">
        <ele>723.564</ele>
        <time>2022-08-24T22:19:45Z</time>
      </trkpt>
      <trkpt lat="44.0907" lon="6.28102">
        <ele>721.406</ele>
        <time>2022-08-24T22:20:05Z</time>
      </trkpt>
      <trkpt lat="44.09052" lon="6.28089">
        <ele>721.216</ele>
        <time>2022-08-24T22:20:25Z</time>
      </trkpt>
      <trkpt lat="44.09041" lon="6.2807">
        <ele>720.409</ele>
        <time>2022-08-24T22:20:45Z</time>
      </trkpt>
      <trkpt lat="44.09037" lon="6.28051">
        <ele>719.137</ele>
        <time>2022-08-24T22:21:05Z</time>
      </trkpt>
      <trkpt lat="44.09037" lon="6.28027">
        <ele>717.317</ele>
        <time>2022-08-24T22:21:25Z</time>
      </trkpt>
      <trkpt lat="44.09039" lon="6.28013">
        <ele>715.577</ele>
        <time>2022-08-24T22:21:45Z</time>
      </trkpt>
      <trkpt lat="44.09046" lon="6.27991">
        <ele>714.452</ele>
        <time>2022-08-24T22:22:05Z</time>
      </trkpt>
      <trkpt lat="44.09051" lon="6.27962">
        <ele>713.042</ele>
        <time>2022-08-24T22:22:25Z</time>
      </trkpt>
      <trkpt lat="44.09057" lon="6.27942">
        <ele>710.467</ele>
        <time>2022-08-24T22:22:45Z</time>
      </trkpt>
      <trkpt lat="44.09055" lon="6.27935">
        <ele>708.939</ele>
        <time>2022-08-24T22:23:05Z</time>
      </trkpt>
      <trkpt lat="44.09069" lon="6.2788">
        <ele>697.327</ele>
        <time>2022-08-24T22:23:25Z</time>
      </trkpt>
      <trkpt lat="44.09068" lon="6.27859">
        <ele>696.412</ele>
        <time>2022-08-24T22:23:45Z</time>
      </trkpt>
      <trkpt lat="44.09063" lon="6.27862">
        <ele>695.469</ele>
        <time>2022-08-24T22:24:05Z</time>
      </trkpt>
      <trkpt lat="44.09049" lon="6.27902">
        <ele>689.804</ele>
        <time>2022-08-24T22:24:25Z</time>
      </trkpt>
      <trkpt lat="44.09032" lon="6.27915">
        <ele>688.524</ele>
        <time>2022-08-24T22:24:45Z</time>
      </trkpt>
      <trkpt lat="44.0902" lon="6.27932">
        <ele>686.409</ele>
        <time>2022-08-24T22:25:05Z</time>
      </trkpt>
      <trkpt lat="44.09004" lon="6.2794">
        <ele>685.097</ele>
        <time>2022-08-24T22:25:25Z</time>
      </trkpt>
      <trkpt lat="44.08994" lon="6.27957">
        <ele>683.797</ele>
        <time>2022-08-24T22:25:45Z</time>
      </trkpt>
      <trkpt lat="44.08988" lon="6.27993">
        <ele>681.117</ele>
        <time>2022-08-24T22:26:05Z</time>
      </trkpt>
      <trkpt lat="44.08963" lon="6.28053">
        <ele>671.412</ele>
        <time>2022-08-24T22:26:25Z</time>
      </trkpt>
      <trkpt lat="44.08957" lon="6.28061">
        <ele>670.492</ele>
        <time>2022-08-24T22:26:45Z</time>
      </trkpt>
      <trkpt lat="44.08954" lon="6.28057">
        <ele>669.417</ele>
        <time>2022-08-24T22:27:05Z</time>
      </trkpt>
      <trkpt lat="44.08958" lon="6.2803">
        <ele>669.489</ele>
        <time>2022-08-24T22:27:25Z</time>
      </trkpt>
      <trkpt lat="44.08956" lon="6.2802">
        <ele>663.137</ele>
        <time>2022-08-24T22:27:45Z</time>
      </trkpt>
      <trkpt lat="44.08952" lon="6.28012">
        <ele>662.532</ele>
        <time>2022-08-24T22:28:05Z</time>
      </trkpt>
      <trkpt lat="44.08959" lon="6.27994">
        <ele>662.553</ele>
        <time>2022-08-24T22:28:25Z</time>
      </trkpt>
      <trkpt lat="44.08952" lon="6.28012">
        <ele>663.804</ele>
        <time>2022-08-24T22:28:45Z</time>
      </trkpt>
      <trkpt lat="44.08928" lon="6.28045">
        <ele>660.614</ele>
        <time>2022-08-24T22:29:05Z</time>
      </trkpt>
      <trkpt lat="44.08903" lon="6.28085">
        <ele>662.309</ele>
        <time>2022-08-24T22:29:25Z</time>
      </trkpt>
      <trkpt lat="44.08895" lon="6.28107">
        <ele>662.366</ele>
        <time>2022-08-24T22:29:45Z</time>
      </trkpt>
      <trkpt lat="44.08894" lon="6.2812">
        <ele>662.346</ele>
        <time>2022-08-24T22:30:05Z</time>
      </trkpt>
      <trkpt lat="44.08895" lon="6.28133">
        <ele>662.326</ele>
        <time>2022-08-24T22:30:25Z</time>
      </trkpt>
      <trkpt lat="44.089" lon="6.28159">
        <ele>663.391</ele>
        <time>2022-08-24T22:30:45Z</time>
      </trkpt>
      <trkpt lat="44.08944" lon="6.28252">
        <ele>665.991</ele>
        <time>2022-08-24T22:31:05Z</time>
      </trkpt>
      <trkpt lat="44.08948" lon="6.28283">
        <ele>666.326</ele>
        <time>2022-08-24T22:31:25Z</time>
      </trkpt>
      <trkpt lat="44.08935" lon="6.28306">
        <ele>667.138</ele>
        <time>2022-08-24T22:31:45Z</time>
      </trkpt>
      <trkpt lat="44.08914" lon="6.28333">
        <ele>669.146</ele>
        <time>2022-08-24T22:32:05Z</time>
      </trkpt>
      <trkpt lat="44.08877" lon="6.28341">
        <ele>671.541</ele>
        <time>2022-08-24T22:32:25Z</time>
      </trkpt>
      <trkpt lat="44.08865" lon="6.28354">
        <ele>672.478</ele>
        <time>2022-08-24T22:32:45Z</time>
      </trkpt>
      <trkpt lat="44.0885" lon="6.28395">
        <ele>674.533</ele>
        <time>2022-08-24T22:33:05Z</time>
      </trkpt>
      <trkpt lat="44.08847" lon="6.28428">
        <ele>675.626</ele>
        <time>2022-08-24T22:33:25Z</time>
      </trkpt>
      <trkpt lat="44.08846" lon="6.28448">
        <ele>676.909</ele>
        <time>2022-08-24T22:33:45Z</time>
      </trkpt>
      <trkpt lat="44.08857" lon="6.28475">
        <ele>677.728</ele>
        <time>2022-08-24T22:34:05Z</time>
      </trkpt>
      <trkpt lat="44.08857" lon="6.28501">
        <ele>678.438</ele>
        <time>2022-08-24T22:34:25Z</time>
      </trkpt>
      <trkpt lat="44.08839" lon="6.28559">
        <ele>679.298</ele>
        <time>2022-08-24T22:34:45Z</time>
      </trkpt>
      <trkpt lat="44.08827" lon="6.28578">
        <ele>679.753</ele>
        <time>2022-08-24T22:35:05Z</time>
      </trkpt>
      <trkpt lat="44.08819" lon="6.28585">
        <ele>680.213</ele>
        <time>2022-08-24T22:35:25Z</time>
      </trkpt>
      <trkpt lat="44.08764" lon="6.286">
        <ele>681.398</ele>
        <time>2022-08-24T22:35:45Z</time>
      </trkpt>
      <trkpt lat="44.08754" lon="6.28609">
        <ele>681.44</ele>
        <time>2022-08-24T22:36:05Z</time>
      </trkpt>
      <trkpt lat="44.08751" lon="6.28615">
        <ele>681.548</ele>
        <time>2022-08-24T22:36:25Z</time>
      </trkpt>
      <trkpt lat="44.08749" lon="6.28624">
        <ele>681.993</ele>
        <time>2022-08-24T22:36:45Z</time>
      </trkpt>
      <trkpt lat="44.08751" lon="6.28636">
        <ele>682.514</ele>
        <time>2022-08-24T22:37:05Z</time>
      </trkpt>
      <trkpt lat="44.0875" lon="6.28646">
        <ele>683.254</ele>
        <time>2022-08-24T22:37:25Z</time>
      </trkpt>
      <trkpt lat="44.08744" lon="6.28657">
        <ele>683.709</ele>
        <time>2022-08-24T22:37:45Z</time>
      </trkpt>
      <trkpt lat="44.08728" lon="6.28669">
        <ele>686.509</ele>
        <time>2022-08-24T22:38:05Z</time>
      </trkpt>
      <trkpt lat="44.0872" lon="6.28673">
        <ele>687.382</ele>
        <time>2022-08-24T22:38:25Z</time>
      </trkpt>
      <trkpt lat="44.08709" lon="6.28674">
        <ele>687.322</ele>
        <time>2022-08-24T22:38:45Z</time>
      </trkpt>
      <trkpt lat="44.08703" lon="6.28677">
        <ele>688.182</ele>
        <time>2022-08-24T22:39:05Z</time>
      </trkpt>
      <trkpt lat="44.08695" lon="6.28699">
        <ele>689.747</ele>
        <time>2022-08-24T22:39:25Z</time>
      </trkpt>
      <trkpt lat="44.08675" lon="6.28722">
        <ele>692.697</ele>
        <time>2022-08-24T22:39:45Z</time>
      </trkpt>
      <trkpt lat="44.08661" lon="6.28732">
        <ele>695.592</ele>
        <time>2022-08-24T22:40:05Z</time>
      </trkpt>
      <trkpt lat="44.0865" lon="6.28734">
        <ele>695.524</ele>
        <time>2022-08-24T22:40:25Z</time>
      </trkpt>
      <trkpt lat="44.0864" lon="6.28734">
        <ele>695.562</ele>
        <time>2022-08-24T22:40:45Z</time>
      </trkpt>
      <trkpt lat="44.08627" lon="6.28721">
        <ele>698.777</ele>
        <time>2022-08-24T22:41:05Z</time>
      </trkpt>
      <trkpt lat="44.0862" lon="6.28721">
        <ele>698.759</ele>
        <time>2022-08-24T22:41:25Z</time>
      </trkpt>
      <trkpt lat="44.08615" lon="6.28725">
        <ele>700.903</ele>
        <time>2022-08-24T22:41:45Z</time>
      </trkpt>
      <trkpt lat="44.08614" lon="6.28735">
        <ele>700.923</ele>
        <time>2022-08-24T22:42:05Z</time>
      </trkpt>
      <trkpt lat="44.08604" lon="6.28755">
        <ele>700.909</ele>
        <time>2022-08-24T22:42:25Z</time>
      </trkpt>
      <trkpt lat="44.08599" lon="6.28773">
        <ele>703.776</ele>
        <time>2022-08-24T22:42:45Z</time>
      </trkpt>
      <trkpt lat="44.08596" lon="6.28777">
        <ele>704.726</ele>
        <time>2022-08-24T22:43:05Z</time>
      </trkpt>
      <trkpt lat="44.08595" lon="6.28777">
        <ele>703.746</ele>
        <time>2022-08-24T22:43:25Z</time>
      </trkpt>
      <trkpt lat="44.08591" lon="6.28774">
        <ele>702.741</ele>
        <time>2022-08-24T22:43:45Z</time>
      </trkpt>
      <trkpt lat="44.08582" lon="6.28736">
        <ele>707.141</ele>
        <time>2022-08-24T22:44:05Z</time>
      </trkpt>
      <trkpt lat="44.08582" lon="6.28723">
        <ele>708.176</ele>
        <time>2022-08-24T22:44:25Z</time>
      </trkpt>
      <trkpt lat="44.08574" lon="6.28699">
        <ele>710.988</ele>
        <time>2022-08-24T22:44:45Z</time>
      </trkpt>
      <trkpt lat="44.08573" lon="6.28686">
        <ele>716.366</ele>
        <time>2022-08-24T22:45:05Z</time>
      </trkpt>
      <trkpt lat="44.08582" lon="6.28647">
        <ele>722.361</ele>
        <time>2022-08-24T22:45:25Z</time>
      </trkpt>
      <trkpt lat="44.08579" lon="6.28634">
        <ele>723.472</ele>
        <time>2022-08-24T22:45:45Z</time>
      </trkpt>
      <trkpt lat="44.08561" lon="6.28626">
        <ele>728.813</ele>
        <time>2022-08-24T22:46:05Z</time>
      </trkpt>
      <trkpt lat="44.08554" lon="6.28618">
        <ele>735.814</ele>
        <time>2022-08-24T22:46:25Z</time>
      </trkpt>
      <trkpt lat="44.08558" lon="6.28591">
        <ele>739.009</ele>
        <time>2022-08-24T22:46:45Z</time>
      </trkpt>
      <trkpt lat="44.08585" lon="6.28581">
        <ele>731.638</ele>
        <time>2022-08-24T22:47:05Z</time>
      </trkpt>
      <trkpt lat="44.08607" lon="6.28584">
        <ele>727.328</ele>
        <time>2022-08-24T22:47:25Z</time>
      </trkpt>
      <trkpt lat="44.08619" lon="6.28577">
        <ele>721.698</ele>
        <time>2022-08-24T22:47:45Z</time>
      </trkpt>
      <trkpt lat="44.08634" lon="6.28558">
        <ele>719.273</ele>
        <time>2022-08-24T22:48:05Z</time>
      </trkpt>
      <trkpt lat="44.08645" lon="6.28556">
        <ele>716.073</ele>
        <time>2022-08-24T22:48:25Z</time>
      </trkpt>
      <trkpt lat="44.08648" lon="6.28544">
        <ele>714.158</ele>
        <time>2022-08-24T22:48:45Z</time>
      </trkpt>
      <trkpt lat="44.08654" lon="6.28534">
        <ele>713.81</ele>
        <time>2022-08-24T22:49:05Z</time>
      </trkpt>
      <trkpt lat="44.08645" lon="6.2851">
        <ele>714.948</ele>
        <time>2022-08-24T22:49:25Z</time>
      </trkpt>
      <trkpt lat="44.08632" lon="6.28497">
        <ele>719.413</ele>
        <time>2022-08-24T22:49:45Z</time>
      </trkpt>
      <trkpt lat="44.08626" lon="6.28488">
        <ele>721.883</ele>
        <time>2022-08-24T22:50:05Z</time>
      </trkpt>
      <trkpt lat="44.08609" lon="6.28473">
        <ele>727.525</ele>
        <time>2022-08-24T22:50:25Z</time>
      </trkpt>
      <trkpt lat="44.08587" lon="6.28472">
        <ele>734.817</ele>
        <time>2022-08-24T22:50:45Z</time>
      </trkpt>
      <trkpt lat="44.08577" lon="6.2847">
        <ele>740.209</ele>
        <time>2022-08-24T22:51:05Z</time>
      </trkpt>
      <trkpt lat="44.08559" lon="6.28464">
        <ele>744.839</ele>
        <time>2022-08-24T22:51:25Z</time>
      </trkpt>
      <trkpt lat="44.08551" lon="6.28469">
        <ele>749.479</ele>
        <time>2022-08-24T22:51:45Z</time>
      </trkpt>
      <trkpt lat="44.08541" lon="6.28471">
        <ele>751.149</ele>
        <time>2022-08-24T22:52:05Z</time>
      </trkpt>
      <trkpt lat="44.08521" lon="6.28469">
        <ele>757.434</ele>
        <time>2022-08-24T22:52:25Z</time>
      </trkpt>
      <trkpt lat="44.08495" lon="6.28449">
        <ele>769.094</ele>
        <time>2022-08-24T22:52:45Z</time>
      </trkpt>
      <trkpt lat="44.08485" lon="6.28412">
        <ele>770.449</ele>
        <time>2022-08-24T22:53:05Z</time>
      </trkpt>
      <trkpt lat="44.08479" lon="6.28403">
        <ele>771.221</ele>
        <time>2022-08-24T22:53:25Z</time>
      </trkpt>
      <trkpt lat="44.08465" lon="6.28386">
        <ele>774.489</ele>
        <time>2022-08-24T22:53:45Z</time>
      </trkpt>
      <trkpt lat="44.08431" lon="6.28361">
        <ele>789.034</ele>
        <time>2022-08-24T22:54:05Z</time>
      </trkpt>
      <trkpt lat="44.08413" lon="6.28352">
        <ele>792.493</ele>
        <time>2022-08-24T22:54:25Z</time>
      </trkpt>
      <trkpt lat="44.08404" lon="6.28346">
        <ele>797.565</ele>
        <time>2022-08-24T22:54:45Z</time>
      </trkpt>
      <trkpt lat="44.08395" lon="6.28339">
        <ele>799.221</ele>
        <time>2022-08-24T22:55:05Z</time>
      </trkpt>
      <trkpt lat="44.08369" lon="6.28321">
        <ele>810.609</ele>
        <time>2022-08-24T22:55:25Z</time>
      </trkpt>
      <trkpt lat="44.08363" lon="6.28311">
        <ele>811.21</ele>
        <time>2022-08-24T22:55:45Z</time>
      </trkpt>
      <trkpt lat="44.08332" lon="6.28278">
        <ele>817.54</ele>
        <time>2022-08-24T22:56:05Z</time>
      </trkpt>
      <trkpt lat="44.08328" lon="6.28255">
        <ele>817.49</ele>
        <time>2022-08-24T22:56:25Z</time>
      </trkpt>
      <trkpt lat="44.08289" lon="6.28251">
        <ele>817.345</ele>
        <time>2022-08-24T22:56:45Z</time>
      </trkpt>
      <trkpt lat="44.08242" lon="6.28221">
        <ele>817.395</ele>
        <time>2022-08-24T22:57:05Z</time>
      </trkpt>
      <trkpt lat="44.08195" lon="6.2823">
        <ele>874.38</ele>
        <time>2022-08-24T22:57:25Z</time>
      </trkpt>
      <trkpt lat="44.08131" lon="6.28176">
        <ele>874.322</ele>
        <time>2022-08-24T22:57:45Z</time>
      </trkpt>
      <trkpt lat="44.08099" lon="6.28135">
        <ele>874.39</ele>
        <time>2022-08-24T22:58:05Z</time>
      </trkpt>
      <trkpt lat="44.08108" lon="6.28129">
        <ele>873.545</ele>
        <time>2022-08-24T22:58:25Z</time>
      </trkpt>
      <trkpt lat="44.08127" lon="6.28105">
        <ele>871.683</ele>
        <time>2022-08-24T22:58:45Z</time>
      </trkpt>
      <trkpt lat="44.08127" lon="6.28076">
        <ele>868.925</ele>
        <time>2022-08-24T22:59:05Z</time>
      </trkpt>
      <trkpt lat="44.08113" lon="6.28035">
        <ele>858.617</ele>
        <time>2022-08-24T22:59:25Z</time>
      </trkpt>
      <trkpt lat="44.0809" lon="6.2799">
        <ele>853.009</ele>
        <time>2022-08-24T22:59:45Z</time>
      </trkpt>
      <trkpt lat="44.08042" lon="6.27963">
        <ele>842.379</ele>
        <time>2022-08-24T23:00:05Z</time>
      </trkpt>
      <trkpt lat="44.08022" lon="6.27956">
        <ele>839.649</ele>
        <time>2022-08-24T23:00:25Z</time>
      </trkpt>
      <trkpt lat="44.08004" lon="6.2793">
        <ele>832.049</ele>
        <time>2022-08-24T23:00:45Z</time>
      </trkpt>
      <trkpt lat="44.07981" lon="6.27848">
        <ele>809.414</ele>
        <time>2022-08-24T23:01:05Z</time>
      </trkpt>
      <trkpt lat="44.07982" lon="6.27826">
        <ele>806.914</ele>
        <time>2022-08-24T23:01:25Z</time>
      </trkpt>
      <trkpt lat="44.07972" lon="6.27764">
        <ele>788.859</ele>
        <time>2022-08-24T23:01:45Z</time>
      </trkpt>
      <trkpt lat="44.07953" lon="6.27685">
        <ele>776.591</ele>
        <time>2022-08-24T23:02:05Z</time>
      </trkpt>
      <trkpt lat="44.07952" lon="6.27666">
        <ele>775.139</ele>
        <time>2022-08-24T23:02:25Z</time>
      </trkpt>
      <trkpt lat="44.0796" lon="6.27632">
        <ele>772.594</ele>
        <time>2022-08-24T23:02:45Z</time>
      </trkpt>
      <trkpt lat="44.07969" lon="6.27617">
        <ele>770.883</ele>
        <time>2022-08-24T23:03:05Z</time>
      </trkpt>
      <trkpt lat="44.07976" lon="6.27598">
        <ele>769.925</ele>
        <time>2022-08-24T23:03:25Z</time>
      </trkpt>
      <trkpt lat="44.07977" lon="6.27572">
        <ele>769.817</ele>
        <time>2022-08-24T23:03:45Z</time>
      </trkpt>
      <trkpt lat="44.07972" lon="6.27527">
        <ele>770.409</ele>
        <time>2022-08-24T23:04:05Z</time>
      </trkpt>
      <trkpt lat="44.07974" lon="6.27503">
        <ele>770.499</ele>
        <time>2022-08-24T23:04:25Z</time>
      </trkpt>
      <trkpt lat="44.07972" lon="6.2746">
        <ele>770.029</ele>
        <time>2022-08-24T23:04:45Z</time>
      </trkpt>
      <trkpt lat="44.07976" lon="6.27417">
        <ele>768.959</ele>
        <time>2022-08-24T23:05:05Z</time>
      </trkpt>
      <trkpt lat="44.07971" lon="6.2739">
        <ele>768.354</ele>
        <time>2022-08-24T23:05:25Z</time>
      </trkpt>
      <trkpt lat="44.07976" lon="6.27355">
        <ele>766.484</ele>
        <time>2022-08-24T23:05:45Z</time>
      </trkpt>
      <trkpt lat="44.07972" lon="6.2729">
        <ele>759.969</ele>
        <time>2022-08-24T23:06:05Z</time>
      </trkpt>
      <trkpt lat="44.07968" lon="6.27271">
        <ele>758.411</ele>
        <time>2022-08-24T23:06:25Z</time>
      </trkpt>
      <trkpt lat="44.07972" lon="6.27254">
        <ele>756.439</ele>
        <time>2022-08-24T23:06:45Z</time>
      </trkpt>
      <trkpt lat="44.07991" lon="6.27237">
        <ele>755.734</ele>
        <time>2022-08-24T23:07:05Z</time>
      </trkpt>
      <trkpt lat="44.07995" lon="6.27226">
        <ele>755.437</ele>
        <time>2022-08-24T23:07:25Z</time>
      </trkpt>
      <trkpt lat="44.07992" lon="6.27213">
        <ele>755.349</ele>
        <time>2022-08-24T23:07:45Z</time>
      </trkpt>
      <trkpt lat="44.07992" lon="6.272">
        <ele>755.013</ele>
        <time>2022-08-24T23:08:05Z</time>
      </trkpt>
      <trkpt lat="44.07984" lon="6.2719">
        <ele>755.009</ele>
        <time>2022-08-24T23:08:25Z</time>
      </trkpt>
      <trkpt lat="44.07976" lon="6.2719">
        <ele>755.294</ele>
        <time>2022-08-24T23:08:45Z</time>
      </trkpt>
      <trkpt lat="44.07963" lon="6.27178">
        <ele>755.484</ele>
        <time>2022-08-24T23:09:05Z</time>
      </trkpt>
      <trkpt lat="44.07969" lon="6.2718">
        <ele>755.674</ele>
        <time>2022-08-24T23:09:25Z</time>
      </trkpt>
      <trkpt lat="44.07976" lon="6.2719">
        <ele>755.699</ele>
        <time>2022-08-24T23:09:45Z</time>
      </trkpt>
      <trkpt lat="44.07984" lon="6.2719">
        <ele>755.579</ele>
        <time>2022-08-24T23:10:05Z</time>
      </trkpt>
      <trkpt lat="44.07992" lon="6.272">
        <ele>755.164</ele>
        <time>2022-08-24T23:10:25Z</time>
      </trkpt>
      <trkpt lat="44.07992" lon="6.27213">
        <ele>755.016</ele>
        <time>2022-08-24T23:10:45Z</time>
      </trkpt>
      <trkpt lat="44.07995" lon="6.27226">
        <ele>755.044</ele>
        <time>2022-08-24T23:11:05Z</time>
      </trkpt>
      <trkpt lat="44.07991" lon="6.27237">
        <ele>755.399</ele>
        <time>2022-08-24T23:11:25Z</time>
      </trkpt>
      <trkpt lat="44.07972" lon="6.27254">
        <ele>755.756</ele>
        <time>2022-08-24T23:11:45Z</time>
      </trkpt>
      <trkpt lat="44.07968" lon="6.27271">
        <ele>756.459</ele>
        <time>2022-08-24T23:12:05Z</time>
      </trkpt>
      <trkpt lat="44.07972" lon="6.2729">
        <ele>758.714</ele>
        <time>2022-08-24T23:12:25Z</time>
      </trkpt>
      <trkpt lat="44.07972" lon="6.27314">
        <ele>761.309</ele>
        <time>2022-08-24T23:12:45Z</time>
      </trkpt>
      <trkpt lat="44.07968" lon="6.27305">
        <ele>761.446</ele>
        <time>2022-08-24T23:13:05Z</time>
      </trkpt>
      <trkpt lat="44.07928" lon="6.27294">
        <ele>756.766</ele>
        <time>2022-08-24T23:13:25Z</time>
      </trkpt>
      <trkpt lat="44.07911" lon="6.27297">
        <ele>756.066</ele>
        <time>2022-08-24T23:13:45Z</time>
      </trkpt>
      <trkpt lat="44.07886" lon="6.27298">
        <ele>753.951</ele>
        <time>2022-08-24T23:14:05Z</time>
      </trkpt>
      <trkpt lat="44.07875" lon="6.27314">
        <ele>751.751</ele>
        <time>2022-08-24T23:14:25Z</time>
      </trkpt>
      <trkpt lat="44.07856" lon="6.27331">
        <ele>750.036</ele>
        <time>2022-08-24T23:14:45Z</time>
      </trkpt>
      <trkpt lat="44.07844" lon="6.27332">
        <ele>748.358</ele>
        <time>2022-08-24T23:15:05Z</time>
      </trkpt>
      <trkpt lat="44.07834" lon="6.27338">
        <ele>747.546</ele>
        <time>2022-08-24T23:15:25Z</time>
      </trkpt>
      <trkpt lat="44.07826" lon="6.27332">
        <ele>746.661</ele>
        <time>2022-08-24T23:15:45Z</time>
      </trkpt>
      <trkpt lat="44.07816" lon="6.2734">
        <ele>745.545</ele>
        <time>2022-08-24T23:16:05Z</time>
      </trkpt>
      <trkpt lat="44.07806" lon="6.27351">
        <ele>743.847</ele>
        <time>2022-08-24T23:16:25Z</time>
      </trkpt>
      <trkpt lat="44.078" lon="6.27366">
        <ele>742.311</ele>
        <time>2022-08-24T23:16:45Z</time>
      </trkpt>
      <trkpt lat="44.07795" lon="6.27386">
        <ele>739.909</ele>
        <time>2022-08-24T23:17:05Z</time>
      </trkpt>
      <trkpt lat="44.0779" lon="6.27386">
        <ele>738.825</ele>
        <time>2022-08-24T23:17:25Z</time>
      </trkpt>
      <trkpt lat="44.07785" lon="6.27381">
        <ele>738.885</ele>
        <time>2022-08-24T23:17:45Z</time>
      </trkpt>
      <trkpt lat="44.07774" lon="6.27381">
        <ele>738.555</ele>
        <time>2022-08-24T23:18:05Z</time>
      </trkpt>
      <trkpt lat="44.07771" lon="6.27376">
        <ele>738.27</ele>
        <time>2022-08-24T23:18:25Z</time>
      </trkpt>
      <trkpt lat="44.07762" lon="6.27383">
        <ele>736.45</ele>
        <time>2022-08-24T23:18:45Z</time>
      </trkpt>
      <trkpt lat="44.07753" lon="6.27378">
        <ele>735.145</ele>
        <time>2022-08-24T23:19:05Z</time>
      </trkpt>
      <trkpt lat="44.07751" lon="6.27366">
        <ele>733.287</ele>
        <time>2022-08-24T23:19:25Z</time>
      </trkpt>
      <trkpt lat="44.07748" lon="6.27361">
        <ele>733.075</ele>
        <time>2022-08-24T23:19:45Z</time>
      </trkpt>
      <trkpt lat="44.07741" lon="6.27358">
        <ele>732.82</ele>
        <time>2022-08-24T23:20:05Z</time>
      </trkpt>
      <trkpt lat="44.07733" lon="6.27357">
        <ele>732.674</ele>
        <time>2022-08-24T23:20:25Z</time>
      </trkpt>
      <trkpt lat="44.07725" lon="6.2736">
        <ele>732.456</ele>
        <time>2022-08-24T23:20:45Z</time>
      </trkpt>
      <trkpt lat="44.07723" lon="6.27372">
        <ele>732.121</ele>
        <time>2022-08-24T23:21:05Z</time>
      </trkpt>
      <trkpt lat="44.07694" lon="6.27376">
        <ele>729.609</ele>
        <time>2022-08-24T23:21:25Z</time>
      </trkpt>
      <trkpt lat="44.07684" lon="6.2737">
        <ele>729.558</ele>
        <time>2022-08-24T23:21:45Z</time>
      </trkpt>
      <trkpt lat="44.07676" lon="6.27368">
        <ele>729.438</ele>
        <time>2022-08-24T23:22:05Z</time>
      </trkpt>
      <trkpt lat="44.0764" lon="6.27386">
        <ele>725.948</ele>
        <time>2022-08-24T23:22:25Z</time>
      </trkpt>
      <trkpt lat="44.07619" lon="6.27383">
        <ele>725.633</ele>
        <time>2022-08-24T23:22:45Z</time>
      </trkpt>
      <trkpt lat="44.07608" lon="6.27386">
        <ele>725.323</ele>
        <time>2022-08-24T23:23:05Z</time>
      </trkpt>
      <trkpt lat="44.07594" lon="6.27381">
        <ele>725.338</ele>
        <time>2022-08-24T23:23:25Z</time>
      </trkpt>
      <trkpt lat="44.07592" lon="6.27374">
        <ele>725.65</ele>
        <time>2022-08-24T23:23:45Z</time>
      </trkpt>
      <trkpt lat="44.07574" lon="6.27351">
        <ele>730.438</ele>
        <time>2022-08-24T23:24:05Z</time>
      </trkpt>
      <trkpt lat="44.07557" lon="6.27338">
        <ele>734.583</ele>
        <time>2022-08-24T23:24:25Z</time>
      </trkpt>
      <trkpt lat="44.07539" lon="6.27345">
        <ele>736.759</ele>
        <time>2022-08-24T23:24:45Z</time>
      </trkpt>
      <trkpt lat="44.07538" lon="6.27334">
        <ele>738.103</ele>
        <time>2022-08-24T23:25:05Z</time>
      </trkpt>
      <trkpt lat="44.07534" lon="6.27328">
        <ele>738.123</ele>
        <time>2022-08-24T23:25:25Z</time>
      </trkpt>
      <trkpt lat="44.07522" lon="6.27318">
        <ele>737.809</ele>
        <time>2022-08-24T23:25:45Z</time>
      </trkpt>
      <trkpt lat="44.07515" lon="6.27303">
        <ele>736.046</ele>
        <time>2022-08-24T23:26:05Z</time>
      </trkpt>
      <trkpt lat="44.07501" lon="6.27289">
        <ele>732.466</ele>
        <time>2022-08-24T23:26:25Z</time>
      </trkpt>
      <trkpt lat="44.07491" lon="6.27266">
        <ele>729.836</ele>
        <time>2022-08-24T23:26:45Z</time>
      </trkpt>
      <trkpt lat="44.07499" lon="6.27265">
        <ele>728.151</ele>
        <time>2022-08-24T23:27:05Z</time>
      </trkpt>
      <trkpt lat="44.07516" lon="6.27274">
        <ele>727.751</ele>
        <time>2022-08-24T23:27:25Z</time>
      </trkpt>
      <trkpt lat="44.07527" lon="6.27292">
        <ele>721.146</ele>
        <time>2022-08-24T23:27:45Z</time>
      </trkpt>
      <trkpt lat="44.07547" lon="6.27307">
        <ele>717.968</ele>
        <time>2022-08-24T23:28:05Z</time>
      </trkpt>
      <trkpt lat="44.07562" lon="6.27313">
        <ele>714.486</ele>
        <time>2022-08-24T23:28:25Z</time>
      </trkpt>
      <trkpt lat="44.0758" lon="6.27326">
        <ele>712.331</ele>
        <time>2022-08-24T23:28:45Z</time>
      </trkpt>
      <trkpt lat="44.07585" lon="6.27323">
        <ele>711.415</ele>
        <time>2022-08-24T23:29:05Z</time>
      </trkpt>
      <trkpt lat="44.07573" lon="6.27302">
        <ele>711.065</ele>
        <time>2022-08-24T23:29:25Z</time>
      </trkpt>
      <trkpt lat="44.07566" lon="6.27276">
        <ele>711.011</ele>
        <time>2022-08-24T23:29:45Z</time>
      </trkpt>
      <trkpt lat="44.07556" lon="6.27185">
        <ele>708.309</ele>
        <time>2022-08-24T23:30:05Z</time>
      </trkpt>
      <trkpt lat="44.07556" lon="6.27165">
        <ele>708.492</ele>
        <time>2022-08-24T23:30:25Z</time>
      </trkpt>
      <trkpt lat="44.07562" lon="6.27083">
        <ele>710.292</ele>
        <time>2022-08-24T23:30:45Z</time>
      </trkpt>
      <trkpt lat="44.07578" lon="6.2703">
        <ele>711.342</ele>
        <time>2022-08-24T23:31:05Z</time>
      </trkpt>
      <trkpt lat="44.07582" lon="6.27006">
        <ele>711.277</ele>
        <time>2022-08-24T23:31:25Z</time>
      </trkpt>
      <trkpt lat="44.07577" lon="6.26988">
        <ele>710.847</ele>
        <time>2022-08-24T23:31:45Z</time>
      </trkpt>
      <trkpt lat="44.07579" lon="6.26981">
        <ele>710.572</ele>
        <time>2022-08-24T23:32:05Z</time>
      </trkpt>
      <trkpt lat="44.07608" lon="6.26948">
        <ele>706.424</ele>
        <time>2022-08-24T23:32:25Z</time>
      </trkpt>
      <trkpt lat="44.07572" lon="6.26959">
        <ele>699.422</ele>
        <time>2022-08-24T23:32:45Z</time>
      </trkpt>
      <trkpt lat="44.07562" lon="6.26969">
        <ele>697.687</ele>
        <time>2022-08-24T23:33:05Z</time>
      </trkpt>
      <trkpt lat="44.07554" lon="6.26982">
        <ele>695.856</ele>
        <time>2022-08-24T23:33:25Z</time>
      </trkpt>
      <trkpt lat="44.07549" lon="6.26983">
        <ele>692.859</ele>
        <time>2022-08-24T23:33:45Z</time>
      </trkpt>
      <trkpt lat="44.0754" lon="6.27047">
        <ele>689.014</ele>
        <time>2022-08-24T23:34:05Z</time>
      </trkpt>
      <trkpt lat="44.07526" lon="6.27085">
        <ele>687.109</ele>
        <time>2022-08-24T23:34:25Z</time>
      </trkpt>
      <trkpt lat="44.07518" lon="6.27094">
        <ele>686.796</ele>
        <time>2022-08-24T23:34:45Z</time>
      </trkpt>
      <trkpt lat="44.07508" lon="6.27098">
        <ele>686.316</ele>
        <time>2022-08-24T23:35:05Z</time>
      </trkpt>
      <trkpt lat="44.07491" lon="6.27095">
        <ele>685.586</ele>
        <time>2022-08-24T23:35:25Z</time>
      </trkpt>
      <trkpt lat="44.07461" lon="6.27087">
        <ele>685.091</ele>
        <time>2022-08-24T23:35:45Z</time>
      </trkpt>
      <trkpt lat="44.07434" lon="6.27087">
        <ele>685.251</ele>
        <time>2022-08-24T23:36:05Z</time>
      </trkpt>
      <trkpt lat="44.07417" lon="6.2709">
        <ele>685.366</ele>
        <time>2022-08-24T23:36:25Z</time>
      </trkpt>
      <trkpt lat="44.07407" lon="6.27094">
        <ele>685.778</ele>
        <time>2022-08-24T23:36:45Z</time>
      </trkpt>
      <trkpt lat="44.07394" lon="6.27104">
        <ele>686.016</ele>
        <time>2022-08-24T23:37:05Z</time>
      </trkpt>
      <trkpt lat="44.07365" lon="6.27117">
        <ele>706.781</ele>
        <time>2022-08-24T23:37:25Z</time>
      </trkpt>
      <trkpt lat="44.07361" lon="6.27101">
        <ele>696.172</ele>
        <time>2022-08-24T23:37:45Z</time>
      </trkpt>
      <trkpt lat="44.07353" lon="6.27105">
        <ele>685.913</ele>
        <time>2022-08-24T23:38:05Z</time>
      </trkpt>
      <trkpt lat="44.07322" lon="6.27103">
        <ele>686.414</ele>
        <time>2022-08-24T23:38:25Z</time>
      </trkpt>
      <trkpt lat="44.07297" lon="6.27078">
        <ele>686.809</ele>
        <time>2022-08-24T23:38:45Z</time>
      </trkpt>
      <trkpt lat="44.07291" lon="6.27076">
        <ele>686.838</ele>
        <time>2022-08-24T23:39:05Z</time>
      </trkpt>
      <trkpt lat="44.07283" lon="6.2708">
        <ele>686.888</ele>
        <time>2022-08-24T23:39:25Z</time>
      </trkpt>
      <trkpt lat="44.07277" lon="6.27078">
        <ele>687.218</ele>
        <time>2022-08-24T23:39:45Z</time>
      </trkpt>
      <trkpt lat="44.0727" lon="6.2708">
        <ele>687.673</ele>
        <time>2022-08-24T23:40:05Z</time>
      </trkpt>
      <trkpt lat="44.07266" lon="6.27087">
        <ele>687.613</ele>
        <time>2022-08-24T23:40:25Z</time>
      </trkpt>
      <trkpt lat="44.07263" lon="6.27104">
        <ele>687.758</ele>
        <time>2022-08-24T23:40:45Z</time>
      </trkpt>
      <trkpt lat="44.07252" lon="6.27113">
        <ele>688.14</ele>
        <time>2022-08-24T23:41:05Z</time>
      </trkpt>
      <trkpt lat="44.07229" lon="6.27126">
        <ele>688.948</ele>
        <time>2022-08-24T23:41:25Z</time>
      </trkpt>
      <trkpt lat="44.07223" lon="6.27148">
        <ele>689.413</ele>
        <time>2022-08-24T23:41:45Z</time>
      </trkpt>
      <trkpt lat="44.0721" lon="6.27164">
        <ele>690.071</ele>
        <time>2022-08-24T23:42:05Z</time>
      </trkpt>
      <trkpt lat="44.07164" lon="6.27176">
        <ele>691.341</ele>
        <time>2022-08-24T23:42:25Z</time>
      </trkpt>
      <trkpt lat="44.0712" lon="6.27179">
        <ele>693.315</ele>
        <time>2022-08-24T23:42:45Z</time>
      </trkpt>
      <trkpt lat="44.07097" lon="6.27176">
        <ele>693.609</ele>
        <time>2022-08-24T23:43:05Z</time>
      </trkpt>
      <trkpt lat="44.0707" lon="6.2718">
        <ele>694.498</ele>
        <time>2022-08-24T23:43:25Z</time>
      </trkpt>
      <trkpt lat="44.07069" lon="6.2718">
        <ele>694.498</ele>
        <time>2022-08-24T23:43:45Z</time>
      </trkpt>
      <trkpt lat="44.07064" lon="6.27159">
        <ele>694.448</ele>
        <time>2022-08-24T23:44:05Z</time>
      </trkpt>
      <trkpt lat="44.07065" lon="6.27143">
        <ele>694.383</ele>
        <time>2022-08-24T23:44:25Z</time>
      </trkpt>
      <trkpt lat="44.07068" lon="6.27134">
        <ele>694.293</ele>
        <time>2022-08-24T23:44:45Z</time>
      </trkpt>
      <trkpt lat="44.07078" lon="6.2713">
        <ele>694.278</ele>
        <time>2022-08-24T23:45:05Z</time>
      </trkpt>
      <trkpt lat="44.07086" lon="6.2713">
        <ele>694.34</ele>
        <time>2022-08-24T23:45:25Z</time>
      </trkpt>
      <trkpt lat="44.07097" lon="6.27123">
        <ele>694.898</ele>
        <time>2022-08-24T23:45:45Z</time>
      </trkpt>
      <trkpt lat="44.07126" lon="6.27059">
        <ele>701.263</ele>
        <time>2022-08-24T23:46:05Z</time>
      </trkpt>
      <trkpt lat="44.07155" lon="6.27016">
        <ele>704.263</ele>
        <time>2022-08-24T23:46:25Z</time>
      </trkpt>
      <trkpt lat="44.07178" lon="6.26997">
        <ele>705.544</ele>
        <time>2022-08-24T23:46:45Z</time>
      </trkpt>
      <trkpt lat="44.07222" lon="6.26979">
        <ele>711.218</ele>
        <time>2022-08-24T23:47:05Z</time>
      </trkpt>
      <trkpt lat="44.07267" lon="6.2696">
        <ele>718.309</ele>
        <time>2022-08-24T23:47:25Z</time>
      </trkpt>
      <trkpt lat="44.07273" lon="6.26955">
        <ele>718.367</ele>
        <time>2022-08-24T23:47:45Z</time>
      </trkpt>
      <trkpt lat="44.07277" lon="6.26946">
        <ele>718.317</ele>
        <time>2022-08-24T23:48:05Z</time>
      </trkpt>
      <trkpt lat="44.07273" lon="6.26918">
        <ele>718.657</ele>
        <time>2022-08-24T23:48:25Z</time>
      </trkpt>
      <trkpt lat="44.07274" lon="6.26913">
        <ele>718.932</ele>
        <time>2022-08-24T23:48:45Z</time>
      </trkpt>
      <trkpt lat="44.07278" lon="6.26909">
        <ele>718.912</ele>
        <time>2022-08-24T23:49:05Z</time>
      </trkpt>
      <trkpt lat="44.07283" lon="6.26908">
        <ele>721.717</ele>
        <time>2022-08-24T23:49:25Z</time>
      </trkpt>
      <trkpt lat="44.07295" lon="6.26911">
        <ele>724.529</ele>
        <time>2022-08-24T23:49:45Z</time>
      </trkpt>
      <trkpt lat="44.07314" lon="6.26919">
        <ele>725.887</ele>
        <time>2022-08-24T23:50:05Z</time>
      </trkpt>
      <trkpt lat="44.07318" lon="6.26919">
        <ele>727.122</ele>
        <time>2022-08-24T23:50:25Z</time>
      </trkpt>
      <trkpt lat="44.07369" lon="6.26889">
        <ele>732.826</ele>
        <time>2022-08-24T23:50:45Z</time>
      </trkpt>
      <trkpt lat="44.07443" lon="6.26833">
        <ele>741.747</ele>
        <time>2022-08-24T23:51:05Z</time>
      </trkpt>
      <trkpt lat="44.07454" lon="6.26822">
        <ele>742.411</ele>
        <time>2022-08-24T23:51:25Z</time>
      </trkpt>
      <trkpt lat="44.07456" lon="6.26812">
        <ele>743.109</ele>
        <time>2022-08-24T23:51:45Z</time>
      </trkpt>
      <trkpt lat="44.07456" lon="6.26763">
        <ele>748.383</ele>
        <time>2022-08-24T23:52:05Z</time>
      </trkpt>
      <trkpt lat="44.07439" lon="6.26709">
        <ele>752.823</ele>
        <time>2022-08-24T23:52:25Z</time>
      </trkpt>
      <trkpt lat="44.07436" lon="6.26697">
        <ele>752.813</ele>
        <time>2022-08-24T23:52:45Z</time>
      </trkpt>
      <trkpt lat="44.07437" lon="6.26688">
        <ele>752.828</ele>
        <time>2022-08-24T23:53:05Z</time>
      </trkpt>
      <trkpt lat="44.07442" lon="6.26684">
        <ele>753.238</ele>
        <time>2022-08-24T23:53:25Z</time>
      </trkpt>
      <trkpt lat="44.07447" lon="6.26685">
        <ele>753.633</ele>
        <time>2022-08-24T23:53:45Z</time>
      </trkpt>
      <trkpt lat="44.07465" lon="6.26701">
        <ele>754.995</ele>
        <time>2022-08-24T23:54:05Z</time>
      </trkpt>
      <trkpt lat="44.0748" lon="6.26708">
        <ele>757.623</ele>
        <time>2022-08-24T23:54:25Z</time>
      </trkpt>
      <trkpt lat="44.07491" lon="6.26704">
        <ele>759.728</ele>
        <time>2022-08-24T23:54:45Z</time>
      </trkpt>
      <trkpt lat="44.07514" lon="6.2668">
        <ele>762.218</ele>
        <time>2022-08-24T23:55:05Z</time>
      </trkpt>
      <trkpt lat="44.07532" lon="6.2667">
        <ele>764.698</ele>
        <time>2022-08-24T23:55:25Z</time>
      </trkpt>
      <trkpt lat="44.07547" lon="6.26665">
        <ele>768.117</ele>
        <time>2022-08-24T23:55:45Z</time>
      </trkpt>
      <trkpt lat="44.07555" lon="6.2666">
        <ele>769.209</ele>
        <time>2022-08-24T23:56:05Z</time>
      </trkpt>
      <trkpt lat="44.07557" lon="6.26651">
        <ele>769.292</ele>
        <time>2022-08-24T23:56:25Z</time>
      </trkpt>
      <trkpt lat="44.07558" lon="6.26652">
        <ele>769.882</ele>
        <time>2022-08-24T23:56:45Z</time>
      </trkpt>
      <trkpt lat="44.07556" lon="6.26645">
        <ele>770.472</ele>
        <time>2022-08-24T23:57:05Z</time>
      </trkpt>
      <trkpt lat="44.0755" lon="6.26643">
        <ele>770.417</ele>
        <time>2022-08-24T23:57:25Z</time>
      </trkpt>
      <trkpt lat="44.07527" lon="6.26657">
        <ele>773.557</ele>
        <time>2022-08-24T23:57:45Z</time>
      </trkpt>
      <trkpt lat="44.07512" lon="6.26661">
        <ele>776.252</ele>
        <time>2022-08-24T23:58:05Z</time>
      </trkpt>
      <trkpt lat="44.07487" lon="6.26664">
        <ele>778.764</ele>
        <time>2022-08-24T23:58:25Z</time>
      </trkpt>
      <trkpt lat="44.07482" lon="6.2666">
        <ele>780.472</ele>
        <time>2022-08-24T23:58:45Z</time>
      </trkpt>
      <trkpt lat="44.0748" lon="6.26653">
        <ele>780.427</ele>
        <time>2022-08-24T23:59:05Z</time>
      </trkpt>
      <trkpt lat="44.07489" lon="6.26637">
        <ele>780.743</ele>
        <time>2022-08-24T23:59:25Z</time>
      </trkpt>
      <trkpt lat="44.07508" lon="6.26636">
        <ele>783.564</ele>
        <time>2022-08-24T23:59:45Z</time>
      </trkpt>
      <trkpt lat="44.07517" lon="6.26632">
        <ele>784.61</ele>
        <time>2022-08-25T00:00:05Z</time>
      </trkpt>
      <trkpt lat="44.07523" lon="6.26618">
        <ele>785.109</ele>
        <time>2022-08-25T00:00:25Z</time>
      </trkpt>
      <trkpt lat="44.07529" lon="6.2656">
        <ele>786.495</ele>
        <time>2022-08-25T00:00:45Z</time>
      </trkpt>
      <trkpt lat="44.0751" lon="6.26549">
        <ele>785.755</ele>
        <time>2022-08-25T00:01:05Z</time>
      </trkpt>
      <trkpt lat="44.07492" lon="6.26525">
        <ele>783.545</ele>
        <time>2022-08-25T00:01:25Z</time>
      </trkpt>
      <trkpt lat="44.0749" lon="6.26512">
        <ele>781.89</ele>
        <time>2022-08-25T00:01:45Z</time>
      </trkpt>
      <trkpt lat="44.07445" lon="6.26448">
        <ele>782.36</ele>
        <time>2022-08-25T00:02:05Z</time>
      </trkpt>
      <trkpt lat="44.07401" lon="6.26383">
        <ele>787.245</ele>
        <time>2022-08-25T00:02:25Z</time>
      </trkpt>
      <trkpt lat="44.07376" lon="6.26337">
        <ele>792.627</ele>
        <time>2022-08-25T00:02:45Z</time>
      </trkpt>
      <trkpt lat="44.07334" lon="6.26271">
        <ele>798.935</ele>
        <time>2022-08-25T00:03:05Z</time>
      </trkpt>
      <trkpt lat="44.07313" lon="6.26221">
        <ele>804.28</ele>
        <time>2022-08-25T00:03:25Z</time>
      </trkpt>
      <trkpt lat="44.07299" lon="6.26205">
        <ele>805.228</ele>
        <time>2022-08-25T00:03:45Z</time>
      </trkpt>
      <trkpt lat="44.07267" lon="6.26144">
        <ele>809.289</ele>
        <time>2022-08-25T00:04:05Z</time>
      </trkpt>
      <trkpt lat="44.07233" lon="6.26059">
        <ele>817.217</ele>
        <time>2022-08-25T00:04:25Z</time>
      </trkpt>
      <trkpt lat="44.07209" lon="6.25959">
        <ele>826.209</ele>
        <time>2022-08-25T00:04:45Z</time>
      </trkpt>
      <trkpt lat="44.07187" lon="6.25894">
        <ele>831.433</ele>
        <time>2022-08-25T00:05:05Z</time>
      </trkpt>
      <trkpt lat="44.07167" lon="6.25844">
        <ele>835.133</ele>
        <time>2022-08-25T00:05:25Z</time>
      </trkpt>
      <trkpt lat="44.07143" lon="6.25821">
        <ele>836.713</ele>
        <time>2022-08-25T00:05:45Z</time>
      </trkpt>
      <trkpt lat="44.07121" lon="6.25782">
        <ele>837.968</ele>
        <time>2022-08-25T00:06:05Z</time>
      </trkpt>
      <trkpt lat="44.07104" lon="6.25717">
        <ele>840.918</ele>
        <time>2022-08-25T00:06:25Z</time>
      </trkpt>
      <trkpt lat="44.07088" lon="6.25652">
        <ele>845.213</ele>
        <time>2022-08-25T00:06:45Z</time>
      </trkpt>
      <trkpt lat="44.07116" lon="6.25683">
        <ele>837.915</ele>
        <time>2022-08-25T00:07:05Z</time>
      </trkpt>
      <trkpt lat="44.07122" lon="6.25696">
        <ele>837.023</ele>
        <time>2022-08-25T00:07:25Z</time>
      </trkpt>
      <trkpt lat="44.07126" lon="6.25714">
        <ele>836.118</ele>
        <time>2022-08-25T00:07:45Z</time>
      </trkpt>
      <trkpt lat="44.07136" lon="6.25731">
        <ele>833.092</ele>
        <time>2022-08-25T00:08:05Z</time>
      </trkpt>
      <trkpt lat="44.07147" lon="6.25741">
        <ele>832.573</ele>
        <time>2022-08-25T00:08:25Z</time>
      </trkpt>
      <trkpt lat="44.07156" lon="6.25743">
        <ele>832.92</ele>
        <time>2022-08-25T00:08:45Z</time>
      </trkpt>
      <trkpt lat="44.07166" lon="6.25738">
        <ele>833.809</ele>
        <time>2022-08-25T00:09:05Z</time>
      </trkpt>
      <trkpt lat="44.07188" lon="6.25752">
        <ele>836.34</ele>
        <time>2022-08-25T00:09:25Z</time>
      </trkpt>
      <trkpt lat="44.07211" lon="6.25776">
        <ele>841.65</ele>
        <time>2022-08-25T00:09:45Z</time>
      </trkpt>
      <trkpt lat="44.07223" lon="6.25785">
        <ele>842.18</ele>
        <time>2022-08-25T00:10:05Z</time>
      </trkpt>
      <trkpt lat="44.07233" lon="6.25792">
        <ele>842.635</ele>
        <time>2022-08-25T00:10:25Z</time>
      </trkpt>
      <trkpt lat="44.0724" lon="6.25793">
        <ele>843.665</ele>
        <time>2022-08-25T00:10:45Z</time>
      </trkpt>
      <trkpt lat="44.07257" lon="6.25801">
        <ele>843.61</ele>
        <time>2022-08-25T00:11:05Z</time>
      </trkpt>
      <trkpt lat="44.07275" lon="6.2582">
        <ele>847.652</ele>
        <time>2022-08-25T00:11:25Z</time>
      </trkpt>
      <trkpt lat="44.07286" lon="6.25835">
        <ele>849.09</ele>
        <time>2022-08-25T00:11:45Z</time>
      </trkpt>
      <trkpt lat="44.07291" lon="6.25839">
        <ele>849.775</ele>
        <time>2022-08-25T00:12:05Z</time>
      </trkpt>
      <trkpt lat="44.0729" lon="6.25826">
        <ele>850.548</ele>
        <time>2022-08-25T00:12:25Z</time>
      </trkpt>
      <trkpt lat="44.07284" lon="6.25805">
        <ele>852.861</ele>
        <time>2022-08-25T00:12:45Z</time>
      </trkpt>
      <trkpt lat="44.07264" lon="6.25783">
        <ele>855.917</ele>
        <time>2022-08-25T00:13:05Z</time>
      </trkpt>
      <trkpt lat="44.07258" lon="6.25766">
        <ele>857.309</ele>
        <time>2022-08-25T00:13:25Z</time>
      </trkpt>
      <trkpt lat="44.07246" lon="6.25762">
        <ele>857.945</ele>
        <time>2022-08-25T00:13:45Z</time>
      </trkpt>
      <trkpt lat="44.0724" lon="6.25751">
        <ele>859.045</ele>
        <time>2022-08-25T00:14:05Z</time>
      </trkpt>
      <trkpt lat="44.07234" lon="6.25725">
        <ele>861.265</ele>
        <time>2022-08-25T00:14:25Z</time>
      </trkpt>
      <trkpt lat="44.07226" lon="6.2571">
        <ele>863.03</ele>
        <time>2022-08-25T00:14:45Z</time>
      </trkpt>
      <trkpt lat="44.07205" lon="6.25684">
        <ele>866.31</ele>
        <time>2022-08-25T00:15:05Z</time>
      </trkpt>
      <trkpt lat="44.07183" lon="6.25645">
        <ele>869.965</ele>
        <time>2022-08-25T00:15:25Z</time>
      </trkpt>
      <trkpt lat="44.07173" lon="6.25613">
        <ele>872.467</ele>
        <time>2022-08-25T00:15:45Z</time>
      </trkpt>
      <trkpt lat="44.07165" lon="6.25597">
        <ele>874.955</ele>
        <time>2022-08-25T00:16:05Z</time>
      </trkpt>
      <trkpt lat="44.0716" lon="6.25575">
        <ele>875.78</ele>
        <time>2022-08-25T00:16:25Z</time>
      </trkpt>
      <trkpt lat="44.07152" lon="6.25568">
        <ele>876.561</ele>
        <time>2022-08-25T00:16:45Z</time>
      </trkpt>
      <trkpt lat="44.07156" lon="6.25541">
        <ele>879.521</ele>
        <time>2022-08-25T00:17:05Z</time>
      </trkpt>
      <trkpt lat="44.07142" lon="6.25491">
        <ele>883.713</ele>
        <time>2022-08-25T00:17:25Z</time>
      </trkpt>
      <trkpt lat="44.07128" lon="6.25453">
        <ele>887.509</ele>
        <time>2022-08-25T00:17:45Z</time>
      </trkpt>
      <trkpt lat="44.0712" lon="6.25401">
        <ele>893.517</ele>
        <time>2022-08-25T00:18:05Z</time>
      </trkpt>
      <trkpt lat="44.07093" lon="6.2534">
        <ele>898.297</ele>
        <time>2022-08-25T00:18:25Z</time>
      </trkpt>
      <trkpt lat="44.07066" lon="6.25278">
        <ele>904.577</ele>
        <time>2022-08-25T00:18:45Z</time>
      </trkpt>
      <trkpt lat="44.07077" lon="6.25241">
        <ele>907.732</ele>
        <time>2022-08-25T00:19:05Z</time>
      </trkpt>
      <trkpt lat="44.07065" lon="6.2521">
        <ele>908.882</ele>
        <time>2022-08-25T00:19:25Z</time>
      </trkpt>
      <trkpt lat="44.07066" lon="6.2521">
        <ele>909.947</ele>
        <time>2022-08-25T00:19:45Z</time>
      </trkpt>
      <trkpt lat="44.07047" lon="6.25213">
        <ele>909.929</ele>
        <time>2022-08-25T00:20:05Z</time>
      </trkpt>
      <trkpt lat="44.07038" lon="6.25195">
        <ele>912.557</ele>
        <time>2022-08-25T00:20:25Z</time>
      </trkpt>
      <trkpt lat="44.07033" lon="6.25168">
        <ele>913.912</ele>
        <time>2022-08-25T00:20:45Z</time>
      </trkpt>
      <trkpt lat="44.06995" lon="6.25101">
        <ele>923.253</ele>
        <time>2022-08-25T00:21:05Z</time>
      </trkpt>
      <trkpt lat="44.06973" lon="6.25076">
        <ele>925.204</ele>
        <time>2022-08-25T00:21:25Z</time>
      </trkpt>
      <trkpt lat="44.06942" lon="6.25059">
        <ele>928.514</ele>
        <time>2022-08-25T00:21:45Z</time>
      </trkpt>
      <trkpt lat="44.06912" lon="6.25052">
        <ele>934.009</ele>
        <time>2022-08-25T00:22:05Z</time>
      </trkpt>
      <trkpt lat="44.06894" lon="6.25053">
        <ele>935.376</ele>
        <time>2022-08-25T00:22:25Z</time>
      </trkpt>
      <trkpt lat="44.06891" lon="6.2505">
        <ele>936.686</ele>
        <time>2022-08-25T00:22:45Z</time>
      </trkpt>
      <trkpt lat="44.06895" lon="6.25047">
        <ele>936.686</ele>
        <time>2022-08-25T00:23:05Z</time>
      </trkpt>
      <trkpt lat="44.06945" lon="6.25037">
        <ele>944.561</ele>
        <time>2022-08-25T00:23:25Z</time>
      </trkpt>
      <trkpt lat="44.06948" lon="6.25035">
        <ele>944.511</ele>
        <time>2022-08-25T00:23:45Z</time>
      </trkpt>
      <trkpt lat="44.06946" lon="6.25031">
        <ele>944.596</ele>
        <time>2022-08-25T00:24:05Z</time>
      </trkpt>
      <trkpt lat="44.06921" lon="6.2502">
        <ele>946.438</ele>
        <time>2022-08-25T00:24:25Z</time>
      </trkpt>
      <trkpt lat="44.06876" lon="6.25012">
        <ele>954.416</ele>
        <time>2022-08-25T00:24:45Z</time>
      </trkpt>
      <trkpt lat="44.06866" lon="6.25008">
        <ele>955.011</ele>
        <time>2022-08-25T00:25:05Z</time>
      </trkpt>
      <trkpt lat="44.06849" lon="6.25018">
        <ele>956.584</ele>
        <time>2022-08-25T00:25:25Z</time>
      </trkpt>
      <trkpt lat="44.06823" lon="6.25024">
        <ele>958.207</ele>
        <time>2022-08-25T00:25:45Z</time>
      </trkpt>
      <trkpt lat="44.06811" lon="6.25022">
        <ele>959.417</ele>
        <time>2022-08-25T00:26:05Z</time>
      </trkpt>
      <trkpt lat="44.06802" lon="6.24999">
        <ele>960.809</ele>
        <time>2022-08-25T00:26:25Z</time>
      </trkpt>
      <trkpt lat="44.06793" lon="6.24952">
        <ele>965.239</ele>
        <time>2022-08-25T00:26:45Z</time>
      </trkpt>
      <trkpt lat="44.06786" lon="6.24938">
        <ele>965.719</ele>
        <time>2022-08-25T00:27:05Z</time>
      </trkpt>
      <trkpt lat="44.06785" lon="6.24923">
        <ele>966.249</ele>
        <time>2022-08-25T00:27:25Z</time>
      </trkpt>
      <trkpt lat="44.06763" lon="6.24907">
        <ele>968.134</ele>
        <time>2022-08-25T00:27:45Z</time>
      </trkpt>
      <trkpt lat="44.06756" lon="6.24884">
        <ele>969.574</ele>
        <time>2022-08-25T00:28:05Z</time>
      </trkpt>
      <trkpt lat="44.06742" lon="6.24869">
        <ele>971.019</ele>
        <time>2022-08-25T00:28:25Z</time>
      </trkpt>
      <trkpt lat="44.06745" lon="6.24851">
        <ele>972.361</ele>
        <time>2022-08-25T00:28:45Z</time>
      </trkpt>
      <trkpt lat="44.0675" lon="6.24838">
        <ele>972.829</ele>
        <time>2022-08-25T00:29:05Z</time>
      </trkpt>
      <trkpt lat="44.06753" lon="6.2481">
        <ele>975.444</ele>
        <time>2022-08-25T00:29:25Z</time>
      </trkpt>
      <trkpt lat="44.06758" lon="6.24798">
        <ele>976.554</ele>
        <time>2022-08-25T00:29:45Z</time>
      </trkpt>
      <trkpt lat="44.06755" lon="6.24797">
        <ele>976.756</ele>
        <time>2022-08-25T00:30:05Z</time>
      </trkpt>
      <trkpt lat="44.06737" lon="6.24804">
        <ele>976.711</ele>
        <time>2022-08-25T00:30:25Z</time>
      </trkpt>
      <trkpt lat="44.06724" lon="6.24802">
        <ele>979.909</ele>
        <time>2022-08-25T00:30:45Z</time>
      </trkpt>
      <trkpt lat="44.06707" lon="6.24812">
        <ele>981.336</ele>
        <time>2022-08-25T00:31:05Z</time>
      </trkpt>
      <trkpt lat="44.06699" lon="6.2482">
        <ele>982.536</ele>
        <time>2022-08-25T00:31:25Z</time>
      </trkpt>
      <trkpt lat="44.06693" lon="6.24821">
        <ele>983.196</ele>
        <time>2022-08-25T00:31:45Z</time>
      </trkpt>
      <trkpt lat="44.06688" lon="6.24818">
        <ele>983.541</ele>
        <time>2022-08-25T00:32:05Z</time>
      </trkpt>
      <trkpt lat="44.06679" lon="6.24789">
        <ele>985.151</ele>
        <time>2022-08-25T00:32:25Z</time>
      </trkpt>
      <trkpt lat="44.06668" lon="6.24775">
        <ele>987.616</ele>
        <time>2022-08-25T00:32:45Z</time>
      </trkpt>
      <trkpt lat="44.06664" lon="6.24761">
        <ele>988.938</ele>
        <time>2022-08-25T00:33:05Z</time>
      </trkpt>
      <trkpt lat="44.06658" lon="6.24749">
        <ele>989.546</ele>
        <time>2022-08-25T00:33:25Z</time>
      </trkpt>
      <trkpt lat="44.06663" lon="6.24744">
        <ele>991.521</ele>
        <time>2022-08-25T00:33:45Z</time>
      </trkpt>
      <trkpt lat="44.06667" lon="6.24746">
        <ele>991.811</ele>
        <time>2022-08-25T00:34:05Z</time>
      </trkpt>
      <trkpt lat="44.06677" lon="6.2476">
        <ele>992.421</ele>
        <time>2022-08-25T00:34:25Z</time>
      </trkpt>
      <trkpt lat="44.06688" lon="6.24766">
        <ele>994.903</ele>
        <time>2022-08-25T00:34:45Z</time>
      </trkpt>
      <trkpt lat="44.06704" lon="6.24772">
        <ele>996.109</ele>
        <time>2022-08-25T00:35:05Z</time>
      </trkpt>
      <trkpt lat="44.06711" lon="6.2477">
        <ele>996.942</ele>
        <time>2022-08-25T00:35:25Z</time>
      </trkpt>
      <trkpt lat="44.06719" lon="6.24764">
        <ele>998.112</ele>
        <time>2022-08-25T00:35:45Z</time>
      </trkpt>
      <trkpt lat="44.06725" lon="6.24764">
        <ele>998.722</ele>
        <time>2022-08-25T00:36:05Z</time>
      </trkpt>
      <trkpt lat="44.06692" lon="6.24736">
        <ele>1006.947</ele>
        <time>2022-08-25T00:36:25Z</time>
      </trkpt>
      <trkpt lat="44.06672" lon="6.24706">
        <ele>1012.027</ele>
        <time>2022-08-25T00:36:45Z</time>
      </trkpt>
      <trkpt lat="44.06668" lon="6.24705">
        <ele>1012.082</ele>
        <time>2022-08-25T00:37:05Z</time>
      </trkpt>
      <trkpt lat="44.06664" lon="6.247">
        <ele>1012.084</ele>
        <time>2022-08-25T00:37:25Z</time>
      </trkpt>
      <trkpt lat="44.06669" lon="6.24697">
        <ele>1012.022</ele>
        <time>2022-08-25T00:37:45Z</time>
      </trkpt>
      <trkpt lat="44.06677" lon="6.24697">
        <ele>1012.037</ele>
        <time>2022-08-25T00:38:05Z</time>
      </trkpt>
      <trkpt lat="44.06694" lon="6.24693">
        <ele>1018.539</ele>
        <time>2022-08-25T00:38:25Z</time>
      </trkpt>
      <trkpt lat="44.06663" lon="6.24671">
        <ele>1025.801</ele>
        <time>2022-08-25T00:38:45Z</time>
      </trkpt>
      <trkpt lat="44.06652" lon="6.24646">
        <ele>1027.521</ele>
        <time>2022-08-25T00:39:05Z</time>
      </trkpt>
      <trkpt lat="44.06634" lon="6.24638">
        <ele>1029.209</ele>
        <time>2022-08-25T00:39:25Z</time>
      </trkpt>
      <trkpt lat="44.06602" lon="6.24604">
        <ele>1033.364</ele>
        <time>2022-08-25T00:39:45Z</time>
      </trkpt>
      <trkpt lat="44.06568" lon="6.24592">
        <ele>1037.264</ele>
        <time>2022-08-25T00:40:05Z</time>
      </trkpt>
      <trkpt lat="44.06568" lon="6.24593">
        <ele>1037.234</ele>
        <time>2022-08-25T00:40:25Z</time>
      </trkpt>
      <trkpt lat="44.06593" lon="6.24582">
        <ele>1037.249</ele>
        <time>2022-08-25T00:40:45Z</time>
      </trkpt>
      <trkpt lat="44.0664" lon="6.24593">
        <ele>1045.959</ele>
        <time>2022-08-25T00:41:05Z</time>
      </trkpt>
      <trkpt lat="44.06685" lon="6.24612">
        <ele>1048.544</ele>
        <time>2022-08-25T00:41:25Z</time>
      </trkpt>
      <trkpt lat="44.06711" lon="6.24618">
        <ele>1050.246</ele>
        <time>2022-08-25T00:41:45Z</time>
      </trkpt>
      <trkpt lat="44.06735" lon="6.2464">
        <ele>1054.724</ele>
        <time>2022-08-25T00:42:05Z</time>
      </trkpt>
      <trkpt lat="44.06742" lon="6.24642">
        <ele>1055.029</ele>
        <time>2022-08-25T00:42:25Z</time>
      </trkpt>
      <trkpt lat="44.06749" lon="6.24641">
        <ele>1055.331</ele>
        <time>2022-08-25T00:42:45Z</time>
      </trkpt>
      <trkpt lat="44.06759" lon="6.24636">
        <ele>1055.961</ele>
        <time>2022-08-25T00:43:05Z</time>
      </trkpt>
      <trkpt lat="44.06751" lon="6.2463">
        <ele>1057.507</ele>
        <time>2022-08-25T00:43:25Z</time>
      </trkpt>
      <trkpt lat="44.06738" lon="6.24628">
        <ele>1059.709</ele>
        <time>2022-08-25T00:43:45Z</time>
      </trkpt>
      <trkpt lat="44.06742" lon="6.24616">
        <ele>1064.924</ele>
        <time>2022-08-25T00:44:05Z</time>
      </trkpt>
      <trkpt lat="44.06747" lon="6.24613">
        <ele>1066.984</ele>
        <time>2022-08-25T00:44:25Z</time>
      </trkpt>
      <trkpt lat="44.06751" lon="6.24605">
        <ele>1067.344</ele>
        <time>2022-08-25T00:44:45Z</time>
      </trkpt>
      <trkpt lat="44.06766" lon="6.24603">
        <ele>1069.429</ele>
        <time>2022-08-25T00:45:05Z</time>
      </trkpt>
      <trkpt lat="44.06772" lon="6.24594">
        <ele>1074.119</ele>
        <time>2022-08-25T00:45:25Z</time>
      </trkpt>
      <trkpt lat="44.06773" lon="6.24588">
        <ele>1074.174</ele>
        <time>2022-08-25T00:45:45Z</time>
      </trkpt>
      <trkpt lat="44.06767" lon="6.24576">
        <ele>1074.186</ele>
        <time>2022-08-25T00:46:05Z</time>
      </trkpt>
      <trkpt lat="44.0679" lon="6.24537">
        <ele>1082.834</ele>
        <time>2022-08-25T00:46:25Z</time>
      </trkpt>
      <trkpt lat="44.06794" lon="6.24537">
        <ele>1082.869</ele>
        <time>2022-08-25T00:46:45Z</time>
      </trkpt>
      <trkpt lat="44.06803" lon="6.24531">
        <ele>1082.811</ele>
        <time>2022-08-25T00:47:05Z</time>
      </trkpt>
      <trkpt lat="44.06825" lon="6.24512">
        <ele>1082.421</ele>
        <time>2022-08-25T00:47:25Z</time>
      </trkpt>
      <trkpt lat="44.06821" lon="6.24482">
        <ele>1080.603</ele>
        <time>2022-08-25T00:47:45Z</time>
      </trkpt>
      <trkpt lat="44.06813" lon="6.24446">
        <ele>1075.809</ele>
        <time>2022-08-25T00:48:05Z</time>
      </trkpt>
      <trkpt lat="44.06815" lon="6.24396">
        <ele>1073.332</ele>
        <time>2022-08-25T00:48:25Z</time>
      </trkpt>
      <trkpt lat="44.06828" lon="6.24355">
        <ele>1073.142</ele>
        <time>2022-08-25T00:48:45Z</time>
      </trkpt>
      <trkpt lat="44.0684" lon="6.24343">
        <ele>1072.912</ele>
        <time>2022-08-25T00:49:05Z</time>
      </trkpt>
      <trkpt lat="44.06836" lon="6.24314">
        <ele>1071.227</ele>
        <time>2022-08-25T00:49:25Z</time>
      </trkpt>
      <trkpt lat="44.06842" lon="6.24308">
        <ele>1069.717</ele>
        <time>2022-08-25T00:49:45Z</time>
      </trkpt>
      <trkpt lat="44.06854" lon="6.24311">
        <ele>1069.742</ele>
        <time>2022-08-25T00:50:05Z</time>
      </trkpt>
      <trkpt lat="44.0687" lon="6.2431">
        <ele>1064.414</ele>
        <time>2022-08-25T00:50:25Z</time>
      </trkpt>
      <trkpt lat="44.06881" lon="6.24303">
        <ele>1060.922</ele>
        <time>2022-08-25T00:50:45Z</time>
      </trkpt>
      <trkpt lat="44.06903" lon="6.24277">
        <ele>1056.137</ele>
        <time>2022-08-25T00:51:05Z</time>
      </trkpt>
      <trkpt lat="44.0691" lon="6.24258">
        <ele>1054.685</ele>
        <time>2022-08-25T00:51:25Z</time>
      </trkpt>
      <trkpt lat="44.06925" lon="6.24243">
        <ele>1051.089</ele>
        <time>2022-08-25T00:51:45Z</time>
      </trkpt>
      <trkpt lat="44.06936" lon="6.24241">
        <ele>1048.917</ele>
        <time>2022-08-25T00:52:05Z</time>
      </trkpt>
      <trkpt lat="44.06967" lon="6.24223">
        <ele>1044.209</ele>
        <time>2022-08-25T00:52:25Z</time>
      </trkpt>
      <trkpt lat="44.06971" lon="6.24224">
        <ele>1043.979</ele>
        <time>2022-08-25T00:52:45Z</time>
      </trkpt>
      <trkpt lat="44.06998" lon="6.24216">
        <ele>1039.399</ele>
        <time>2022-08-25T00:53:05Z</time>
      </trkpt>
      <trkpt lat="44.07039" lon="6.24233">
        <ele>1028.229</ele>
        <time>2022-08-25T00:53:25Z</time>
      </trkpt>
      <trkpt lat="44.07057" lon="6.24224">
        <ele>1024.864</ele>
        <time>2022-08-25T00:53:45Z</time>
      </trkpt>
      <trkpt lat="44.07078" lon="6.24209">
        <ele>1019.124</ele>
        <time>2022-08-25T00:54:05Z</time>
      </trkpt>
      <trkpt lat="44.07094" lon="6.24201">
        <ele>1015.259</ele>
        <time>2022-08-25T00:54:25Z</time>
      </trkpt>
      <trkpt lat="44.07134" lon="6.24213">
        <ele>1008.561</ele>
        <time>2022-08-25T00:54:45Z</time>
      </trkpt>
      <trkpt lat="44.07155" lon="6.24238">
        <ele>1006.649</ele>
        <time>2022-08-25T00:55:05Z</time>
      </trkpt>
      <trkpt lat="44.07175" lon="6.24244">
        <ele>1005.594</ele>
        <time>2022-08-25T00:55:25Z</time>
      </trkpt>
      <trkpt lat="44.07242" lon="6.24289">
        <ele>990.041</ele>
        <time>2022-08-25T00:55:45Z</time>
      </trkpt>
      <trkpt lat="44.07252" lon="6.24291">
        <ele>989.781</ele>
        <time>2022-08-25T00:56:05Z</time>
      </trkpt>
      <trkpt lat="44.07266" lon="6.24299">
        <ele>989.409</ele>
        <time>2022-08-25T00:56:25Z</time>
      </trkpt>
      <trkpt lat="44.07293" lon="6.24304">
        <ele>984.009</ele>
        <time>2022-08-25T00:56:45Z</time>
      </trkpt>
      <trkpt lat="44.07303" lon="6.24312">
        <ele>983.455</ele>
        <time>2022-08-25T00:57:05Z</time>
      </trkpt>
      <trkpt lat="44.07342" lon="6.24331">
        <ele>981.275</ele>
        <time>2022-08-25T00:57:25Z</time>
      </trkpt>
      <trkpt lat="44.07398" lon="6.24343">
        <ele>982.265</ele>
        <time>2022-08-25T00:57:45Z</time>
      </trkpt>
      <trkpt lat="44.07404" lon="6.24339">
        <ele>982.24</ele>
        <time>2022-08-25T00:58:05Z</time>
      </trkpt>
      <trkpt lat="44.07414" lon="6.24327">
        <ele>982.27</ele>
        <time>2022-08-25T00:58:25Z</time>
      </trkpt>
      <trkpt lat="44.07435" lon="6.24292">
        <ele>981.435</ele>
        <time>2022-08-25T00:58:45Z</time>
      </trkpt>
      <trkpt lat="44.0748" lon="6.24254">
        <ele>978.737</ele>
        <time>2022-08-25T00:59:05Z</time>
      </trkpt>
      <trkpt lat="44.07497" lon="6.24225">
        <ele>978.545</ele>
        <time>2022-08-25T00:59:25Z</time>
      </trkpt>
      <trkpt lat="44.07509" lon="6.2419">
        <ele>977.84</ele>
        <time>2022-08-25T00:59:45Z</time>
      </trkpt>
      <trkpt lat="44.0753" lon="6.24141">
        <ele>976.342</ele>
        <time>2022-08-25T01:00:05Z</time>
      </trkpt>
      <trkpt lat="44.07556" lon="6.24093">
        <ele>974.322</ele>
        <time>2022-08-25T01:00:25Z</time>
      </trkpt>
      <trkpt lat="44.07604" lon="6.24053">
        <ele>969.314</ele>
        <time>2022-08-25T01:00:45Z</time>
      </trkpt>
      <trkpt lat="44.07626" lon="6.24027">
        <ele>966.509</ele>
        <time>2022-08-25T01:01:05Z</time>
      </trkpt>
      <trkpt lat="44.07638" lon="6.24005">
        <ele>965.565</ele>
        <time>2022-08-25T01:01:25Z</time>
      </trkpt>
      <trkpt lat="44.07646" lon="6.23997">
        <ele>964.555</ele>
        <time>2022-08-25T01:01:45Z</time>
      </trkpt>
      <trkpt lat="44.07676" lon="6.23986">
        <ele>958.995</ele>
        <time>2022-08-25T01:02:05Z</time>
      </trkpt>
      <trkpt lat="44.07714" lon="6.23961">
        <ele>955.41</ele>
        <time>2022-08-25T01:02:25Z</time>
      </trkpt>
      <trkpt lat="44.07755" lon="6.23952">
        <ele>951.06</ele>
        <time>2022-08-25T01:02:45Z</time>
      </trkpt>
      <trkpt lat="44.0777" lon="6.23965">
        <ele>949.845</ele>
        <time>2022-08-25T01:03:05Z</time>
      </trkpt>
      <trkpt lat="44.07791" lon="6.23963">
        <ele>946.087</ele>
        <time>2022-08-25T01:03:25Z</time>
      </trkpt>
      <trkpt lat="44.07834" lon="6.2398">
        <ele>929.835</ele>
        <time>2022-08-25T01:03:45Z</time>
      </trkpt>
      <trkpt lat="44.07863" lon="6.23979">
        <ele>921.07</ele>
        <time>2022-08-25T01:04:05Z</time>
      </trkpt>
      <trkpt lat="44.07883" lon="6.23976">
        <ele>919.153</ele>
        <time>2022-08-25T01:04:25Z</time>
      </trkpt>
      <trkpt lat="44.07892" lon="6.23969">
        <ele>916.104</ele>
        <time>2022-08-25T01:04:45Z</time>
      </trkpt>
      <trkpt lat="44.07897" lon="6.23956">
        <ele>915.014</ele>
        <time>2022-08-25T01:05:05Z</time>
      </trkpt>
      <trkpt lat="44.07924" lon="6.2392">
        <ele>909.309</ele>
        <time>2022-08-25T01:05:25Z</time>
      </trkpt>
      <trkpt lat="44.0794" lon="6.23893">
        <ele>908.266</ele>
        <time>2022-08-25T01:05:45Z</time>
      </trkpt>
      <trkpt lat="44.07964" lon="6.2388">
        <ele>904.596</ele>
        <time>2022-08-25T01:06:05Z</time>
      </trkpt>
      <trkpt lat="44.07978" lon="6.23892">
        <ele>900.416</ele>
        <time>2022-08-25T01:06:25Z</time>
      </trkpt>
      <trkpt lat="44.07981" lon="6.23908">
        <ele>897.891</ele>
        <time>2022-08-25T01:06:45Z</time>
      </trkpt>
      <trkpt lat="44.08006" lon="6.23934">
        <ele>890.191</ele>
        <time>2022-08-25T01:07:05Z</time>
      </trkpt>
      <trkpt lat="44.08044" lon="6.23957">
        <ele>888.226</ele>
        <time>2022-08-25T01:07:25Z</time>
      </trkpt>
      <trkpt lat="44.0805" lon="6.23956">
        <ele>888.138</ele>
        <time>2022-08-25T01:07:45Z</time>
      </trkpt>
      <trkpt lat="44.0807" lon="6.2396">
        <ele>888.096</ele>
        <time>2022-08-25T01:08:05Z</time>
      </trkpt>
      <trkpt lat="44.08074" lon="6.23954">
        <ele>885.561</ele>
        <time>2022-08-25T01:08:25Z</time>
      </trkpt>
      <trkpt lat="44.08086" lon="6.23949">
        <ele>884.746</ele>
        <time>2022-08-25T01:08:45Z</time>
      </trkpt>
      <trkpt lat="44.08099" lon="6.2393">
        <ele>881.788</ele>
        <time>2022-08-25T01:09:05Z</time>
      </trkpt>
      <trkpt lat="44.08112" lon="6.23916">
        <ele>878.916</ele>
        <time>2022-08-25T01:09:25Z</time>
      </trkpt>
      <trkpt lat="44.08133" lon="6.23865">
        <ele>875.809</ele>
        <time>2022-08-25T01:09:45Z</time>
      </trkpt>
      <trkpt lat="44.08143" lon="6.23854">
        <ele>875.925</ele>
        <time>2022-08-25T01:10:05Z</time>
      </trkpt>
      <trkpt lat="44.08151" lon="6.23856">
        <ele>875.865</ele>
        <time>2022-08-25T01:10:25Z</time>
      </trkpt>
      <trkpt lat="44.08155" lon="6.23854">
        <ele>875.795</ele>
        <time>2022-08-25T01:10:45Z</time>
      </trkpt>
      <trkpt lat="44.08155" lon="6.23807">
        <ele>869.16</ele>
        <time>2022-08-25T01:11:05Z</time>
      </trkpt>
      <trkpt lat="44.08169" lon="6.2379">
        <ele>868.12</ele>
        <time>2022-08-25T01:11:25Z</time>
      </trkpt>
      <trkpt lat="44.08188" lon="6.23741">
        <ele>864.265</ele>
        <time>2022-08-25T01:11:45Z</time>
      </trkpt>
      <trkpt lat="44.08191" lon="6.23708">
        <ele>863.637</ele>
        <time>2022-08-25T01:12:05Z</time>
      </trkpt>
      <trkpt lat="44.08195" lon="6.23695">
        <ele>862.715</ele>
        <time>2022-08-25T01:12:25Z</time>
      </trkpt>
      <trkpt lat="44.08215" lon="6.23652">
        <ele>857.49</ele>
        <time>2022-08-25T01:12:45Z</time>
      </trkpt>
      <trkpt lat="44.0823" lon="6.23633">
        <ele>855.981</ele>
        <time>2022-08-25T01:13:05Z</time>
      </trkpt>
      <trkpt lat="44.08248" lon="6.23597">
        <ele>844.661</ele>
        <time>2022-08-25T01:13:25Z</time>
      </trkpt>
      <trkpt lat="44.08273" lon="6.23579">
        <ele>836.817</ele>
        <time>2022-08-25T01:13:45Z</time>
      </trkpt>
      <trkpt lat="44.0828" lon="6.23571">
        <ele>836.209</ele>
        <time>2022-08-25T01:14:05Z</time>
      </trkpt>
      <trkpt lat="44.08288" lon="6.23557">
        <ele>835.619</ele>
        <time>2022-08-25T01:14:25Z</time>
      </trkpt>
      <trkpt lat="44.08292" lon="6.2351">
        <ele>822.049</ele>
        <time>2022-08-25T01:14:45Z</time>
      </trkpt>
      <trkpt lat="44.08322" lon="6.23471">
        <ele>810.539</ele>
        <time>2022-08-25T01:15:05Z</time>
      </trkpt>
      <trkpt lat="44.08328" lon="6.23468">
        <ele>810.584</ele>
        <time>2022-08-25T01:15:25Z</time>
      </trkpt>
      <trkpt lat="44.0833" lon="6.23463">
        <ele>810.564</ele>
        <time>2022-08-25T01:15:45Z</time>
      </trkpt>
      <trkpt lat="44.08344" lon="6.23447">
        <ele>810.519</ele>
        <time>2022-08-25T01:16:05Z</time>
      </trkpt>
      <trkpt lat="44.08378" lon="6.23417">
        <ele>793.421</ele>
        <time>2022-08-25T01:16:25Z</time>
      </trkpt>
      <trkpt lat="44.08366" lon="6.23408">
        <ele>791.299</ele>
        <time>2022-08-25T01:16:45Z</time>
      </trkpt>
      <trkpt lat="44.08376" lon="6.23403">
        <ele>789.094</ele>
        <time>2022-08-25T01:17:05Z</time>
      </trkpt>
      <trkpt lat="44.08378" lon="6.23396">
        <ele>785.828</ele>
        <time>2022-08-25T01:17:25Z</time>
      </trkpt>
      <trkpt lat="44.08367" lon="6.23391">
        <ele>784.789</ele>
        <time>2022-08-25T01:17:45Z</time>
      </trkpt>
      <trkpt lat="44.0835" lon="6.23393">
        <ele>779.817</ele>
        <time>2022-08-25T01:18:05Z</time>
      </trkpt>
      <trkpt lat="44.08344" lon="6.23398">
        <ele>778.009</ele>
        <time>2022-08-25T01:18:25Z</time>
      </trkpt>
      <trkpt lat="44.0832" lon="6.23392">
        <ele>773.513</ele>
        <time>2022-08-25T01:18:45Z</time>
      </trkpt>
      <trkpt lat="44.08317" lon="6.23394">
        <ele>769.463</ele>
        <time>2022-08-25T01:19:05Z</time>
      </trkpt>
      <trkpt lat="44.08315" lon="6.23392">
        <ele>768.873</ele>
        <time>2022-08-25T01:19:25Z</time>
      </trkpt>
      <trkpt lat="44.08322" lon="6.23385">
        <ele>768.838</ele>
        <time>2022-08-25T01:19:45Z</time>
      </trkpt>
      <trkpt lat="44.08336" lon="6.23376">
        <ele>767.928</ele>
        <time>2022-08-25T01:20:05Z</time>
      </trkpt>
      <trkpt lat="44.08368" lon="6.23345">
        <ele>758.133</ele>
        <time>2022-08-25T01:20:25Z</time>
      </trkpt>
      <trkpt lat="44.08372" lon="6.23333">
        <ele>757.265</ele>
        <time>2022-08-25T01:20:45Z</time>
      </trkpt>
      <trkpt lat="44.08396" lon="6.23292">
        <ele>747.433</ele>
        <time>2022-08-25T01:21:05Z</time>
      </trkpt>
      <trkpt lat="44.0842" lon="6.2327">
        <ele>736.428</ele>
        <time>2022-08-25T01:21:25Z</time>
      </trkpt>
      <trkpt lat="44.0842" lon="6.23267">
        <ele>736.494</ele>
        <time>2022-08-25T01:21:45Z</time>
      </trkpt>
      <trkpt lat="44.08414" lon="6.2326">
        <ele>736.457</ele>
        <time>2022-08-25T01:22:05Z</time>
      </trkpt>
      <trkpt lat="44.08414" lon="6.23245">
        <ele>735.022</ele>
        <time>2022-08-25T01:22:25Z</time>
      </trkpt>
      <trkpt lat="44.08403" lon="6.23208">
        <ele>721.309</ele>
        <time>2022-08-25T01:22:45Z</time>
      </trkpt>
      <trkpt lat="44.08402" lon="6.23179">
        <ele>719.01</ele>
        <time>2022-08-25T01:23:05Z</time>
      </trkpt>
      <trkpt lat="44.08417" lon="6.23199">
        <ele>714.65</ele>
        <time>2022-08-25T01:23:25Z</time>
      </trkpt>
      <trkpt lat="44.08476" lon="6.23233">
        <ele>699.41</ele>
        <time>2022-08-25T01:23:45Z</time>
      </trkpt>
      <trkpt lat="44.08523" lon="6.23241">
        <ele>693.575</ele>
        <time>2022-08-25T01:24:05Z</time>
      </trkpt>
      <trkpt lat="44.08532" lon="6.23246">
        <ele>693.355</ele>
        <time>2022-08-25T01:24:25Z</time>
      </trkpt>
      <trkpt lat="44.08539" lon="6.23254">
        <ele>693.13</ele>
        <time>2022-08-25T01:24:45Z</time>
      </trkpt>
      <trkpt lat="44.08544" lon="6.23271">
        <ele>693.092</ele>
        <time>2022-08-25T01:25:05Z</time>
      </trkpt>
      <trkpt lat="44.08545" lon="6.23287">
        <ele>692.71</ele>
        <time>2022-08-25T01:25:25Z</time>
      </trkpt>
      <trkpt lat="44.08543" lon="6.23303">
        <ele>692.075</ele>
        <time>2022-08-25T01:25:45Z</time>
      </trkpt>
      <trkpt lat="44.08548" lon="6.23313">
        <ele>691.345</ele>
        <time>2022-08-25T01:26:05Z</time>
      </trkpt>
      <trkpt lat="44.08552" lon="6.23314">
        <ele>690.747</ele>
        <time>2022-08-25T01:26:25Z</time>
      </trkpt>
      <trkpt lat="44.08566" lon="6.23312">
        <ele>689.611</ele>
        <time>2022-08-25T01:26:45Z</time>
      </trkpt>
      <trkpt lat="44.08569" lon="6.23308">
        <ele>688.709</ele>
        <time>2022-08-25T01:27:05Z</time>
      </trkpt>
      <trkpt lat="44.08569" lon="6.23303">
        <ele>688.225</ele>
        <time>2022-08-25T01:27:25Z</time>
      </trkpt>
      <trkpt lat="44.08593" lon="6.23291">
        <ele>681.615</ele>
        <time>2022-08-25T01:27:45Z</time>
      </trkpt>
      <trkpt lat="44.08605" lon="6.23296">
        <ele>677.645</ele>
        <time>2022-08-25T01:28:05Z</time>
      </trkpt>
      <trkpt lat="44.08624" lon="6.23296">
        <ele>674.49</ele>
        <time>2022-08-25T01:28:25Z</time>
      </trkpt>
      <trkpt lat="44.0864" lon="6.23292">
        <ele>669.58</ele>
        <time>2022-08-25T01:28:45Z</time>
      </trkpt>
      <trkpt lat="44.08649" lon="6.23297">
        <ele>666.225</ele>
        <time>2022-08-25T01:29:05Z</time>
      </trkpt>
      <trkpt lat="44.08651" lon="6.23296">
        <ele>665.127</ele>
        <time>2022-08-25T01:29:25Z</time>
      </trkpt>
      <trkpt lat="44.08643" lon="6.23282">
        <ele>664.535</ele>
        <time>2022-08-25T01:29:45Z</time>
      </trkpt>
      <trkpt lat="44.08644" lon="6.23281">
        <ele>663.96</ele>
        <time>2022-08-25T01:30:05Z</time>
      </trkpt>
      <trkpt lat="44.08651" lon="6.23285">
        <ele>659.936</ele>
        <time>2022-08-25T01:30:25Z</time>
      </trkpt>
      <trkpt lat="44.08652" lon="6.23282">
        <ele>659.917</ele>
        <time>2022-08-25T01:30:45Z</time>
      </trkpt>
      <trkpt lat="44.0865" lon="6.23273">
        <ele>658.418</ele>
        <time>2022-08-25T01:31:05Z</time>
      </trkpt>
      <trkpt lat="44.08654" lon="6.23276">
        <ele>658.409</ele>
        <time>2022-08-25T01:31:25Z</time>
      </trkpt>
      <trkpt lat="44.08658" lon="6.23275">
        <ele>658.494</ele>
        <time>2022-08-25T01:31:45Z</time>
      </trkpt>
      <trkpt lat="44.0866" lon="6.23268">
        <ele>653.774</ele>
        <time>2022-08-25T01:32:05Z</time>
      </trkpt>
      <trkpt lat="44.08668" lon="6.23267">
        <ele>649.254</ele>
        <time>2022-08-25T01:32:25Z</time>
      </trkpt>
      <trkpt lat="44.08668" lon="6.23261">
        <ele>649.279</ele>
        <time>2022-08-25T01:32:45Z</time>
      </trkpt>
      <trkpt lat="44.08675" lon="6.23259">
        <ele>644.699</ele>
        <time>2022-08-25T01:33:05Z</time>
      </trkpt>
      <trkpt lat="44.08713" lon="6.23218">
        <ele>626.234</ele>
        <time>2022-08-25T01:33:25Z</time>
      </trkpt>
      <trkpt lat="44.08742" lon="6.23234">
        <ele>618.136</ele>
        <time>2022-08-25T01:33:45Z</time>
      </trkpt>
      <trkpt lat="44.08794" lon="6.23221">
        <ele>607.254</ele>
        <time>2022-08-25T01:34:05Z</time>
      </trkpt>
      <trkpt lat="44.08838" lon="6.23171">
        <ele>597.399</ele>
        <time>2022-08-25T01:34:25Z</time>
      </trkpt>
      <trkpt lat="44.08848" lon="6.23174">
        <ele>596.784</ele>
        <time>2022-08-25T01:34:45Z</time>
      </trkpt>
      <trkpt lat="44.08855" lon="6.2318">
        <ele>596.107</ele>
        <time>2022-08-25T01:35:05Z</time>
      </trkpt>
      <trkpt lat="44.08858" lon="6.23175">
        <ele>595.817</ele>
        <time>2022-08-25T01:35:25Z</time>
      </trkpt>
      <trkpt lat="44.08928" lon="6.23226">
        <ele>595.309</ele>
        <time>2022-08-25T01:35:45Z</time>
      </trkpt>
      <trkpt lat="44.08979" lon="6.23261">
        <ele>596.729</ele>
        <time>2022-08-25T01:36:05Z</time>
      </trkpt>
      <trkpt lat="44.09031" lon="6.23296">
        <ele>597.459</ele>
        <time>2022-08-25T01:36:25Z</time>
      </trkpt>
      <trkpt lat="44.09059" lon="6.23304">
        <ele>597.519</ele>
        <time>2022-08-25T01:36:45Z</time>
      </trkpt>
      <trkpt lat="44.09048" lon="6.2341">
        <ele>598.324</ele>
        <time>2022-08-25T01:37:05Z</time>
      </trkpt>
      <trkpt lat="44.0905" lon="6.23411">
        <ele>598.314</ele>
        <time>2022-08-25T01:37:25Z</time>
      </trkpt>
      <trkpt lat="44.09051" lon="6.23456">
        <ele>599.079</ele>
        <time>2022-08-25T01:37:45Z</time>
      </trkpt>
      <trkpt lat="44.09045" lon="6.23537">
        <ele>600.081</ele>
        <time>2022-08-25T01:38:05Z</time>
      </trkpt>
      <trkpt lat="44.09041" lon="6.23562">
        <ele>600.289</ele>
        <time>2022-08-25T01:38:25Z</time>
      </trkpt>
      <trkpt lat="44.09017" lon="6.23673">
        <ele>601.844</ele>
        <time>2022-08-25T01:38:45Z</time>
      </trkpt>
      <trkpt lat="44.09012" lon="6.23673">
        <ele>601.874</ele>
        <time>2022-08-25T01:39:05Z</time>
      </trkpt>
      <trkpt lat="44.09007" lon="6.23677">
        <ele>601.856</ele>
        <time>2022-08-25T01:39:25Z</time>
      </trkpt>
      <trkpt lat="44.09004" lon="6.23683">
        <ele>601.821</ele>
        <time>2022-08-25T01:39:45Z</time>
      </trkpt>
      <trkpt lat="44.08992" lon="6.23691">
        <ele>601.809</ele>
        <time>2022-08-25T01:40:05Z</time>
      </trkpt>
      <trkpt lat="44.08987" lon="6.23698">
        <ele>602.168</ele>
        <time>2022-08-25T01:40:25Z</time>
      </trkpt>
      <trkpt lat="44.08986" lon="6.2371">
        <ele>602.458</ele>
        <time>2022-08-25T01:40:45Z</time>
      </trkpt>
      <trkpt lat="44.08989" lon="6.23733">
        <ele>602.528</ele>
        <time>2022-08-25T01:41:05Z</time>
      </trkpt>
      <trkpt lat="44.08983" lon="6.23768">
        <ele>603.023</ele>
        <time>2022-08-25T01:41:25Z</time>
      </trkpt>
      <trkpt lat="44.0897" lon="6.23764">
        <ele>603.823</ele>
        <time>2022-08-25T01:41:45Z</time>
      </trkpt>
      <trkpt lat="44.08966" lon="6.23805">
        <ele>602.968</ele>
        <time>2022-08-25T01:42:05Z</time>
      </trkpt>
      <trkpt lat="44.08974" lon="6.23806">
        <ele>602.93</ele>
        <time>2022-08-25T01:42:25Z</time>
      </trkpt>
      <trkpt lat="44.08966" lon="6.23862">
        <ele>601.598</ele>
        <time>2022-08-25T01:42:45Z</time>
      </trkpt>
      <trkpt lat="44.08972" lon="6.23823">
        <ele>601.883</ele>
        <time>2022-08-25T01:43:05Z</time>
      </trkpt>
      <trkpt lat="44.08985" lon="6.23828">
        <ele>602.369</ele>
        <time>2022-08-25T01:43:25Z</time>
      </trkpt>
      <trkpt lat="44.09004" lon="6.23729">
        <ele>602.404</ele>
        <time>2022-08-25T01:43:45Z</time>
      </trkpt>
      <trkpt lat="44.09014" lon="6.23703">
        <ele>602.424</ele>
        <time>2022-08-25T01:44:05Z</time>
      </trkpt>
      <trkpt lat="44.09022" lon="6.23699">
        <ele>602.409</ele>
        <time>2022-08-25T01:44:25Z</time>
      </trkpt>
      <trkpt lat="44.09025" lon="6.23688">
        <ele>602.337</ele>
        <time>2022-08-25T01:44:45Z</time>
      </trkpt>
      <trkpt lat="44.09023" lon="6.23679">
        <ele>602.377</ele>
        <time>2022-08-25T01:45:05Z</time>
      </trkpt>
      <trkpt lat="44.09017" lon="6.23673">
        <ele>602.137</ele>
        <time>2022-08-25T01:45:25Z</time>
      </trkpt>
      <trkpt lat="44.09031" lon="6.23605">
        <ele>601.112</ele>
        <time>2022-08-25T01:45:45Z</time>
      </trkpt>
      <trkpt lat="44.09045" lon="6.23537">
        <ele>600.112</ele>
        <time>2022-08-25T01:46:05Z</time>
      </trkpt>
      <trkpt lat="44.09051" lon="6.23456">
        <ele>599.187</ele>
        <time>2022-08-25T01:46:25Z</time>
      </trkpt>
      <trkpt lat="44.0905" lon="6.23411">
        <ele>598.629</ele>
        <time>2022-08-25T01:46:45Z</time>
      </trkpt>
      <trkpt lat="44.09066" lon="6.23306">
        <ele>597.727</ele>
        <time>2022-08-25T01:47:05Z</time>
      </trkpt>
      <trkpt lat="44.09079" lon="6.23245">
        <ele>597.272</ele>
        <time>2022-08-25T01:47:25Z</time>
      </trkpt>
      <trkpt lat="44.09092" lon="6.23183">
        <ele>597.548</ele>
        <time>2022-08-25T01:47:45Z</time>
      </trkpt>
      <trkpt lat="44.09094" lon="6.23176">
        <ele>597.461</ele>
        <time>2022-08-25T01:48:05Z</time>
      </trkpt>
      <trkpt lat="44.09097" lon="6.23174">
        <ele>597.317</ele>
        <time>2022-08-25T01:48:25Z</time>
      </trkpt>
      <trkpt lat="44.09108" lon="6.2317">
        <ele>597.209</ele>
        <time>2022-08-25T01:48:45Z</time>
      </trkpt>
      <trkpt lat="44.09112" lon="6.23173">
        <ele>597.135</ele>
        <time>2022-08-25T01:49:05Z</time>
      </trkpt>
      <trkpt lat="44.09117" lon="6.23169">
        <ele>597.145</ele>
        <time>2022-08-25T01:49:25Z</time>
      </trkpt>
      <trkpt lat="44.09155" lon="6.23254">
        <ele>597.635</ele>
        <time>2022-08-25T01:49:45Z</time>
      </trkpt>
      <trkpt lat="44.09194" lon="6.2334">
        <ele>598.35</ele>
        <time>2022-08-25T01:50:05Z</time>
      </trkpt>
      <trkpt lat="44.09233" lon="6.23425">
        <ele>599.21</ele>
        <time>2022-08-25T01:50:25Z</time>
      </trkpt>
      <trkpt lat="44.09272" lon="6.2351">
        <ele>600.495</ele>
        <time>2022-08-25T01:50:45Z</time>
      </trkpt>
      <trkpt lat="44.09276" lon="6.23513">
        <ele>600.417</ele>
        <time>2022-08-25T01:51:05Z</time>
      </trkpt>
      <trkpt lat="44.0928" lon="6.23512">
        <ele>600.445</ele>
        <time>2022-08-25T01:51:25Z</time>
      </trkpt>
      <trkpt lat="44.09298" lon="6.23496">
        <ele>600.41</ele>
        <time>2022-08-25T01:51:45Z</time>
      </trkpt>
      <trkpt lat="44.0932" lon="6.23556">
        <ele>601.662</ele>
        <time>2022-08-25T01:52:05Z</time>
      </trkpt>
      <trkpt lat="44.09357" lon="6.23649">
        <ele>602.683</ele>
        <time>2022-08-25T01:52:25Z</time>
      </trkpt>
      <trkpt lat="44.09364" lon="6.23654">
        <ele>602.811</ele>
        <time>2022-08-25T01:52:45Z</time>
      </trkpt>
      <trkpt lat="44.0937" lon="6.23655">
        <ele>603.009</ele>
        <time>2022-08-25T01:53:05Z</time>
      </trkpt>
      <trkpt lat="44.09369" lon="6.23662">
        <ele>603.027</ele>
        <time>2022-08-25T01:53:25Z</time>
      </trkpt>
      <trkpt lat="44.09372" lon="6.23668">
        <ele>603.067</ele>
        <time>2022-08-25T01:53:45Z</time>
      </trkpt>
      <trkpt lat="44.09371" lon="6.23674">
        <ele>603.297</ele>
        <time>2022-08-25T01:54:05Z</time>
      </trkpt>
      <trkpt lat="44.09372" lon="6.23691">
        <ele>603.252</ele>
        <time>2022-08-25T01:54:25Z</time>
      </trkpt>
      <trkpt lat="44.09358" lon="6.23713">
        <ele>603.442</ele>
        <time>2022-08-25T01:54:45Z</time>
      </trkpt>
      <trkpt lat="44.09358" lon="6.23727">
        <ele>603.427</ele>
        <time>2022-08-25T01:55:05Z</time>
      </trkpt>
      <trkpt lat="44.09394" lon="6.23818">
        <ele>604.779</ele>
        <time>2022-08-25T01:55:25Z</time>
      </trkpt>
      <trkpt lat="44.09431" lon="6.23915">
        <ele>606.037</ele>
        <time>2022-08-25T01:55:45Z</time>
      </trkpt>
      <trkpt lat="44.09444" lon="6.23941">
        <ele>606.322</ele>
        <time>2022-08-25T01:56:05Z</time>
      </trkpt>
      <trkpt lat="44.09467" lon="6.24004">
        <ele>607.327</ele>
        <time>2022-08-25T01:56:25Z</time>
      </trkpt>
      <trkpt lat="44.09491" lon="6.24066">
        <ele>608.868</ele>
        <time>2022-08-25T01:56:45Z</time>
      </trkpt>
      <trkpt lat="44.09516" lon="6.2412">
        <ele>610.614</ele>
        <time>2022-08-25T01:57:05Z</time>
      </trkpt>
      <trkpt lat="44.09539" lon="6.2414">
        <ele>611.509</ele>
        <time>2022-08-25T01:57:25Z</time>
      </trkpt>
      <trkpt lat="44.09554" lon="6.24147">
        <ele>611.633</ele>
        <time>2022-08-25T01:57:45Z</time>
      </trkpt>
      <trkpt lat="44.09594" lon="6.24178">
        <ele>611.953</ele>
        <time>2022-08-25T01:58:05Z</time>
      </trkpt>
      <trkpt lat="44.09634" lon="6.24209">
        <ele>612.213</ele>
        <time>2022-08-25T01:58:25Z</time>
      </trkpt>
      <trkpt lat="44.09661" lon="6.24228">
        <ele>612.328</ele>
        <time>2022-08-25T01:58:45Z</time>
      </trkpt>
      <trkpt lat="44.09691" lon="6.24245">
        <ele>612.828</ele>
        <time>2022-08-25T01:59:05Z</time>
      </trkpt>
      <trkpt lat="44.09694" lon="6.2425">
        <ele>612.823</ele>
        <time>2022-08-25T01:59:25Z</time>
      </trkpt>
      <trkpt lat="44.09723" lon="6.24324">
        <ele>613.725</ele>
        <time>2022-08-25T01:59:45Z</time>
      </trkpt>
      <trkpt lat="44.09756" lon="6.24413">
        <ele>614.533</ele>
        <time>2022-08-25T02:00:05Z</time>
      </trkpt>
      <trkpt lat="44.0979" lon="6.24501">
        <ele>615.818</ele>
        <time>2022-08-25T02:00:25Z</time>
      </trkpt>
      <trkpt lat="44.09824" lon="6.24589">
        <ele>618.023</ele>
        <time>2022-08-25T02:00:45Z</time>
      </trkpt>
      <trkpt lat="44.09846" lon="6.24642">
        <ele>620.783</ele>
        <time>2022-08-25T02:01:05Z</time>
      </trkpt>
      <trkpt lat="44.09861" lon="6.24666">
        <ele>621.611</ele>
        <time>2022-08-25T02:01:25Z</time>
      </trkpt>
      <trkpt lat="44.09894" lon="6.24713">
        <ele>625.309</ele>
        <time>2022-08-25T02:01:45Z</time>
      </trkpt>
      <trkpt lat="44.09928" lon="6.2476">
        <ele>627.263</ele>
        <time>2022-08-25T02:02:05Z</time>
      </trkpt>
      <trkpt lat="44.09947" lon="6.2479">
        <ele>627.573</ele>
        <time>2022-08-25T02:02:25Z</time>
      </trkpt>
      <trkpt lat="44.09964" lon="6.24821">
        <ele>627.423</ele>
        <time>2022-08-25T02:02:45Z</time>
      </trkpt>
      <trkpt lat="44.09988" lon="6.24875">
        <ele>627.648</ele>
        <time>2022-08-25T02:03:05Z</time>
      </trkpt>
      <trkpt lat="44.10003" lon="6.24904">
        <ele>627.798</ele>
        <time>2022-08-25T02:03:25Z</time>
      </trkpt>
      <trkpt lat="44.10001" lon="6.24921">
        <ele>627.283</ele>
        <time>2022-08-25T02:03:45Z</time>
      </trkpt>
      <trkpt lat="44.10008" lon="6.24962">
        <ele>625.575</ele>
        <time>2022-08-25T02:04:05Z</time>
      </trkpt>
      <trkpt lat="44.10001" lon="6.24978">
        <ele>625.383</ele>
        <time>2022-08-25T02:04:25Z</time>
      </trkpt>
      <trkpt lat="44.09976" lon="6.24988">
        <ele>624.988</ele>
        <time>2022-08-25T02:04:45Z</time>
      </trkpt>
      <trkpt lat="44.09983" lon="6.2501">
        <ele>624.927</ele>
        <time>2022-08-25T02:05:05Z</time>
      </trkpt>
      <trkpt lat="44.09983" lon="6.25017">
        <ele>625.068</ele>
        <time>2022-08-25T02:05:25Z</time>
      </trkpt>
      <trkpt lat="44.0998" lon="6.25041">
        <ele>625.014</ele>
        <time>2022-08-25T02:05:45Z</time>
      </trkpt>
      <trkpt lat="44.09985" lon="6.25056">
        <ele>625.309</ele>
        <time>2022-08-25T02:06:05Z</time>
      </trkpt>
      <trkpt lat="44.09982" lon="6.2508">
        <ele>625.743</ele>
        <time>2022-08-25T02:06:25Z</time>
      </trkpt>
      <trkpt lat="44.09983" lon="6.25093">
        <ele>626.063</ele>
        <time>2022-08-25T02:06:45Z</time>
      </trkpt>
      <trkpt lat="44.09991" lon="6.25116">
        <ele>628.573</ele>
        <time>2022-08-25T02:07:05Z</time>
      </trkpt>
      <trkpt lat="44.09999" lon="6.25159">
        <ele>630.088</ele>
        <time>2022-08-25T02:07:25Z</time>
      </trkpt>
      <trkpt lat="44.10009" lon="6.25191">
        <ele>630.558</ele>
        <time>2022-08-25T02:07:45Z</time>
      </trkpt>
    </trkseg>
  </trk>
</gpx>